ftp/pub/palmer/observations_modified/2019/June/AR190629_BASE.txt

Download

Sample DateTime	Unit Id	WS Avg 2min	WD Avg 2min	WGS 10min	WGD 10min	Air Temp	Rel Humidity	Dew Point	Pyranometer	Quantum	Air Pressure	Snow Level	Rainfall	PW Current	Visibility	CBase 1	CBase 2	CBase 3	Vert Vis
2019/06/29  00:00:00  BASE  2.9106   208  4.05132  223  -6.5  95    -7.2  0     0     994.2    NA       0.0000   9999     1250  4460  0    
2019/06/29  00:01:00  BASE  3.32808  201  4.05132  223  -6.5  95    -7.2  0     0     994.2    NA       0.0000   9999     4040  0     0    
2019/06/29  00:02:00  BASE  3.15756  202  3.69264  198  -6.5  95    -7.2  0     0     994.3    NA       0.0000   9999     3410  3970  0    
2019/06/29  00:03:00  BASE  2.54604  200  3.69264  198  -6.6  95    -7.2  0     0     994.3    NA       0.0000   9999     1570  4130  0    
2019/06/29  00:04:00  BASE  1.90512  201  3.69264  198  -6.6  95    -7.2  0     0     994.2    NA       0.0000   9999     1310  4170  0    
2019/06/29  00:05:00  BASE  1.72872  202  3.69264  198  -6.6  95    -7.3  0     0     994.2    NA       0.0000   9999     1280  2660  4200 
2019/06/29  00:06:00  BASE  1.8816   195  3.69264  198  -6.6  95    -7.3  0     0     994.3    NA       0.0000   9999     1770  2690  4200 
2019/06/29  00:07:00  BASE  1.95216  187  3.69264  198  -6.6  95    -7.3  0     0     994.3    NA       0.0000   9999     2790  3350  4200 
2019/06/29  00:08:00  BASE  1.92276  184  3.69264  198  -6.6  95    -7.3  0     0     994.4    NA       0.0000   9999     1250  2690  0    
2019/06/29  00:09:00  BASE  1.75224  179  3.69264  198  -6.7  95    -7.4  0     0     994.4    NA       0.0000   9999     1540  2620  0    
2019/06/29  00:10:00  BASE  1.54644  178  3.62796  205  -6.7  95    -7.4  0     0     994.3    NA       0.0000   9999     1440  2590  0    
2019/06/29  00:11:00  BASE  1.58172  180  3.35748  199  -6.7  95    -7.4  0     0     994.4    NA       0.0000   9999     1440  2590  0    
2019/06/29  00:12:00  BASE  1.52292  178  2.56956  203  -6.8  95    -7.4  0     0     994.4    NA       0.0000   9999     1350  2660  0    
2019/06/29  00:13:00  BASE  1.33476  180  2.32848  179  -6.8  95    -7.4  0     0     994.4    NA       0.0000   9999     1310  2660  0    
2019/06/29  00:14:00  BASE  1.2054   185  2.32848  179  -6.7  95    -7.4  0     0     994.4    NA       0.0000   9999     2660  0     0    
2019/06/29  00:15:00  BASE  1.19952  194  2.32848  179  -6.7  95    -7.4  0     0     994.4    NA       0.0000   9999     2760  4000  0    
2019/06/29  00:16:00  BASE  1.42296  206  2.32848  179  -6.7  95    -7.3  0     0     994.4    NA       0.0000   9999     1570  2690  0    
2019/06/29  00:17:00  BASE  1.6464   213  2.1462   186  -6.6  95    -7.3  0     0     994.4    NA       0.0000   9999     1440  2660  0    
2019/06/29  00:18:00  BASE  1.74048  207  2.1462   203  -6.6  95    -7.3  0     0     994.4    NA       0.0000   9999     1310  2590  0    
2019/06/29  00:19:00  BASE  1.54056  199  2.1462   203  -6.6  95    -7.2  0     0     994.4    NA       0.0000   9999     1280  0     0    
2019/06/29  00:20:00  BASE  1.34064  195  2.1462   203  -6.6  95    -7.2  0     0     994.4    NA       0.0000   9999     1280  0     0    
2019/06/29  00:21:00  BASE  1.4112   204  2.1462   203  -6.6  95    -7.2  0     0     994.4    NA       0.0000   9999     1210  0     0    
2019/06/29  00:22:00  BASE  1.54644  216  2.1462   203  -6.6  96    -7.2  0     0     994.4    NA       0.0000   9999     1210  0     0    
2019/06/29  00:23:00  BASE  1.56408  223  2.1462   203  -6.5  96    -7.1  0     0     994.4    NA       0.0000   9999     1180  0     0    
2019/06/29  00:24:00  BASE  1.78752  230  2.84592  226  -6.5  95    -7.1  0     0     994.4    NA       0.0000   9999     1210  0     0    
2019/06/29  00:25:00  BASE  2.37552  235  3.1164   225  -6.5  96    -7.1  0     0     994.3    NA       0.0000   9999     1180  0     0    
2019/06/29  00:26:00  BASE  2.6754   224  3.26928  227  -6.5  96    -7.0  0     0     994.3    NA       0.0000   9999     1180  0     0    
2019/06/29  00:27:00  BASE  2.01096  197  3.26928  227  -6.4  96    -7.0  0     0     994.3    NA       0.0000   9999     1180  0     0    
2019/06/29  00:28:00  BASE  1.24068  198  3.26928  227  -6.4  96    -7.0  0     0     994.2    NA       0.0000   9999     1210  0     0    
2019/06/29  00:29:00  BASE  1.74048  219  3.26928  227  -6.4  96    -7.0  0     0     994.2    NA       0.0000   9999     1210  0     0    
2019/06/29  00:30:00  BASE  2.12856  223  3.26928  227  -6.4  96    -6.9  0     0     994.2    NA       0.0000   9999     1180  0     0    
2019/06/29  00:31:00  BASE  1.65816  205  3.26928  227  -6.4  96    -6.9  0     0     994.2    NA       0.0000   9999     1210  0     0    
2019/06/29  00:32:00  BASE  1.61112  189  3.26928  227  -6.4  96    -6.9  0     0     994.2    NA       0.0000   9999     1250  0     0    
2019/06/29  00:33:00  BASE  1.92276  186  3.26928  227  -6.4  96    -7.0  0     0     994.2    NA       0.0000   9999     1250  0     0    
2019/06/29  00:34:00  BASE  1.80516  185  3.26928  227  -6.4  96    -7.0  0     0     994.2    NA       0.0000   9999     1180  0     0    
2019/06/29  00:35:00  BASE  1.61112  193  3.26928  227  -6.4  96    -7.0  0     0     994.2    NA       0.0000   9999     1210  2430  4000 
2019/06/29  00:36:00  BASE  1.84632  206  2.75184  207  -6.5  96    -7.0  0     0     994.2    NA       0.0000   9999     1280  0     0    
2019/06/29  00:37:00  BASE  1.9698   212  2.75184  207  -6.4  96    -7.0  0     0     994.2    NA       0.0000   9999     1250  0     0    
2019/06/29  00:38:00  BASE  1.75812  206  2.75184  207  -6.4  96    -6.9  0     0     994.2    NA       0.0000   9999     1250  0     0    
2019/06/29  00:39:00  BASE  1.57584  202  2.48136  219  -6.4  96    -6.9  0     0     994.2    NA       0.0000   9999     1210  0     0    
2019/06/29  00:40:00  BASE  1.7052   217  2.48136  219  -6.4  96    -6.9  0     0     994.2    NA       0.0000   9999     1210  0     0    
2019/06/29  00:41:00  BASE  1.92864  214  2.48136  219  -6.4  96    -6.9  0     0     994.3    NA       0.0000   9999     1210  0     0    
2019/06/29  00:42:00  BASE  2.12856  195  2.56956  196  -6.4  96    -6.9  0     0     994.4    NA       0.0000   9999     1180  0     0    
2019/06/29  00:43:00  BASE  2.42844  196  3.1458   208  -6.4  96    -6.9  0     0     994.4    NA       0.0000   9999     1210  0     0    
2019/06/29  00:44:00  BASE  2.37552  203  3.1458   208  -6.4  96    -6.9  0     0     994.4    NA       0.0000   9999     1180  0     0    
2019/06/29  00:45:00  BASE  2.3226   211  3.1458   208  -6.4  96    -6.9  0     0     994.4    NA       0.0000   9999     1180  0     0    
2019/06/29  00:46:00  BASE  2.16384  218  3.1458   208  -6.4  96    -6.9  0     0     994.4    NA       0.0000   9999     1210  0     0    
2019/06/29  00:47:00  BASE  2.04036  225  3.1458   208  -6.3  96    -6.8  0     0     994.4    NA       0.0000   9999     1250  0     0    
2019/06/29  00:48:00  BASE  2.18736  223  3.1458   208  -6.3  97    -6.7  0     0     994.4    NA       0.0000   9999     1180  0     0    
2019/06/29  00:49:00  BASE  2.19324  209  3.1458   208  -6.3  97    -6.7  0     0     994.4    NA       0.0000   9999     1180  0     0    
2019/06/29  00:50:00  BASE  2.646    203  3.59856  204  -6.3  97    -6.7  0     0     994.4    NA       0.0000   9999     1180  0     0    
2019/06/29  00:51:00  BASE  2.88708  209  3.59856  204  -6.2  97    -6.6  0     0     994.4    NA       0.0000   9999     1180  0     0    
2019/06/29  00:52:00  BASE  2.65188  209  3.59856  204  -6.2  97    -6.6  0     0     994.4    NA       0.0000   9999     1150  0     0    
2019/06/29  00:53:00  BASE  2.4696   202  3.59856  204  -6.2  97    -6.6  0     0     994.4    NA       0.0000   9999     1180  0     0    
2019/06/29  00:54:00  BASE  2.22264  200  3.59856  204  -6.2  97    -6.6  0     0     994.4    NA       0.0000   9999     1120  0     0    
2019/06/29  00:55:00  BASE  2.25792  196  3.59856  204  -6.2  97    -6.6  0     0     994.4    NA       0.0000   9999     1150  0     0    
2019/06/29  00:56:00  BASE  2.61072  195  3.59856  204  -6.2  97    -6.6  0     0     994.4    NA       0.0000   9999     1150  0     0    
2019/06/29  00:57:00  BASE  2.31084  202  3.59856  204  -6.2  97    -6.6  0     0     994.4    NA       0.0000   9999     1150  0     0    
2019/06/29  00:58:00  BASE  2.25204  206  3.59856  204  -6.2  97    -6.6  0     0     994.4    NA       0.0000   9999     1150  0     0    
2019/06/29  00:59:00  BASE  2.61072  210  3.59856  204  -6.2  97    -6.6  0     0     994.4    NA       0.0000   9999     1150  0     0    
2019/06/29  01:00:00  BASE  2.84004  217  3.53976  215  -6.2  97    -6.6  0     0     994.3    NA       0.0000   9999     1180  2330  0    
2019/06/29  01:01:00  BASE  3.22812  220  3.93372  213  -6.2  97    -6.6  0     0     994.2    NA       0.0000   9999     1250  2200  2850 
2019/06/29  01:02:00  BASE  3.2634   221  3.93372  213  -6.2  97    -6.6  0     0     994.2    NA       0.0000   9999     1280  2260  0    
2019/06/29  01:03:00  BASE  2.80476  217  3.93372  213  -6.2  97    -6.5  0     0     994.2    NA       0.0000   9999     1210  2130  0    
2019/06/29  01:04:00  BASE  2.3226   219  3.93372  213  -6.2  97    -6.5  0     0     994.2    NA       0.0000   9999     1510  2230  0    
2019/06/29  01:05:00  BASE  2.24028  225  3.93372  213  -6.2  97    -6.6  0     0     994.2    NA       0.0000   9999     1210  0     0    
2019/06/29  01:06:00  BASE  2.09916  230  3.93372  213  -6.2  97    -6.6  0     0     994.2    NA       0.0000   9999     1150  0     0    
2019/06/29  01:07:00  BASE  1.86984  232  3.93372  213  -6.2  97    -6.6  0     0     994.2    NA       0.0000   9999     1210  2230  0    
2019/06/29  01:08:00  BASE  1.6464   221  3.93372  213  -6.2  97    -6.6  0     0     994.2    NA       0.0000   9999     1180  2170  0    
2019/06/29  01:09:00  BASE  1.82868  208  3.93372  213  -6.2  97    -6.6  0     0     994.3    NA       0.0000   9999     1180  1710  0    
2019/06/29  01:10:00  BASE  2.04036  206  3.93372  213  -6.2  97    -6.6  0     0     994.3    NA       0.0000   9999     1120  0     0    
2019/06/29  01:11:00  BASE  1.96392  213  3.93372  213  -6.2  97    -6.6  0     0     994.3    NA       0.0000   9999     1150  1740  0    
2019/06/29  01:12:00  BASE  1.89336  218  2.72244  214  -6.2  97    -6.6  0     0     994.3    NA       0.0000   9999     1120  0     0    
2019/06/29  01:13:00  BASE  1.65228  215  2.56956  227  -6.2  97    -6.6  0     0     994.3    NA       0.0000   9999     1120  0     0    
2019/06/29  01:14:00  BASE  1.50528  216  2.56956  227  -6.2  97    -6.6  0     0     994.4    NA       0.0000   9999     1150  0     0    
2019/06/29  01:15:00  BASE  1.4994   220  2.48136  200  -6.2  97    -6.6  0     0     994.3    NA       0.0000   9999     1120  0     0    
2019/06/29  01:16:00  BASE  1.54644  225  2.48136  200  -6.2  97    -6.6  0     0     994.3    NA       0.0000   9999     1120  2300  0    
2019/06/29  01:17:00  BASE  1.3524   228  2.48136  200  -6.1  97    -6.5  0     0     994.4    NA       0.0000   9999     1120  0     0    
2019/06/29  01:18:00  BASE  1.43472  229  2.48136  200  -6.1  97    -6.5  0     0     994.4    NA       0.0000   9999     1120  0     0    
2019/06/29  01:19:00  BASE  1.71696  236  2.35788  205  -6.1  97    -6.5  0     0     994.4    NA       0.0000   9999     1080  0     0    
2019/06/29  01:20:00  BASE  1.48764  243  2.1756   214  -6.1  97    -6.5  0     0     994.4    NA       0.0000   9999     1050  0     0    
2019/06/29  01:21:00  BASE  1.0878   240  2.1756   214  -6.2  97    -6.5  0     0     994.4    NA       0.0000   9999     1050  1740  0    
2019/06/29  01:22:00  BASE  0.86436  239  2.1462   233  -6.2  97    -6.5  0     0     994.4    NA       0.0000   9999     1250  0     0    
2019/06/29  01:23:00  BASE  0.97608  248  2.1462   233  -6.2  97    -6.6  0     0     994.4    NA       0.0000   9999     1210  0     0    
2019/06/29  01:24:00  BASE  1.176    252  2.1462   233  -6.2  97    -6.6  0     0     994.4    NA       0.0000   9999     1150  0     0    
2019/06/29  01:25:00  BASE  1.40532  249  2.1462   233  -6.2  97    -6.5  0     0     994.4    NA       0.0000   9999     1120  0     0    
2019/06/29  01:26:00  BASE  1.72284  251  2.1462   264  -6.2  98    -6.5  0     0     994.3    NA       0.0000   9999     1050  1900  0    
2019/06/29  01:27:00  BASE  1.96392  249  2.35788  243  -6.2  98    -6.5  0     0     994.3    NA       0.0000   9999     1310  2030  0    
2019/06/29  01:28:00  BASE  1.9698   242  2.35788  243  -6.2  98    -6.4  0     0     994.2    NA       0.0000   9999     1180  2000  0    
2019/06/29  01:29:00  BASE  1.8522   234  2.35788  243  -6.2  98    -6.4  0     0     994.3    NA       0.0000   9999     1150  2070  0    
2019/06/29  01:30:00  BASE  1.74048  226  2.35788  243  -6.2  98    -6.4  0     0     994.4    NA       0.0000   9999     1120  0     0    
2019/06/29  01:31:00  BASE  1.64052  229  2.35788  243  -6.1  98    -6.4  0     0     994.4    NA       0.0000   9999     1080  0     0    
2019/06/29  01:32:00  BASE  1.47588  242  2.35788  243  -6.1  98    -6.4  0     0     994.4    NA       0.0000   9999     1050  0     0    
2019/06/29  01:33:00  BASE  1.44648  248  2.35788  243  -6.1  98    -6.4  0     0     994.4    NA       0.0000   9999     1080  0     0    
2019/06/29  01:34:00  BASE  1.59348  242  2.35788  243  -6.2  98    -6.4  0     0     994.4    NA       0.0000   9999     1120  0     0    
2019/06/29  01:35:00  BASE  1.62876  234  2.35788  243  -6.2  98    -6.4  0     0     994.4    NA       0.0000   9999     1120  0     0    
2019/06/29  01:36:00  BASE  1.50528  233  2.35788  243  -6.2  98    -6.4  0     0     994.4    NA       0.0000   9999     1120  0     0    
2019/06/29  01:37:00  BASE  1.31712  232  2.1168   229  -6.1  98    -6.4  0     0     994.4    NA       0.0000   9999     1080  0     0    
2019/06/29  01:38:00  BASE  1.3818   230  2.1168   229  -6.1  98    -6.4  0     0     994.4    NA       0.0000   9999     1080  0     0    
2019/06/29  01:39:00  BASE  1.47588  231  2.0874   239  -6.1  98    -6.3  0     0     994.4    NA       0.0000   9999     1080  0     0    
2019/06/29  01:40:00  BASE  1.47588  236  2.0874   239  -6.1  99    -6.2  0     0     994.4    NA       0.0000   9999     1080  0     0    
2019/06/29  01:41:00  BASE  1.66404  241  2.0874   242  -6.1  99    -6.2  0     0     994.4    NA       0.0000   9999     1050  1900  0    
2019/06/29  01:42:00  BASE  1.74636  236  2.0874   242  -6.0  99    -6.2  0     0     994.4    NA       0.0000   9999     1020  1970  0    
2019/06/29  01:43:00  BASE  1.34652  229  2.0874   242  -6.0  99    -6.1  0     0     994.4    NA       0.0000   9999     1120  1940  0    
2019/06/29  01:44:00  BASE  0.88788  231  2.0874   242  -6.0  99    -6.1  0     0     994.4    NA       0.0000   9999     1180  0     0    
2019/06/29  01:45:00  BASE  0.75852  242  2.0874   242  -6.0  99    -6.1  0     0     994.4    NA       0.0000   9999     1120  0     0    
2019/06/29  01:46:00  BASE  1.00548  252  2.0874   242  -6.0  99    -6.1  0     0     994.4    NA       0.0000   9999     1120  0     0    
2019/06/29  01:47:00  BASE  1.4994   257  2.0874   242  -6.0  99    -6.2  0     0     994.4    NA       0.0000   9999     1120  0     0    
2019/06/29  01:48:00  BASE  1.5288   260  2.0874   242  -6.0  99    -6.2  0     0     994.4    NA       0.0000   9999     1120  0     0    
2019/06/29  01:49:00  BASE  1.17012  249  2.0874   242  -6.0  99    -6.2  0     0     994.4    NA       0.0000   9999     1080  0     0    
2019/06/29  01:50:00  BASE  1.029    235  2.0874   242  -6.0  99    -6.2  0     0     994.5    NA       0.0000   9999     1080  0     0    
2019/06/29  01:51:00  BASE  0.75852  238  2.058    267  -6.0  99    -6.2  0     0     994.5    NA       0.0000   9999     1050  0     0    
2019/06/29  01:52:00  BASE  0.735    241  2.058    267  -6.0  99    -6.2  0     0     994.5    NA       0.0000   9999     1210  0     0    
2019/06/29  01:53:00  BASE  1.19952  240  2.058    267  -6.0  99    -6.2  0     0     994.5    NA       0.0000   9999     1120  0     0    
2019/06/29  01:54:00  BASE  1.37004  245  2.058    267  -6.0  99    -6.2  0     0     994.5    NA       0.0000   9999     1120  0     0    
2019/06/29  01:55:00  BASE  1.29948  253  2.058    267  -6.0  99    -6.2  0     0     994.6    NA       0.0000   9999     1150  2030  0    
2019/06/29  01:56:00  BASE  1.84044  251  2.87532  243  -6.0  99    -6.2  0     0     994.6    NA       0.0000   9999     1210  0     0    
2019/06/29  01:57:00  BASE  2.33436  246  2.87532  243  -6.0  99    -6.1  0     0     994.6    NA       0.0000   9999     1210  0     0    
2019/06/29  01:58:00  BASE  2.3814   244  2.87532  243  -6.0  99    -6.1  0     0     994.6    NA       0.0000   9999     1120  0     0    
2019/06/29  01:59:00  BASE  2.01096  241  2.87532  243  -6.0  99    -6.1  0     0     994.6    NA       0.0000   9999     1080  0     0    
2019/06/29  02:00:00  BASE  1.48176  243  2.87532  243  -6.0  99    -6.1  0     0     994.6    NA       0.0000   9999     1210  0     0    
2019/06/29  02:01:00  BASE  1.9698   248  2.96352  251  -6.0  99    -6.1  0     0     994.6    NA       0.0000   9999     1150  0     0    
2019/06/29  02:02:00  BASE  2.64012  249  2.96352  251  -6.0  99    -6.1  0     0     994.6    NA       0.0000   9999     1180  0     0    
2019/06/29  02:03:00  BASE  2.62248  247  2.96352  251  -6.0  99    -6.1  0     0     994.6    NA       0.0000   9999     980   0     0    
2019/06/29  02:04:00  BASE  2.36376  243  2.96352  251  -6.0  99    -6.1  0     0     994.6    NA       0.0000   9999     950   0     0    
2019/06/29  02:05:00  BASE  2.55192  241  3.2046   245  -6.0  99    -6.1  0     0     994.6    NA       0.0000   9999     980   0     0    
2019/06/29  02:06:00  BASE  2.65188  239  3.2046   245  -6.0  99    -6.1  0     0     994.6    NA       0.0000   9999     920   0     0    
2019/06/29  02:07:00  BASE  2.09916  235  3.2046   245  -6.0  99    -6.1  0     0     994.6    NA       0.0000   9999     950   0     0    
2019/06/29  02:08:00  BASE  1.61112  241  3.2046   245  -6.0  99    -6.1  0     0     994.6    NA       0.0000   9999     920   0     0    
2019/06/29  02:09:00  BASE  1.79928  250  3.2046   245  -6.0  99    -6.1  0     0     994.6    NA       0.0000   9999     920   0     0    
2019/06/29  02:10:00  BASE  2.26968  254  3.2046   245  -6.0  99    -6.1  0     0     994.6    NA       0.0000   9999     1020  0     0    
2019/06/29  02:11:00  BASE  2.66364  254  3.41628  247  -5.9  99    -6.1  0     0     994.6    NA       0.0000   9999     980   0     0    
2019/06/29  02:12:00  BASE  2.7048   248  3.41628  247  -5.9  99    -6.1  0     0     994.6    NA       0.0000   9999     1020  0     0    
2019/06/29  02:13:00  BASE  2.39316  237  3.41628  247  -5.9  99    -6.0  0     0     994.6    NA       0.0000   9999     950   0     0    
2019/06/29  02:14:00  BASE  2.06976  237  3.41628  247  -5.9  99    -6.0  0     0     994.6    NA       0.0000   9999     950   0     0    
2019/06/29  02:15:00  BASE  1.74636  250  3.41628  247  -5.9  99    -6.0  0     0     994.6    NA       0.0000   9999     1020  0     0    
2019/06/29  02:16:00  BASE  1.27596  246  3.41628  247  -5.9  99    -6.0  0     0     994.5    NA       0.0000   9999     1080  0     0    
2019/06/29  02:17:00  BASE  1.2348   232  3.41628  247  -5.9  99    -6.0  0     0     994.5    NA       0.0000   9999     1120  0     0    
2019/06/29  02:18:00  BASE  1.81104  236  3.41628  247  -5.9  99    -6.0  0     0     994.5    NA       0.0000   9999     1080  0     0    
2019/06/29  02:19:00  BASE  1.80516  245  3.41628  247  -5.9  99    -6.0  0     0     994.5    NA       0.0000   9999     980   0     0    
2019/06/29  02:20:00  BASE  1.39944  243  3.41628  247  -5.9  99    -6.0  0     0     994.5    NA       0.0000   9999     1020  0     0    
2019/06/29  02:21:00  BASE  1.44648  244  3.234    246  -5.9  99    -6.0  0     0     994.5    NA       0.0000   9999     1080  0     0    
2019/06/29  02:22:00  BASE  1.90512  243  2.56956  229  -5.9  99    -6.0  0     0     994.5    NA       0.0000   9999     1120  0     0    
2019/06/29  02:23:00  BASE  2.058    238  2.48136  236  -5.9  99    -6.0  0     0     994.5    NA       0.0000   9999     1080  0     0    
2019/06/29  02:24:00  BASE  1.911    227  2.48136  236  -5.9  99    -6.0  0     0     994.5    NA       0.0000   9999     1150  0     0    
2019/06/29  02:25:00  BASE  2.03448  229  2.63424  243  -5.9  99    -6.0  0     0     994.5    NA       0.0000   9999     1150  0     0    
2019/06/29  02:26:00  BASE  1.91688  243  2.63424  243  -5.9  99    -6.0  0     0     994.5    NA       0.0000   9999     1150  0     0    
2019/06/29  02:27:00  BASE  1.75224  249  2.63424  243  -5.9  99    -6.0  0     0     994.5    NA       0.0000   9999     1280  0     0    
2019/06/29  02:28:00  BASE  2.04624  242  3.1458   227  -5.9  99    -6.0  0     0     994.5    NA       0.0000   9999     1250  0     0    
2019/06/29  02:29:00  BASE  2.352    225  3.1458   227  -5.9  99    -6.0  0     0     994.5    NA       0.0000   9999     1210  0     0    
2019/06/29  02:30:00  BASE  2.36376  225  3.1458   227  -5.9  99    -6.0  0     0     994.5    NA       0.0000   9999     1080  0     0    
2019/06/29  02:31:00  BASE  2.21676  233  3.1458   227  -5.9  99    -6.0  0     0     994.5    NA       0.0000   9999     1180  0     0    
2019/06/29  02:32:00  BASE  2.3226   229  3.1458   227  -5.8  99    -6.0  0     0     994.5    NA       0.0000   9999     1210  0     0    
2019/06/29  02:33:00  BASE  2.24616  221  3.1458   227  -5.8  99    -6.0  0     0     994.5    NA       0.0000   9999     1050  0     0    
2019/06/29  02:34:00  BASE  2.2932   217  3.29868  209  -5.8  99    -5.9  0     0     994.5    NA       0.0000   9999     1120  0     0    
2019/06/29  02:35:00  BASE  2.6754   223  3.41628  229  -5.8  99    -5.9  0     0     994.5    NA       0.0000   9999     1150  0     0    
2019/06/29  02:36:00  BASE  3.09288  230  3.90432  224  -5.8  99    -5.9  0     0     994.5    NA       0.0000   9999     1050  0     0    
2019/06/29  02:37:00  BASE  3.1752   233  3.90432  224  -5.8  99    -5.9  0     0     994.5    NA       0.0000   9999     1020  0     0    
2019/06/29  02:38:00  BASE  3.06348  231  3.90432  224  -5.8  99    -5.9  0     0     994.5    NA       0.0000   9999     980   0     0    
2019/06/29  02:39:00  BASE  3.02232  224  3.90432  224  -5.8  99    -5.9  0     0     994.5    NA       0.0000   9999     720   0     0    
2019/06/29  02:40:00  BASE  2.6166   220  3.90432  224  -5.8  99    -5.9  0     0     994.5    NA       0.0000   9999     720   0     0    
2019/06/29  02:41:00  BASE  2.59896  220  3.90432  224  -5.8  99    -5.9  0     0     994.5    NA       0.0000   9999     720   0     0    
2019/06/29  02:42:00  BASE  3.06348  217  3.90432  224  -5.8  99    -5.9  0     0     994.5    NA       0.0000   9999     590   0     0    
2019/06/29  02:43:00  BASE  3.2046   211  3.90432  224  -5.8  99    -5.9  0     0     994.6    NA       0.0000   9999     430   0     0    
2019/06/29  02:44:00  BASE  3.03408  206  3.90432  224  -5.8  99    -5.9  0     0     994.6    NA       0.0000   9999     490   0     0    
2019/06/29  02:45:00  BASE  2.7636   208  3.90432  224  -5.8  99    -6.0  0     0     994.6    NA       0.0000   9999     460   0     0    
2019/06/29  02:46:00  BASE  2.499    217  3.78084  217  -5.8  99    -6.0  0     0     994.6    NA       0.0000   9999     430   0     0    
2019/06/29  02:47:00  BASE  2.12268  224  3.78084  217  -5.9  99    -6.0  0     0     994.6    NA       0.0000   9999     490   0     0    
2019/06/29  02:48:00  BASE  1.68756  217  3.78084  217  -5.9  99    -6.0  0     0     994.6    NA       0.0000   9999     1020  0     0    
2019/06/29  02:49:00  BASE  1.66404  205  3.78084  217  -5.9  99    -6.0  0     0     994.5    NA       0.0000   9999     950   0     0    
2019/06/29  02:50:00  BASE  2.18736  199  3.86904  210  -5.9  99    -6.0  0     0     994.5    NA       0.0000   9999     920   0     0    
2019/06/29  02:51:00  BASE  2.7342   207  3.86904  210  -5.9  99    -6.0  0     0     994.5    NA       0.0000   9999     750   0     0    
2019/06/29  02:52:00  BASE  2.72244  215  3.86904  210  -5.9  99    -6.0  0     0     994.5    NA       0.0000   9999     980   0     0    
2019/06/29  02:53:00  BASE  2.37552  213  3.86904  210  -5.9  99    -6.0  0     0     994.5    NA       0.0000   9999     1080  0     0    
2019/06/29  02:54:00  BASE  2.08152  207  3.86904  210  -5.9  99    -6.0  0     0     994.5    NA       0.0000   9999     1120  0     0    
2019/06/29  02:55:00  BASE  1.9992   208  3.86904  210  -5.9  99    -6.0  0     0     994.5    NA       0.0000   9999     1150  0     0    
2019/06/29  02:56:00  BASE  2.71656  222  3.86904  210  -5.9  99    -6.0  0     0     994.4    NA       0.0000   9999     1080  0     0    
2019/06/29  02:57:00  BASE  3.25752  228  3.86904  210  -5.9  100   -6.0  0     0     994.4    NA       0.0000   9999     1150  0     0    
2019/06/29  02:58:00  BASE  2.8812   217  3.86904  210  -5.9  100   -5.9  0     0     994.5    NA       0.0000   9999     1120  0     0    
2019/06/29  02:59:00  BASE  2.47548  208  3.86904  210  -5.9  100   -5.9  0     0     994.5    NA       0.0000   9999     1180  0     0    
2019/06/29  03:00:00  BASE  2.13444  206  3.69264  208  -5.9  100   -5.9  0     0     994.5    NA       0.0000   9999     1180  0     0    
2019/06/29  03:01:00  BASE  2.16384  210  3.62796  224  -5.9  100   -5.9  0     0     994.5    NA       0.0000   9999     1210  1870  2330 
2019/06/29  03:02:00  BASE  2.95176  218  3.65736  217  -5.9  100   -5.9  0     0     994.5    NA       0.0000   9999     1250  1900  0    
2019/06/29  03:03:00  BASE  3.39864  220  3.65736  217  -5.9  100   -6.0  0     0     994.5    NA       0.0000   9999     1250  0     0    
2019/06/29  03:04:00  BASE  2.74008  222  3.65736  217  -5.9  99    -6.0  0     0     994.5    NA       0.0000   9999     1280  0     0    
2019/06/29  03:05:00  BASE  2.12268  227  3.65736  217  -6.0  99    -6.1  0     0     994.5    NA       0.0000   9999     1250  0     0    
2019/06/29  03:06:00  BASE  2.04624  235  3.65736  217  -6.0  99    -6.1  0     0     994.5    NA       0.0000   9999     1310  0     0    
2019/06/29  03:07:00  BASE  2.18148  230  3.65736  217  -6.0  99    -6.1  0     0     994.4    NA       0.0000   9999     1250  0     0    
2019/06/29  03:08:00  BASE  2.61072  215  3.65736  217  -6.0  99    -6.1  0     0     994.4    NA       0.0000   9999     1180  2330  0    
2019/06/29  03:09:00  BASE  2.86356  205  3.65736  217  -5.9  99    -6.1  0     0     994.4    NA       0.0000   9999     1310  2230  3740 
2019/06/29  03:10:00  BASE  2.54016  201  3.65736  217  -5.9  99    -6.1  0     0     994.4    NA       0.0000   9999     1380  2260  3740 
2019/06/29  03:11:00  BASE  2.38728  204  3.65736  217  -5.9  99    -6.1  0     0     994.4    NA       0.0000   9999     1250  2360  3740 
2019/06/29  03:12:00  BASE  2.51076  202  3.59856  220  -5.9  98    -6.1  0     0     994.4    NA       0.0000   9999     1210  0     0    
2019/06/29  03:13:00  BASE  2.4402   196  3.2046   204  -5.9  98    -6.2  0     0     994.4    NA       0.0000   9999     1280  0     0    
2019/06/29  03:14:00  BASE  2.83416  200  3.81024  212  -5.9  98    -6.2  0     0     994.4    NA       0.0000   9999     1280  0     0    
2019/06/29  03:15:00  BASE  3.27516  210  3.81024  212  -5.9  98    -6.2  0     0     994.4    NA       0.0000   9999     1310  0     0    
2019/06/29  03:16:00  BASE  2.86944  214  3.81024  212  -5.9  98    -6.2  0     0     994.4    NA       0.0000   9999     1280  0     0    
2019/06/29  03:17:00  BASE  2.78712  220  3.81024  212  -5.9  98    -6.2  0     0     994.4    NA       0.0000   9999     1280  0     0    
2019/06/29  03:18:00  BASE  2.9694   226  3.81024  212  -5.9  98    -6.2  0     0     994.4    NA       0.0000   9999     1210  0     0    
2019/06/29  03:19:00  BASE  2.58132  221  3.81024  212  -5.9  98    -6.2  0     0     994.4    NA       0.0000   9999     1250  0     0    
2019/06/29  03:20:00  BASE  2.62248  219  3.81024  212  -5.9  98    -6.2  0     0     994.4    NA       0.0000   9999     1250  0     0    
2019/06/29  03:21:00  BASE  2.95176  214  3.81024  212  -5.9  98    -6.2  0     0     994.4    NA       0.0000   9999     1250  0     0    
2019/06/29  03:22:00  BASE  2.94588  208  3.81024  212  -5.9  98    -6.2  0     0     994.5    NA       0.0000   9999     1250  0     0    
2019/06/29  03:23:00  BASE  2.93412  208  3.81024  212  -5.9  98    -6.2  0     0     994.5    NA       0.0000   9999     1120  0     0    
2019/06/29  03:24:00  BASE  2.94     207  3.78084  213  -5.9  98    -6.2  0     0     994.5    NA       0.0000   9999     1210  0     0    
2019/06/29  03:25:00  BASE  3.1164   206  3.69264  225  -5.9  98    -6.2  0     0     994.5    NA       0.0000   9999     1150  0     0    
2019/06/29  03:26:00  BASE  3.0282   206  3.69264  225  -5.9  98    -6.2  0     0     994.6    NA       0.0000   9999     1080  0     0    
2019/06/29  03:27:00  BASE  2.81064  209  3.69264  225  -5.9  98    -6.2  0     0     994.6    NA       0.0000   9999     1080  0     0    
2019/06/29  03:28:00  BASE  3.25752  213  3.99252  202  -5.9  98    -6.2  0     0     994.6    NA       0.0000   9999     1180  0     0    
2019/06/29  03:29:00  BASE  3.4398   209  3.99252  202  -5.9  98    -6.3  0     0     994.6    NA       0.0000   9999     1150  0     0    
2019/06/29  03:30:00  BASE  3.28692  212  3.99252  202  -6.0  98    -6.3  0     0     994.6    NA       0.0000   9999     1210  0     0    
2019/06/29  03:31:00  BASE  3.5574   223  4.2042   219  -6.0  98    -6.2  0     0     994.6    NA       0.0000   9999     1210  0     0    
2019/06/29  03:32:00  BASE  3.59268  225  4.2042   219  -6.0  98    -6.3  0     0     994.6    NA       0.0000   9999     1210  0     0    
2019/06/29  03:33:00  BASE  3.35748  218  4.2042   219  -6.0  97    -6.3  0     0     994.6    NA       0.0000   9999     1180  0     0    
2019/06/29  03:34:00  BASE  3.2046   208  4.2042   219  -6.0  97    -6.3  0     0     994.6    NA       0.0000   9999     1180  0     0    
2019/06/29  03:35:00  BASE  3.06936  201  4.2042   219  -6.0  97    -6.4  0     0     994.6    NA       0.0000   9999     1180  0     0    
2019/06/29  03:36:00  BASE  2.66952  205  4.2042   219  -6.0  97    -6.4  0     0     994.6    NA       0.0000   9999     1250  0     0    
2019/06/29  03:37:00  BASE  2.65776  207  4.2042   219  -6.0  97    -6.4  0     0     994.6    NA       0.0000   9999     1210  0     0    
2019/06/29  03:38:00  BASE  3.18108  201  4.29828  217  -6.0  97    -6.4  0     0     994.6    NA       0.0000   9999     1150  0     0    
2019/06/29  03:39:00  BASE  3.74556  206  4.47468  215  -6.0  97    -6.4  0     0     994.6    NA       0.0000   9999     1180  0     0    
2019/06/29  03:40:00  BASE  4.16304  208  4.93332  199  -6.0  97    -6.4  0     0     994.6    NA       0.0000   9999     1150  0     0    
2019/06/29  03:41:00  BASE  4.1454   202  4.93332  199  -6.0  97    -6.4  0     0     994.6    NA       0.0000   9999     1150  0     0    
2019/06/29  03:42:00  BASE  3.92196  197  4.93332  199  -6.0  97    -6.4  0     0     994.6    NA       0.0000   9999     1050  0     0    
2019/06/29  03:43:00  BASE  3.65736  200  4.93332  199  -6.1  97    -6.5  0     0     994.6    NA       0.0000   9999     1120  0     0    
2019/06/29  03:44:00  BASE  3.4986   210  4.93332  199  -6.1  97    -6.4  0     0     994.6    NA       0.0000   9999     1120  0     0    
2019/06/29  03:45:00  BASE  3.44568  218  4.93332  199  -6.1  97    -6.4  0     0     994.6    NA       0.0000   9999     1080  0     0    
2019/06/29  03:46:00  BASE  3.19872  213  4.93332  199  -6.0  98    -6.4  0     0     994.6    NA       0.0000   9999     1120  0     0    
2019/06/29  03:47:00  BASE  3.26928  207  4.93332  199  -6.0  98    -6.3  0     0     994.6    NA       0.0000   9999     1120  0     0    
2019/06/29  03:48:00  BASE  3.39276  208  4.93332  199  -6.0  98    -6.3  0     0     994.6    NA       0.0000   9999     1120  0     0    
2019/06/29  03:49:00  BASE  3.21636  204  4.93332  199  -6.1  98    -6.3  0     0     994.6    NA       0.0000   9999     1150  0     0    
2019/06/29  03:50:00  BASE  3.13404  199  4.53936  198  -6.1  98    -6.3  0     0     994.6    NA       0.0000   9999     1120  0     0    
2019/06/29  03:51:00  BASE  3.25164  206  4.32768  192  -6.1  98    -6.4  0     0     994.6    NA       0.0000   9999     1080  0     0    
2019/06/29  03:52:00  BASE  3.75732  211  4.47468  204  -6.1  98    -6.4  0     0     994.6    NA       0.0000   9999     1120  0     0    
2019/06/29  03:53:00  BASE  3.89844  209  4.47468  204  -6.1  98    -6.4  0     0     994.6    NA       0.0000   9999     1120  0     0    
2019/06/29  03:54:00  BASE  3.8514   205  4.47468  204  -6.1  98    -6.4  0     0     994.6    NA       0.0000   9999     1080  0     0    
2019/06/29  03:55:00  BASE  3.97488  197  4.47468  204  -6.1  98    -6.4  0     0     994.6    NA       0.0000   9999     1020  0     0    
2019/06/29  03:56:00  BASE  3.49272  198  4.47468  204  -6.1  98    -6.4  0     0     994.7    NA       0.0000   9999     1020  0     0    
2019/06/29  03:57:00  BASE  2.95176  204  4.47468  204  -6.2  98    -6.4  0     0     994.7    NA       0.0000   9999     1050  0     0    
2019/06/29  03:58:00  BASE  3.21636  211  4.47468  204  -6.2  98    -6.4  0     0     994.7    NA       0.0000   9999     1050  0     0    
2019/06/29  03:59:00  BASE  3.4986   208  4.47468  204  -6.2  98    -6.4  0     0     994.7    NA       0.0000   9999     1050  0     0    
2019/06/29  04:00:00  BASE  3.31044  204  4.47468  204  -6.1  98    -6.4  0     0     994.7    NA       0.0000   9999     920   0     0    
2019/06/29  04:01:00  BASE  3.44568  209  4.72164  210  -6.1  98    -6.4  0     0     994.7    NA       0.0000   9999     950   0     0    
2019/06/29  04:02:00  BASE  3.79848  214  4.72164  210  -6.1  98    -6.3  0     0     994.7    NA       0.0000   9999     980   0     0    
2019/06/29  04:03:00  BASE  3.82788  219  4.72164  210  -6.1  99    -6.3  0     0     994.7    NA       0.0000   9999     950   0     0    
2019/06/29  04:04:00  BASE  3.62208  225  4.72164  210  -6.1  99    -6.2  0     0     994.7    NA       0.0000   9999     980   0     0    
2019/06/29  04:05:00  BASE  3.0576   228  4.72164  210  -6.1  99    -6.2  0     0     994.7    NA       0.0000   9999     950   0     0    
2019/06/29  04:06:01  BASE  2.96352  230  4.72164  210  -6.1  99    -6.2  0     0     M        NA       0.0000   9999     950   0     0    
2019/06/29  04:07:01  BASE  3.48096  226  5.292    225  -6.0  99    -6.2  0     0     994.7    NA       0.0000   9999     1020  0     0    
2019/06/29  04:08:01  BASE  4.33356  222  5.292    225  -6.1  99    -6.2  0     0     994.7    NA       0.0000   9999     980   0     0    
2019/06/29  04:09:01  BASE  4.11012  223  5.292    225  -6.1  99    -6.2  0     0     994.7    NA       0.0000   9999     920   0     0    
2019/06/29  04:10:01  BASE  3.675    222  5.292    225  -6.1  99    -6.2  0     0     994.7    NA       0.0000   9999     950   0     0    
2019/06/29  04:11:01  BASE  3.71616  220  5.292    225  -6.1  99    -6.1  0     0     994.7    NA       0.0000   9999     980   0     0    
2019/06/29  04:12:01  BASE  3.7338   211  5.292    225  -6.1  100   -6.1  0     0     994.7    NA       0.0000   9999     1050  0     0    
2019/06/29  04:13:01  BASE  4.09836  216  5.292    225  -6.0  100   -6.0  0     0     994.7    NA       0.0000   9999     1020  0     0    
2019/06/29  04:14:01  BASE  4.6158   220  5.292    225  -6.0  100   -6.0  0     0     994.7    NA       0.0000   9999     1020  0     0    
2019/06/29  04:15:01  BASE  4.21008  213  5.292    225  -6.0  100   -6.0  0     0     994.7    NA       0.0000   9999     950   0     0    
2019/06/29  04:16:01  BASE  3.5574   211  5.292    225  -6.0  100   -6.0  0     0     994.7    NA       0.0000   9999     950   0     0    
2019/06/29  04:17:01  BASE  3.53976  219  5.2038   215  -6.0  100   -6.0  0     0     994.7    NA       0.0000   9999     1020  0     0    
2019/06/29  04:18:01  BASE  3.50448  233  5.2038   215  -6.0  100   -6.0  0     0     994.7    NA       0.0000   9999     890   0     0    
2019/06/29  04:19:01  BASE  3.12228  240  5.2038   215  -6.1  100   -6.1  0     0     994.7    NA       0.0000   9999     980   0     0    
2019/06/29  04:20:01  BASE  3.36924  231  5.2038   215  -6.1  100   -6.1  0     0     994.7    NA       0.0000   9999     980   0     0    
2019/06/29  04:21:01  BASE  3.98664  223  5.2038   215  -6.1  100   -6.1  0     0     994.7    NA       0.0000   9999     950   0     0    
2019/06/29  04:22:01  BASE  3.528    221  5.2038   215  -6.1  100   -6.1  0     0     994.7    NA       0.0000   9999     980   0     0    
2019/06/29  04:23:01  BASE  3.22812  215  5.2038   215  -6.0  100   -6.0  0     0     994.7    NA       0.0000   9999     980   0     0    
2019/06/29  04:24:01  BASE  3.91608  212  5.1744   217  -6.0  100   -6.0  0     0     994.7    NA       0.0000   9999     1020  0     0    
2019/06/29  04:25:01  BASE  3.94548  210  5.1744   217  -6.0  100   -6.0  0     0     994.7    NA       0.0000   9999     920   0     0    
2019/06/29  04:26:01  BASE  3.09288  216  5.1744   217  -6.0  100   -6.0  0     0     994.7    NA       0.0000   9999     980   0     0    
2019/06/29  04:27:01  BASE  3.25752  221  5.1744   217  -6.0  100   -6.0  0     0     994.7    NA       0.0000   9999     950   0     0    
2019/06/29  04:28:01  BASE  4.4688   221  5.47428  223  -6.0  100   -6.0  0     0     994.7    NA       0.0000   9999     950   0     0    
2019/06/29  04:29:01  BASE  4.75104  221  5.47428  223  -6.0  100   -6.0  0     0     994.7    NA       0.0000   9999     920   0     0    
2019/06/29  04:30:01  BASE  4.36884  220  5.47428  223  -6.0  100   -6.0  0     0     994.8    NA       0.0000   9999     920   0     0    
2019/06/29  04:31:01  BASE  3.83964  216  5.47428  223  -6.0  100   -6.0  0     0     994.8    NA       0.0000   9999     950   0     0    
2019/06/29  04:32:01  BASE  3.65148  219  5.47428  223  -6.0  100   -6.0  0     0     994.8    NA       0.0000   9999     980   0     0    
2019/06/29  04:33:01  BASE  4.05132  225  5.47428  223  -6.0  100   -6.0  0     0     994.8    NA       0.0000   9999     950   0     0    
2019/06/29  04:34:01  BASE  4.1748   223  5.47428  223  -6.0  100   -6.0  0     0     994.8    NA       0.0000   9999     1020  0     0    
2019/06/29  04:35:01  BASE  3.95136  218  5.47428  223  -6.0  100   -6.0  0     0     994.9    NA       0.0000   9999     980   0     0    
2019/06/29  04:36:01  BASE  3.81024  217  5.47428  223  -6.0  100   -6.0  0     0     994.8    NA       0.0000   9999     980   0     0    
2019/06/29  04:37:01  BASE  3.969    217  5.47428  223  -6.0  100   -6.0  0     0     994.8    NA       0.0000   9999     950   0     0    
2019/06/29  04:38:01  BASE  4.41     220  6.3504   219  -6.0  100   -6.0  0     0     994.8    NA       0.0000   9999     950   0     0    
2019/06/29  04:39:01  BASE  5.10972  218  6.53268  220  -6.0  100   -6.0  0     0     994.8    NA       0.0000   9999     1020  0     0    
2019/06/29  04:40:01  BASE  5.6448   217  6.53268  220  -6.0  100   -6.0  0     0     994.8    NA       0.0000   9999     920   0     0    
2019/06/29  04:41:01  BASE  5.42136  221  6.53268  220  -6.0  100   -6.0  0     0     994.8    NA       0.0000   9999     1080  0     0    
2019/06/29  04:42:01  BASE  4.90392  226  6.53268  220  -6.0  100   -6.0  0     0     994.8    NA       0.0000   9999     1180  0     0    
2019/06/29  04:43:01  BASE  4.95096  231  6.53268  220  -6.0  100   -6.0  0     0     994.8    NA       0.0000   9999     1020  0     0    
2019/06/29  04:44:01  BASE  4.72164  230  6.53268  220  -6.0  100   -6.0  0     0     994.8    NA       0.0000   9999     1150  0     0    
2019/06/29  04:45:01  BASE  4.39236  231  6.53268  220  -6.0  100   -6.0  0     0     994.8    NA       0.0000   9999     1080  0     0    
2019/06/29  04:46:01  BASE  4.12188  226  6.53268  220  -6.0  100   -6.0  0     0     994.8    NA       0.0000   9999     950   0     0    
2019/06/29  04:47:01  BASE  3.4398   225  6.53268  220  -6.0  100   -6.0  0     0     994.8    NA       0.0000   9999     850   0     0    
2019/06/29  04:48:01  BASE  3.40452  235  6.53268  220  -6.0  100   -6.0  0     0     994.8    NA       0.0000   9999     820   0     0    
2019/06/29  04:49:01  BASE  3.81612  231  6.16812  222  -6.0  100   -6.0  0     0     994.8    NA       0.0000   9999     920   0     0    
2019/06/29  04:50:01  BASE  3.69264  219  5.65656  221  -6.1  100   -6.1  0     0     994.8    NA       0.0000   9999     850   0     0    
2019/06/29  04:51:01  BASE  3.65148  223  5.56836  224  -6.1  100   -6.1  0     0     994.8    NA       0.0000   9999     980   0     0    
2019/06/29  04:52:01  BASE  4.30416  236  5.80944  243  -6.1  100   -6.1  0     0     994.8    NA       0.0000   9999     1050  0     0    
2019/06/29  04:53:01  BASE  5.05092  241  5.80944  243  -6.1  100   -6.1  0     0     994.7    NA       0.0000   9999     1050  0     0    
2019/06/29  04:54:01  BASE  4.88628  242  5.80944  243  -6.1  100   -6.1  0     0     994.8    NA       0.0000   9999     980   0     0    
2019/06/29  04:55:01  BASE  4.263    240  5.80944  243  -6.1  100   -6.1  0     0     994.8    NA       0.0000   9999     950   0     0    
2019/06/29  04:56:01  BASE  3.75732  238  5.80944  243  -6.1  100   -6.1  0     0     994.8    NA       0.0000   9999     950   0     0    
2019/06/29  04:57:01  BASE  3.31632  232  5.80944  243  -6.1  100   -6.1  0     0     994.9    NA       0.0000   9999     980   0     0    
2019/06/29  04:58:01  BASE  3.9102   230  5.80944  243  -6.1  100   -6.1  0     0     994.8    NA       0.0000   9999     1020  0     0    
2019/06/29  04:59:01  BASE  4.34532  233  5.80944  243  -6.1  100   -6.1  0     0     994.8    NA       0.0000   9999     1050  0     0    
2019/06/29  05:00:01  BASE  4.06308  231  5.80944  243  -6.1  100   -6.1  0     0     994.8    NA       0.0000   9999     1050  0     0    
2019/06/29  05:01:00  BASE  3.89256  227  5.80944  243  -6.1  100   -6.1  0     0     994.8    NA       0.0000   9999     980   0     0    
2019/06/29  05:02:01  BASE  3.9102   221  5.68596  245  -6.1  100   -6.1  0     0     994.8    NA       0.0000   9999     980   0     0    
2019/06/29  05:03:01  BASE  3.65148  216  5.2038   234  -6.1  100   -6.1  0     0     994.9    NA       0.0000   9999     950   0     0    
2019/06/29  05:04:01  BASE  3.38688  215  5.2038   234  -6.1  100   -6.1  0     0     994.9    NA       0.0000   9999     980   0     0    
2019/06/29  05:05:01  BASE  4.24536  217  5.65656  212  -6.1  100   -6.1  0     0     994.9    NA       0.0000   9999     950   0     0    
2019/06/29  05:06:01  BASE  4.68636  208  5.65656  212  -6.0  100   -6.0  0     0     994.9    NA       0.0000   9999     920   0     0    
2019/06/29  05:07:00  BASE  4.73928  213  6.13872  219  -6.0  100   -6.0  0     0     994.9    NA       0.0000   9999     920   0     0    
2019/06/29  05:08:00  BASE  4.74516  234  6.13872  219  -6.0  100   -6.0  0     0     994.9    NA       0.0000   9999     1180  0     0    
2019/06/29  05:09:00  BASE  4.116    243  6.13872  219  -6.1  100   -6.1  0     0     994.9    NA       0.0000   9999     1210  0     0    
2019/06/29  05:10:01  BASE  3.99252  241  6.13872  219  -6.1  100   -6.1  0     0     994.9    NA       0.0000   9999     1150  0     0    
2019/06/29  05:11:00  BASE  4.31004  227  6.13872  219  -6.1  100   -6.1  0     0     994.9    NA       0.0000   9999     1020  0     0    
2019/06/29  05:12:00  BASE  4.85688  224  6.47388  224  -6.1  100   -6.1  0     0     994.9    NA       0.0000   9999     1020  0     0    
2019/06/29  05:13:01  BASE  4.58052  223  6.47388  224  -6.2  100   -6.2  0     0     994.9    NA       0.0000   9999     980   0     0    
2019/06/29  05:14:00  BASE  4.59816  216  6.47388  224  -6.2  100   -6.2  0     0     994.9    NA       0.0000   9999     1050  0     0    
2019/06/29  05:15:00  BASE  5.57424  216  6.47388  224  -6.2  100   -6.2  0     0     994.9    NA       0.0000   9999     980   0     0    
2019/06/29  05:16:00  BASE  5.63892  217  6.47388  224  -6.2  100   -6.2  0     0     994.9    NA       0.0000   9999     1050  0     0    
2019/06/29  05:17:00  BASE  5.20968  217  6.47388  224  -6.2  100   -6.2  0     0     994.9    NA       0.0000   9999     1080  0     0    
2019/06/29  05:18:01  BASE  5.00388  217  6.47388  224  -6.2  100   -6.2  0     0     994.9    NA       0.0000   9999     1120  0     0    
2019/06/29  05:19:00  BASE  4.94508  223  6.47388  224  -6.2  100   -6.2  0     0     994.9    NA       0.0000   9999     890   0     0    
2019/06/29  05:20:00  BASE  4.63932  230  6.47388  224  -6.2  100   -6.2  0     0     994.9    NA       0.0000   9999     1050  0     0    
2019/06/29  05:21:00  BASE  4.52172  228  6.47388  224  -6.2  100   -6.2  0     0     994.9    NA       0.0000   9999     980   0     0    
2019/06/29  05:22:00  BASE  5.145    220  6.41508  222  -6.2  100   -6.2  0     0     994.9    NA       0.0000   9999     1080  0     0    
2019/06/29  05:23:00  BASE  5.50368  217  6.41508  222  -6.3  100   -6.3  0     0     994.9    NA       0.0000   9999     1020  0     0    
2019/06/29  05:24:00  BASE  5.12148  218  6.41508  222  -6.3  100   -6.3  0     0     994.9    NA       0.0000   9999     1050  0     0    
2019/06/29  05:25:00  BASE  5.08032  218  6.321    214  -6.3  100   -6.3  0     0     994.9    NA       0.0000   9999     920   0     0    
2019/06/29  05:26:00  BASE  4.92744  223  6.321    214  -6.3  100   -6.3  0     0     995.0    NA       0.0000   9999     1020  0     0    
2019/06/29  05:27:00  BASE  3.89256  229  6.321    214  -6.3  100   -6.3  0     0     995.0    NA       0.0000   9999     920   0     0    
2019/06/29  05:28:00  BASE  3.10464  227  6.321    214  -6.3  100   -6.3  0     0     994.9    NA       0.0000   9999     850   0     0    
2019/06/29  05:29:00  BASE  3.53388  218  6.321    214  -6.3  100   -6.3  0     0     994.9    NA       0.0000   9999     980   0     0    
2019/06/29  05:30:00  BASE  4.25124  222  6.321    214  -6.2  100   -6.2  0     0     994.9    NA       0.0000   9999     950   0     0    
2019/06/29  05:31:00  BASE  3.7926   226  6.321    214  -6.2  100   -6.2  0     0     995.0    NA       0.0000   9999     920   0     0    
2019/06/29  05:32:00  BASE  3.49272  225  6.10932  219  -6.2  100   -6.2  0     0     995.0    NA       0.0000   9999     1020  0     0    
2019/06/29  05:33:00  BASE  4.18656  216  6.05052  219  -6.2  100   -6.2  0     0     995.0    NA       0.0000   9999     1120  0     0    
2019/06/29  05:34:00  BASE  5.02152  214  6.2622   221  -6.2  100   -6.2  0     0     994.9    NA       0.0000   9999     1180  0     0    
2019/06/29  05:35:00  BASE  5.80356  223  6.56208  223  -6.1  100   -6.1  0     0     994.9    NA       0.0000   9999     1150  0     0    
2019/06/29  05:36:00  BASE  5.4978   228  6.56208  223  -6.1  100   -6.1  0     0     994.9    NA       0.0000   9999     1150  0     0    
2019/06/29  05:37:00  BASE  4.42764  232  6.56208  223  -6.1  100   -6.1  0     0     995.0    NA       0.0000   9999     1310  0     0    
2019/06/29  05:38:00  BASE  3.71616  234  6.56208  223  -6.1  100   -6.1  0     0     995.0    NA       0.0000   9999     1280  0     0    
2019/06/29  05:39:00  BASE  3.5868   240  6.56208  223  -6.1  100   -6.1  0     0     995.0    NA       0.0000   9999     1250  0     0    
2019/06/29  05:40:00  BASE  3.62208  247  6.56208  223  -6.2  100   -6.2  0     0     995.1    NA       0.0000   9999     1120  0     0    
2019/06/29  05:41:00  BASE  3.53976  253  6.56208  223  -6.2  100   -6.2  0     0     995.1    NA       0.0000   9999     980   0     0    
2019/06/29  05:42:00  BASE  4.13952  240  6.56208  223  -6.2  100   -6.2  0     0     995.1    NA       0.0000   9999     980   0     0    
2019/06/29  05:43:00  BASE  4.62168  213  6.56208  223  -6.2  100   -6.2  0     0     995.1    NA       0.0000   9999     950   0     0    
2019/06/29  05:44:00  BASE  4.2336   207  6.56208  223  -6.2  100   -6.2  0     0     995.2    NA       0.0000   9999     920   0     0    
2019/06/29  05:45:00  BASE  3.6162   205  5.53308  234  -6.2  100   -6.2  0     0     995.2    NA       0.0000   9999     980   0     0    
2019/06/29  05:46:00  BASE  3.19872  198  5.35668  235  -6.2  100   -6.2  0     0     995.2    NA       0.0000   9999     850   0     0    
2019/06/29  05:47:00  BASE  2.85768  203  5.35668  235  -6.2  100   -6.2  0     0     995.2    NA       0.0000   9999     850   0     0    
2019/06/29  05:48:00  BASE  3.11052  207  5.35668  235  -6.2  100   -6.2  0     0     995.2    NA       0.0000   9999     920   0     0    
2019/06/29  05:49:00  BASE  4.16304  212  5.35668  235  -6.2  100   -6.2  0     0     995.2    NA       0.0000   9999     950   0     0    
2019/06/29  05:50:00  BASE  4.88628  219  5.47428  222  -6.2  100   -6.2  0     0     995.2    NA       0.0000   9999     980   0     0    
2019/06/29  05:51:00  BASE  4.41     219  5.47428  222  -6.1  100   -6.1  0     0     995.2    NA       0.0000   9999     890   0     0    
2019/06/29  05:52:00  BASE  3.84552  207  5.47428  222  -6.1  100   -6.1  0     0     995.2    NA       0.0000   9999     850   0     0    
2019/06/29  05:53:00  BASE  4.19832  199  5.47428  222  -6.2  100   -6.2  0     0     995.2    NA       0.0000   9999     950   0     0    
2019/06/29  05:54:00  BASE  4.78044  208  5.74476  216  -6.2  100   -6.2  0     0     995.1    NA       0.0000   9999     920   0     0    
2019/06/29  05:55:00  BASE  4.98624  219  5.74476  216  -6.2  100   -6.2  0     0     995.1    NA       0.0000   9999     890   0     0    
2019/06/29  05:56:00  BASE  4.7922   221  5.74476  216  -6.2  100   -6.2  0     0     995.1    NA       0.0000   9999     820   0     0    
2019/06/29  05:57:00  BASE  4.45116  215  5.74476  216  -6.2  100   -6.2  0     0     995.1    NA       0.0000   9999     820   0     0    
2019/06/29  05:58:00  BASE  4.33944  211  5.74476  216  -6.2  100   -6.2  0     0     995.1    NA       0.0000   9999     850   0     0    
2019/06/29  05:59:01  BASE  4.92156  220  6.321    215  -6.2  100   -6.2  0     0     995.1    NA       0.0000   9999     1020  0     0    
2019/06/29  06:00:00  BASE  5.292    232  6.321    215  -6.2  100   -6.2  0     0     995.0    NA       0.0000   9999     1050  0     0    
2019/06/29  06:01:00  BASE  4.84512  236  6.321    244  -6.2  100   -6.2  0     0     995.0    NA       0.0000   9999     1050  0     0    
2019/06/29  06:02:00  BASE  4.86864  240  6.321    244  -6.1  100   -6.1  0     0     995.0    NA       0.0000   9999     1280  0     0    
2019/06/29  06:03:00  BASE  5.00976  246  6.321    244  -6.1  100   -6.1  0     0     995.0    NA       0.0000   9999     1120  0     0    
2019/06/29  06:04:00  BASE  4.66284  249  6.321    244  -6.2  100   -6.2  0     0     995.1    NA       0.0000   9999     920   0     0    
2019/06/29  06:05:00  BASE  4.33944  248  6.321    244  -6.2  100   -6.2  0     0     995.0    NA       0.0000   9999     950   0     0    
2019/06/29  06:06:00  BASE  4.65108  228  6.321    244  -6.2  100   -6.2  0     0     995.1    NA       0.0000   9999     820   0     0    
2019/06/29  06:07:00  BASE  5.22144  216  6.321    244  -6.2  100   -6.2  0     0     995.1    NA       0.0000   9999     890   0     0    
2019/06/29  06:08:00  BASE  5.06268  218  6.321    244  -6.2  100   -6.2  0     0     995.1    NA       0.0000   9999     920   0     0    
2019/06/29  06:09:00  BASE  4.9392   218  6.321    244  -6.2  100   -6.2  0     0     995.1    NA       0.0000   9999     790   0     0    
2019/06/29  06:10:00  BASE  4.88628  226  6.321    244  -6.2  100   -6.2  0     0     995.1    NA       0.0000   9999     920   0     0    
2019/06/29  06:11:00  BASE  4.45704  237  6.2034   239  -6.2  100   -6.2  0     0     995.1    NA       0.0000   9999     1050  0     0    
2019/06/29  06:12:00  BASE  3.98664  235  5.99172  220  -6.2  100   -6.2  0     0     995.1    NA       0.0000   9999     950   0     0    
2019/06/29  06:13:00  BASE  3.28692  236  5.99172  220  -6.2  100   -6.2  0     0     995.1    NA       0.0000   9999     690   0     0    
2019/06/29  06:14:00  BASE  2.51076  238  5.99172  220  -6.2  100   -6.2  0     0     995.1    NA       0.0000   9999     890   0     0    
2019/06/29  06:15:00  BASE  2.95764  227  5.99172  220  -6.2  100   -6.2  0     0     995.1    NA       0.0000   9999     790   0     0    
2019/06/29  06:16:00  BASE  3.62208  223  5.99172  220  -6.2  100   -6.2  0     0     995.1    NA       0.0000   9999     690   0     0    
2019/06/29  06:17:00  BASE  4.49232  222  6.2034   217  -6.2  100   -6.2  0     0     995.1    NA       0.0000   9999     460   0     0    
2019/06/29  06:18:00  BASE  5.47428  219  6.2034   217  -6.2  100   -6.2  0     0     995.1    NA       0.0000   9999     430   0     0    
2019/06/29  06:19:00  BASE  4.99212  214  6.2034   217  -6.2  100   -6.2  0     0     995.2    NA       0.0000   9999     360   0     0    
2019/06/29  06:20:00  BASE  4.63344  215  6.2034   217  -6.2  100   -6.2  0     0     995.2    NA       0.0000   9999     820   0     0    
2019/06/29  06:21:00  BASE  4.69812  227  6.2034   217  -6.2  100   -6.2  0     0     995.2    NA       0.0000   9999     430   0     0    
2019/06/29  06:22:00  BASE  4.95096  225  6.2034   217  -6.1  100   -6.1  0     0     995.2    NA       0.0000   7000     430   0     0    
2019/06/29  06:23:00  BASE  5.03916  213  6.2034   217  -6.1  100   -6.1  0     0     995.2    NA       0.0000   9999     460   0     0    
2019/06/29  06:24:00  BASE  4.45116  212  6.2034   217  -6.1  100   -6.1  0     0     995.2    NA       0.0000   9999     660   1710  0    
2019/06/29  06:25:00  BASE  4.3806   220  6.2034   217  -6.2  100   -6.2  0     0     995.2    NA       0.0000   9999     1210  2130  0    
2019/06/29  06:26:00  BASE  4.79808  221  6.2034   217  -6.2  100   -6.2  0     0     995.2    NA       0.0000   9999     850   0     0    
2019/06/29  06:27:00  BASE  4.92744  212  6.16812  221  -6.2  100   -6.2  0     0     995.3    NA       0.0000   8000     360   0     0    
2019/06/29  06:28:00  BASE  5.04504  212  7.07952  222  -6.1  100   -6.1  0     0     995.2    NA       0.0000   8000     590   0     0    
2019/06/29  06:29:00  BASE  6.22104  215  7.56168  216  -6.1  100   -6.1  0     0     995.2    NA       0.0000   9999     790   0     0    
2019/06/29  06:30:00  BASE  6.86196  216  7.56168  216  -6.1  100   -6.1  0     0     995.2    NA       0.0000   9999     460   0     0    
2019/06/29  06:31:01  BASE  6.762    220  7.56168  216  -6.1  100   -6.1  0     0     995.2    NA       0.0000   9999     790   0     0    
2019/06/29  06:32:00  BASE  6.86784  221  7.56168  216  -6.1  100   -6.1  0     0     995.1    NA       0.0000   9999     560   0     0    
2019/06/29  06:33:00  BASE  6.85608  219  7.56168  216  -6.1  100   -6.1  0     0     995.2    NA       0.0000   9999     850   0     0    
2019/06/29  06:34:00  BASE  6.57972  216  7.56168  216  -6.2  100   -6.2  0     0     995.2    NA       0.0000   9999     1120  2260  0    
2019/06/29  06:35:00  BASE  5.68008  216  7.56168  216  -6.2  100   -6.2  0     0     995.3    NA       0.0000   9999     1280  0     0    
2019/06/29  06:36:00  BASE  4.89804  221  7.56168  216  -6.3  100   -6.3  0     0     995.3    NA       0.0000   9999     820   0     0    
2019/06/29  06:37:00  BASE  4.84512  223  7.56168  216  -6.3  100   -6.3  0     0     995.3    NA       0.0000   9999     660   0     0    
2019/06/29  06:38:00  BASE  4.99212  212  7.56168  216  -6.2  100   -6.2  0     0     995.3    NA       0.0000   9999     720   0     0    
2019/06/29  06:39:00  BASE  4.92156  199  7.53228  218  -6.2  100   -6.2  0     0     995.3    NA       0.0000   9999     720   0     0    
2019/06/29  06:40:00  BASE  4.53348  197  7.47348  222  -6.2  100   -6.2  0     0     995.3    NA       0.0000   9999     360   0     0    
2019/06/29  06:41:00  BASE  3.71028  213  7.47348  222  -6.3  100   -6.3  0     0     995.3    NA       0.0000   9999     330   0     0    
2019/06/29  06:42:00  BASE  3.1458   214  7.47348  222  -6.3  100   -6.3  0     0     995.3    NA       0.0000   9999     390   0     0    
2019/06/29  06:43:00  BASE  3.05172  202  6.68556  213  -6.3  100   -6.3  0     0     995.3    NA       0.0000   9999     660   0     0    
2019/06/29  06:44:00  BASE  3.6162   203  5.99172  226  -6.4  100   -6.4  0     0     995.3    NA       0.0000   9999     720   0     0    
2019/06/29  06:45:00  BASE  3.969    207  5.99172  226  -6.4  100   -6.4  0     0     995.3    NA       0.0000   9999     720   0     0    
2019/06/29  06:46:00  BASE  3.81612  212  5.56836  201  -6.4  100   -6.4  0     0     995.3    NA       0.0000   9999     620   0     0    
2019/06/29  06:47:00  BASE  4.03368  212  5.56836  201  -6.4  100   -6.4  0     0     995.3    NA       0.0000   9999     790   0     0    
2019/06/29  06:48:01  BASE  3.48096  201  5.35668  195  -6.4  100   -6.4  0     0     995.3    NA       0.0000   9999     1050  0     0    
2019/06/29  06:49:01  BASE  2.36964  204  4.86864  214  -6.4  100   -6.4  0     0     995.3    NA       0.0000   9999     1020  0     0    
2019/06/29  06:50:00  BASE  2.03448  207  4.86864  214  -6.4  100   -6.4  0     0     995.3    NA       0.0000   9999     980   0     0    
2019/06/29  06:51:00  BASE  2.74596  198  4.86864  214  -6.4  100   -6.4  0     0     995.3    NA       0.0000   9999     980   0     0    
2019/06/29  06:52:00  BASE  3.25752  194  4.86864  214  -6.4  100   -6.4  0     0     995.3    NA       0.0000   9999     1050  0     0    
2019/06/29  06:53:00  BASE  2.8812   190  4.86864  214  -6.4  100   -6.4  0     0     995.3    NA       0.0000   9999     1050  0     0    
2019/06/29  06:54:00  BASE  2.8224   189  4.86864  214  -6.4  100   -6.4  0     0     995.3    NA       0.0000   9999     1180  0     0    
2019/06/29  06:55:00  BASE  2.93412  194  4.86864  214  -6.4  100   -6.4  0     0     995.3    NA       0.0000   9999     1150  0     0    
2019/06/29  06:56:00  BASE  2.793    195  4.68636  213  -6.4  100   -6.4  0     0     995.3    NA       0.0000   9999     1050  0     0    
2019/06/29  06:57:00  BASE  2.59896  186  3.96312  196  -6.4  100   -6.4  0     0     995.3    NA       0.0000   9999     1080  0     0    
2019/06/29  06:58:00  BASE  3.13992  196  4.29828  219  -6.4  100   -6.4  0     0     995.3    NA       0.0000   9999     1250  0     0    
2019/06/29  06:59:00  BASE  4.21596  216  5.2038   217  -6.4  100   -6.4  0     0     995.3    NA       0.0000   9999     1380  0     0    
2019/06/29  07:00:00  BASE  4.88628  220  6.02112  220  -6.4  100   -6.4  0     0     995.3    NA       0.0000   9999     1570  0     0    
2019/06/29  07:01:00  BASE  5.33904  212  6.2034   201  -6.3  100   -6.3  0     0     995.3    NA       0.0000   9999     1180  0     0    
2019/06/29  07:02:00  BASE  5.47428  199  6.2034   201  -6.3  100   -6.3  0     0     995.3    NA       0.0000   9999     1350  1840  0    
2019/06/29  07:03:00  BASE  5.06268  193  6.2034   201  -6.3  100   -6.3  0     0     995.3    NA       0.0000   9999     1640  0     0    
2019/06/29  07:04:00  BASE  4.76868  192  6.2034   201  -6.3  100   -6.3  0     0     995.3    NA       0.0000   9999     1250  0     0    
2019/06/29  07:05:00  BASE  4.93332  199  6.2034   201  -6.3  100   -6.3  0     0     995.3    NA       0.0000   9999     1350  0     0    
2019/06/29  07:06:00  BASE  4.66284  203  6.2034   201  -6.3  100   -6.3  0     0     995.3    NA       0.0000   9999     1670  0     0    
2019/06/29  07:07:00  BASE  4.26888  208  6.2034   201  -6.3  100   -6.3  0     0     995.3    NA       0.0000   9999     1410  0     0    
2019/06/29  07:08:00  BASE  4.0278   216  6.2034   201  -6.2  100   -6.2  0     0     995.3    NA       0.0000   9999     1410  0     0    
2019/06/29  07:09:00  BASE  3.98664  214  6.2034   201  -6.2  100   -6.2  0     0     995.4    NA       0.0000   9999     1380  0     0    
2019/06/29  07:10:00  BASE  4.42764  212  6.2034   201  -6.1  100   -6.1  0     0     995.3    NA       0.0000   9999     1440  2000  0    
2019/06/29  07:11:00  BASE  4.79808  212  6.16812  198  -6.1  100   -6.1  0     0     995.3    NA       0.0000   9999     1510  0     0    
2019/06/29  07:12:00  BASE  5.15088  208  6.16812  198  -6.1  100   -6.1  0     0     995.3    NA       0.0000   9999     1480  0     0    
2019/06/29  07:13:00  BASE  5.26848  208  6.16812  198  -6.1  100   -6.1  0     0     995.3    NA       0.0000   9999     1540  0     0    
2019/06/29  07:14:00  BASE  4.87452  210  6.16812  198  -6.1  100   -6.1  0     0     995.3    NA       0.0000   9999     1510  0     0    
2019/06/29  07:15:00  BASE  4.98624  211  5.86824  198  -6.0  100   -6.0  0     0     995.3    NA       0.0000   9999     1610  0     0    
2019/06/29  07:16:00  BASE  5.16264  217  5.86824  198  -6.1  100   -6.1  0     0     995.3    NA       0.0000   9999     1670  0     0    
2019/06/29  07:17:00  BASE  4.75104  228  5.86824  198  -6.1  100   -6.1  0     0     995.3    NA       0.0000   9999     1670  0     0    
2019/06/29  07:18:00  BASE  4.46292  232  5.86824  198  -6.0  100   -6.0  0     0     995.3    NA       0.0000   9999     1740  0     0    
2019/06/29  07:19:00  BASE  4.31004  227  5.86824  198  -6.0  100   -6.0  0     0     995.4    NA       0.0000   9999     1410  0     0    
2019/06/29  07:20:00  BASE  4.03956  223  5.86824  198  -6.0  100   -6.1  0     0     995.4    NA       0.0000   9999     1510  0     0    
2019/06/29  07:21:00  BASE  3.7926   216  5.86824  198  -6.0  100   -6.1  0     0     995.4    NA       0.0000   9999     1440  0     0    
2019/06/29  07:22:00  BASE  3.58092  211  5.86824  198  -6.0  99    -6.1  0     0     995.4    NA       0.0000   9999     1480  0     0    
2019/06/29  07:23:00  BASE  3.12228  212  5.86824  198  -6.0  99    -6.2  0     0     995.4    NA       0.0000   9999     1440  0     0    
2019/06/29  07:24:00  BASE  2.95764  218  5.86824  198  -6.0  98    -6.2  0     0     995.4    NA       0.0000   9999     1510  0     0    
2019/06/29  07:25:00  BASE  3.78084  223  5.74476  216  -6.0  98    -6.2  0     0     995.4    NA       0.0000   9999     1570  0     0    
2019/06/29  07:26:00  BASE  4.18656  221  5.74476  216  -6.0  98    -6.3  0     0     995.4    NA       0.0000   9999     1610  0     0    
2019/06/29  07:27:00  BASE  4.3218   220  6.53268  229  -5.9  97    -6.3  0     0     995.4    NA       0.0000   9999     1640  0     0    
2019/06/29  07:28:00  BASE  5.25672  221  6.53268  229  -5.9  97    -6.3  0     0     995.4    NA       0.0000   9999     1640  0     0    
2019/06/29  07:29:00  BASE  5.50956  220  6.53268  229  -5.9  97    -6.3  0     0     995.4    NA       0.0000   9999     1510  0     0    
2019/06/29  07:30:00  BASE  5.28024  218  6.53268  229  -5.8  97    -6.3  0     0     995.4    NA       0.0000   9999     1410  0     0    
2019/06/29  07:31:00  BASE  5.22144  222  6.53268  229  -5.8  96    -6.3  0     0     995.4    NA       0.0000   9999     1350  0     0    
2019/06/29  07:32:00  BASE  5.1156   228  6.53268  229  -5.8  96    -6.3  0     0     995.3    NA       0.0000   9999     1440  0     0    
2019/06/29  07:33:00  BASE  5.2626   231  6.53268  229  -5.8  96    -6.4  0     0     995.3    NA       0.0000   9999     1480  0     0    
2019/06/29  07:34:00  BASE  5.45664  233  6.62676  236  -5.8  95    -6.4  0     0     995.3    NA       0.0000   9999     1480  0     0    
2019/06/29  07:35:00  BASE  5.57424  230  6.62676  236  -5.8  95    -6.4  0     0     995.3    NA       0.0000   9999     1440  0     0    
2019/06/29  07:36:00  BASE  5.81532  224  6.62676  236  -5.8  95    -6.5  0     0     995.3    NA       0.0000   9999     1540  0     0    
2019/06/29  07:37:00  BASE  5.70948  221  6.62676  236  -5.8  95    -6.5  0     0     995.3    NA       0.0000   9999     1540  0     0    
2019/06/29  07:38:00  BASE  5.24496  216  6.62676  236  -5.8  94    -6.6  0     0     995.4    NA       0.0000   9999     1410  0     0    
2019/06/29  07:39:00  BASE  4.72752  213  6.62676  236  -5.8  94    -6.6  0     0     995.4    NA       0.0000   9999     1480  0     0    
2019/06/29  07:40:00  BASE  4.25712  213  6.62676  236  -5.8  94    -6.7  0     0     995.4    NA       0.0000   9999     1280  0     0    
2019/06/29  07:41:00  BASE  3.969    216  6.62676  236  -5.9  94    -6.7  0     0     995.4    NA       0.0000   9999     1510  0     0    
2019/06/29  07:42:00  BASE  3.65736  220  6.62676  236  -5.9  94    -6.7  0     0     995.4    NA       0.0000   9999     1380  0     0    
2019/06/29  07:43:00  BASE  3.35748  222  6.62676  236  -5.9  94    -6.7  0     0     995.4    NA       0.0000   9999     1510  0     0    
2019/06/29  07:44:00  BASE  3.63972  216  6.41508  232  -5.9  94    -6.7  0     0     995.4    NA       0.0000   9999     1440  0     0    
2019/06/29  07:45:00  BASE  4.04544  208  6.13872  220  -5.8  94    -6.7  0     0     995.4    NA       0.0000   9999     1410  0     0    
2019/06/29  07:46:00  BASE  4.63932  214  5.86824  223  -5.8  94    -6.6  0     0     995.4    NA       0.0000   9999     1380  0     0    
2019/06/29  07:47:00  BASE  5.26848  219  6.02112  215  -5.8  94    -6.6  0     0     995.4    NA       0.0000   9999     1380  0     0    
2019/06/29  07:48:00  BASE  4.89804  213  6.02112  215  -5.8  94    -6.6  0     0     995.4    NA       0.0000   9999     1310  0     0    
2019/06/29  07:49:00  BASE  4.48644  206  6.02112  215  -5.8  94    -6.6  0     0     995.4    NA       0.0000   9999     1280  0     0    
2019/06/29  07:50:00  BASE  4.3218   212  6.02112  215  -5.8  94    -6.6  0     0     995.4    NA       0.0000   9999     1280  0     0    
2019/06/29  07:51:00  BASE  4.33356  220  6.02112  215  -5.9  94    -6.7  0     0     995.4    NA       0.0000   9999     1410  0     0    
2019/06/29  07:52:00  BASE  4.05132  227  6.02112  215  -5.9  94    -6.7  0     0     995.4    NA       0.0000   9999     1350  0     0    
2019/06/29  07:53:00  BASE  3.41628  236  6.02112  215  -5.9  94    -6.7  0     0     995.4    NA       0.0000   9999     1350  0     0    
2019/06/29  07:54:00  BASE  3.19872  241  6.02112  215  -5.9  94    -6.7  0     0     995.4    NA       0.0000   9999     1350  0     0    
2019/06/29  07:55:00  BASE  3.21048  242  6.02112  215  -5.9  94    -6.7  0     0     995.4    NA       0.0000   9999     1350  0     0    
2019/06/29  07:56:00  BASE  3.3222   231  6.02112  215  -5.9  94    -6.8  0     0     995.4    NA       0.0000   9999     1280  0     0    
2019/06/29  07:57:00  BASE  3.60444  223  5.35668  225  -5.9  94    -6.8  0     0     995.4    NA       0.0000   9999     1380  0     0    
2019/06/29  07:58:00  BASE  3.93372  219  5.35668  225  -5.9  94    -6.7  0     0     995.4    NA       0.0000   9999     1380  0     0    
2019/06/29  07:59:00  BASE  4.2336   215  5.35668  225  -5.9  94    -6.7  0     0     995.4    NA       0.0000   9999     1480  0     0    
2019/06/29  08:00:00  BASE  4.13364  211  5.35668  225  -5.9  94    -6.7  0     0     995.5    NA       0.0000   9999     1410  0     0    
2019/06/29  08:01:00  BASE  3.63972  211  4.80984  214  -5.9  95    -6.6  0     0     995.5    NA       0.0000   9999     1310  0     0    
2019/06/29  08:02:00  BASE  3.44568  214  4.80984  214  -5.9  95    -6.6  0     0     995.5    NA       0.0000   9999     1250  0     0    
2019/06/29  08:03:00  BASE  3.42804  224  4.80984  214  -5.9  95    -6.6  0     0     995.5    NA       0.0000   9999     1310  0     0    
2019/06/29  08:04:00  BASE  3.21048  242  4.80984  214  -5.9  95    -6.6  0     0     995.5    NA       0.0000   9999     1350  0     0    
2019/06/29  08:05:00  BASE  3.31632  241  4.80984  214  -5.9  95    -6.6  0     0     995.5    NA       0.0000   9999     1280  0     0    
2019/06/29  08:06:00  BASE  3.96312  227  4.80984  214  -5.9  95    -6.6  0     0     995.5    NA       0.0000   9999     1310  0     0    
2019/06/29  08:07:00  BASE  3.8808   216  4.80984  214  -5.9  95    -6.6  0     0     995.5    NA       0.0000   9999     1250  0     0    
2019/06/29  08:08:00  BASE  3.34572  214  4.80984  214  -5.9  95    -6.6  0     0     995.5    NA       0.0000   9999     1280  0     0    
2019/06/29  08:09:00  BASE  3.42804  234  4.65696  215  -5.9  95    -6.6  0     0     995.5    NA       0.0000   9999     1280  0     0    
2019/06/29  08:10:00  BASE  3.18696  249  4.65696  215  -5.9  95    -6.6  0     0     995.5    NA       0.0000   9999     1250  0     0    
2019/06/29  08:11:00  BASE  2.7342   249  4.65696  215  -6.0  95    -6.6  0     0     995.5    NA       0.0000   9999     1250  0     0    
2019/06/29  08:12:00  BASE  2.80476  242  4.65696  215  -6.0  95    -6.6  0     0     995.5    NA       0.0000   9999     1310  0     0    
2019/06/29  08:13:00  BASE  3.72792  226  4.93332  216  -6.0  95    -6.6  0     0     995.4    NA       0.0000   9999     1310  0     0    
2019/06/29  08:14:00  BASE  4.35708  221  4.93332  227  -6.0  96    -6.6  0     0     995.4    NA       0.0000   9999     1280  0     0    
2019/06/29  08:15:00  BASE  3.82788  221  4.93332  227  -6.0  96    -6.6  0     0     995.4    NA       0.0000   9999     1310  0     0    
2019/06/29  08:16:00  BASE  3.16932  220  4.93332  227  -6.0  96    -6.5  0     0     995.4    NA       0.0000   9999     1250  0     0    
2019/06/29  08:17:00  BASE  2.46372  220  4.93332  227  -6.0  96    -6.5  0     0     995.4    NA       0.0000   9999     1210  0     0    
2019/06/29  08:18:00  BASE  2.03448  222  4.93332  227  -6.0  96    -6.6  0     0     995.4    NA       0.0000   9999     1210  0     0    
2019/06/29  08:19:00  BASE  2.06388  226  4.93332  227  -6.0  96    -6.6  0     0     995.4    NA       0.0000   9999     1280  0     0    
2019/06/29  08:20:00  BASE  2.60484  219  4.93332  227  -6.0  95    -6.6  0     0     995.3    NA       0.0000   9999     1280  0     0    
2019/06/29  08:21:00  BASE  3.26928  214  4.93332  227  -6.0  95    -6.6  0     0     995.3    NA       0.0000   9999     1380  0     0    
2019/06/29  08:22:00  BASE  3.55152  224  4.93332  227  -6.0  95    -6.6  0     0     995.3    NA       0.0000   9999     1350  0     0    
2019/06/29  08:23:00  BASE  3.13404  226  4.93332  227  -5.9  95    -6.6  0     0     995.3    NA       0.0000   9999     1380  0     0    
2019/06/29  08:24:00  BASE  3.01644  215  4.1748   230  -5.9  95    -6.6  0     0     995.3    NA       0.0000   9999     1350  0     0    
2019/06/29  08:25:00  BASE  3.37512  212  4.1748   230  -5.9  95    -6.6  0     0     995.3    NA       0.0000   9999     1380  0     0    
2019/06/29  08:26:00  BASE  2.96352  222  4.1748   230  -5.9  95    -6.6  0     0     995.3    NA       0.0000   9999     1280  0     0    
2019/06/29  08:27:00  BASE  2.36964  226  4.1748   230  -6.0  95    -6.6  0     0     995.3    NA       0.0000   9999     1280  0     0    
2019/06/29  08:28:00  BASE  2.22264  223  4.1748   230  -6.0  95    -6.7  0     0     995.3    NA       0.0000   9999     1310  0     0    
2019/06/29  08:29:00  BASE  2.2932   221  4.1748   230  -6.0  95    -6.7  0     0     995.3    NA       0.0000   9999     1380  0     0    
2019/06/29  08:30:00  BASE  2.3814   224  4.1748   230  -6.0  95    -6.6  0     0     995.3    NA       0.0000   9999     1380  0     0    
2019/06/29  08:31:00  BASE  2.75772  220  4.1748   230  -5.9  95    -6.6  0     0     995.3    NA       0.0000   9999     1380  0     0    
2019/06/29  08:32:00  BASE  2.793    216  3.93372  205  -5.9  95    -6.6  0     0     995.3    NA       0.0000   9999     1350  0     0    
2019/06/29  08:33:00  BASE  2.25204  215  3.93372  205  -5.9  95    -6.6  0     0     995.4    NA       0.0000   9999     1310  0     0    
2019/06/29  08:34:00  BASE  2.45196  211  3.83964  205  -5.9  95    -6.6  0     0     995.4    NA       0.0000   9999     1310  0     0    
2019/06/29  08:35:00  BASE  3.09876  210  3.51036  209  -5.9  95    -6.6  0     0     995.4    NA       0.0000   9999     1280  0     0    
2019/06/29  08:36:00  BASE  2.87532  206  3.51036  209  -5.9  95    -6.6  0     0     995.4    NA       0.0000   9999     1280  0     0    
2019/06/29  08:37:00  BASE  2.38728  201  3.51036  209  -5.9  95    -6.6  0     0     995.4    NA       0.0000   9999     1250  1840  0    
2019/06/29  08:38:00  BASE  2.05212  191  3.51036  209  -5.9  95    -6.6  0     0     995.4    NA       0.0000   9999     1350  0     0    
2019/06/29  08:39:00  BASE  1.53468  182  3.51036  209  -5.9  95    -6.6  0     0     995.4    NA       0.0000   9999     1350  0     0    
2019/06/29  08:40:00  BASE  1.15836  196  3.51036  209  -6.0  95    -6.6  0     0     995.4    NA       0.0000   9999     1440  0     0    
2019/06/29  08:41:00  BASE  1.18188  225  3.51036  209  -6.0  95    -6.6  0     0     995.4    NA       0.0000   9999     1380  0     0    
2019/06/29  08:42:00  BASE  1.5876   234  3.51036  209  -6.0  95    -6.6  0     0     995.4    NA       0.0000   9999     1480  0     0    
2019/06/29  08:43:00  BASE  1.8228   241  3.51036  209  -5.9  96    -6.5  0     0     995.4    NA       0.0000   9999     0     0     0    
2019/06/29  08:44:00  BASE  1.15248  252  3.51036  209  -5.9  96    -6.5  0     0     995.4    NA       0.0000   9999     1670  2720  0    
2019/06/29  08:45:00  BASE  0.75852  259  2.96352  213  -5.9  96    -6.4  0     0     995.5    NA       0.0000   9999     1540  0     0    
2019/06/29  08:46:00  BASE  0.86436  266  2.54016  199  -5.9  96    -6.4  0     0     995.5    NA       0.0000   9999     1480  0     0    
2019/06/29  08:47:00  BASE  0.96432  264  2.48136  248  -5.9  96    -6.5  0     0     995.5    NA       0.0000   9999     1310  0     0    
2019/06/29  08:48:00  BASE  1.71696  248  2.81064  219  -5.9  96    -6.5  0     0     995.5    NA       0.0000   9999     1310  0     0    
2019/06/29  08:49:00  BASE  2.22852  222  2.81064  219  -5.9  95    -6.5  0     0     995.5    NA       0.0000   9999     1280  1840  0    
2019/06/29  08:50:00  BASE  1.90512  207  2.81064  219  -5.9  95    -6.5  0     0     995.5    NA       0.0000   9999     1310  1870  0    
2019/06/29  08:51:00  BASE  1.62288  209  2.81064  219  -5.9  95    -6.6  0     0     995.5    NA       0.0000   9999     1410  0     0    
2019/06/29  08:52:00  BASE  1.21716  211  2.81064  219  -5.9  95    -6.6  0     0     995.5    NA       0.0000   9999     1380  2260  0    
2019/06/29  08:53:00  BASE  0.87612  201  2.81064  219  -5.9  95    -6.6  0     0     995.5    NA       0.0000   9999     2030  0     0    
2019/06/29  08:54:00  BASE  0.9408   200  2.81064  219  -5.9  95    -6.6  0     0     995.5    NA       0.0000   9999     1410  0     0    
2019/06/29  08:55:00  BASE  1.18776  214  2.81064  219  -5.9  95    -6.5  0     0     995.5    NA       0.0000   9999     1610  0     0    
2019/06/29  08:56:00  BASE  2.08152  230  3.02232  231  -5.9  95    -6.5  0     0     995.5    NA       0.0000   9999     1410  0     0    
2019/06/29  08:57:00  BASE  2.66364  234  3.02232  231  -5.9  96    -6.5  0     0     995.4    NA       0.0000   9999     1540  0     0    
2019/06/29  08:58:00  BASE  2.47548  234  3.02232  231  -5.9  96    -6.4  0     0     995.4    NA       0.0000   9999     1510  2260  0    
2019/06/29  08:59:00  BASE  2.22264  241  3.02232  231  -5.8  96    -6.4  0     0     995.4    NA       0.0000   9999     1640  2230  0    
2019/06/29  09:00:00  BASE  2.058    246  3.02232  231  -5.8  96    -6.4  0     0     995.4    NA       0.0000   9999     1510  0     0    
2019/06/29  09:01:00  BASE  2.16384  251  3.02232  231  -5.8  95    -6.5  0     0     995.4    NA       0.0000   9999     1410  0     0    
2019/06/29  09:02:00  BASE  2.10504  252  3.02232  231  -5.8  95    -6.5  0     0     995.4    NA       0.0000   9999     1380  0     0    
2019/06/29  09:03:00  BASE  1.6464   257  3.02232  231  -5.8  95    -6.5  0     0     995.4    NA       0.0000   9999     1310  0     0    
2019/06/29  09:04:00  BASE  1.47     259  3.02232  231  -5.8  95    -6.5  0     0     995.4    NA       0.0000   9999     1310  0     0    
2019/06/29  09:05:00  BASE  1.323    245  3.02232  231  -5.8  95    -6.5  0     0     995.4    NA       0.0000   9999     1480  0     0    
2019/06/29  09:06:00  BASE  1.11132  235  2.96352  256  -5.8  95    -6.5  0     0     995.4    NA       0.0000   9999     1440  0     0    
2019/06/29  09:07:00  BASE  1.40532  224  2.96352  256  -5.8  95    -6.5  0     0     995.4    NA       0.0000   9999     1440  0     0    
2019/06/29  09:08:00  BASE  1.83456  212  2.96352  256  -5.8  95    -6.5  0     0     995.4    NA       0.0000   9999     1410  0     0    
2019/06/29  09:09:00  BASE  2.10504  226  3.53976  242  -5.8  95    -6.5  0     0     995.4    NA       0.0000   9999     1410  0     0    
2019/06/29  09:10:00  BASE  2.5872   242  3.62796  233  -5.8  95    -6.5  0     0     995.4    NA       0.0000   9999     1380  2130  0    
2019/06/29  09:11:00  BASE  3.0282   247  3.62796  233  -5.8  95    -6.5  0     0     995.4    NA       0.0000   9999     1480  0     0    
2019/06/29  09:12:00  BASE  3.19284  252  3.62796  256  -5.8  95    -6.5  0     0     995.4    NA       0.0000   9999     1480  0     0    
2019/06/29  09:13:00  BASE  2.9106   250  3.62796  256  -5.9  95    -6.5  0     0     995.4    NA       0.0000   9999     1540  0     0    
2019/06/29  09:14:00  BASE  2.4696   238  3.62796  256  -5.9  95    -6.5  0     0     995.4    NA       0.0000   9999     1940  0     0    
2019/06/29  09:15:00  BASE  2.48136  236  3.62796  256  -5.9  95    -6.6  0     0     995.4    NA       0.0000   9999     1540  2490  0    
2019/06/29  09:16:00  BASE  2.69892  241  3.62796  256  -5.9  95    -6.6  0     0     995.5    NA       0.0000   9999     1480  0     0    
2019/06/29  09:17:00  BASE  2.59308  240  3.62796  256  -5.9  95    -6.6  0     0     995.5    NA       0.0000   9999     0     0     0    
2019/06/29  09:18:00  BASE  2.31084  237  3.62796  256  -5.9  95    -6.6  0     0     995.5    NA       0.0000   9999     1870  0     0    
2019/06/29  09:19:00  BASE  2.64012  243  3.62796  256  -5.9  95    -6.6  0     0     995.5    NA       0.0000   9999     1840  0     0    
2019/06/29  09:20:00  BASE  3.38688  252  3.99252  254  -5.9  95    -6.6  0     0     995.5    NA       0.0000   9999     1540  0     0    
2019/06/29  09:21:00  BASE  3.77496  242  4.56876  218  -5.9  95    -6.5  0     0     995.5    NA       0.0000   9999     1480  0     0    
2019/06/29  09:22:00  BASE  4.0278   229  4.89804  221  -5.9  95    -6.5  0     0     995.5    NA       0.0000   9999     1670  0     0    
2019/06/29  09:23:00  BASE  3.73968  225  4.89804  221  -5.9  95    -6.6  0     0     995.5    NA       0.0000   9999     1670  0     0    
2019/06/29  09:24:00  BASE  3.25164  224  4.89804  221  -5.9  95    -6.6  0     0     995.6    NA       0.0000   9999     1670  0     0    
2019/06/29  09:25:00  BASE  3.234    228  4.89804  221  -5.9  94    -6.6  0     0     995.5    NA       0.0000   9999     1670  0     0    
2019/06/29  09:26:00  BASE  3.11052  234  4.89804  221  -5.9  94    -6.7  0     0     995.6    NA       0.0000   9999     1610  0     0    
2019/06/29  09:27:00  BASE  2.62836  236  4.89804  221  -5.9  94    -6.7  0     0     995.6    NA       0.0000   9999     1440  0     0    
2019/06/29  09:28:00  BASE  3.22812  230  4.89804  221  -5.9  94    -6.7  0     0     995.7    NA       0.0000   9999     1570  0     0    
2019/06/29  09:29:00  BASE  4.13364  219  4.89804  221  -5.9  94    -6.7  0     0     995.6    NA       0.0000   9999     1510  0     0    
2019/06/29  09:30:00  BASE  3.39276  203  4.89804  221  -5.9  94    -6.8  0     0     995.7    NA       0.0000   9999     1610  0     0    
2019/06/29  09:31:00  BASE  2.37552  197  4.89804  221  -5.9  93    -6.8  0     0     995.7    NA       0.0000   9999     1440  0     0    
2019/06/29  09:32:00  BASE  2.2638   208  4.75104  236  -5.9  93    -6.9  0     0     995.7    NA       0.0000   9999     1480  0     0    
2019/06/29  09:33:00  BASE  2.9694   213  4.75104  236  -5.9  93    -6.9  0     0     995.7    NA       0.0000   9999     1710  0     0    
2019/06/29  09:34:00  BASE  3.62208  218  4.75104  236  -5.9  93    -6.9  0     0     995.7    NA       0.0000   9999     1670  0     0    
2019/06/29  09:35:00  BASE  3.90432  221  4.75104  236  -5.9  93    -6.9  0     0     995.7    NA       0.0000   9999     1770  0     0    
2019/06/29  09:36:00  BASE  3.89256  217  4.75104  236  -5.9  93    -6.9  0     0     995.7    NA       0.0000   9999     1640  0     0    
2019/06/29  09:37:00  BASE  3.34572  210  4.75104  236  -5.9  93    -6.9  0     0     995.7    NA       0.0000   9999     1610  0     0    
2019/06/29  09:38:00  BASE  3.19284  210  4.68636  216  -6.0  92    -7.0  0     0     995.7    NA       0.0000   9999     1570  0     0    
2019/06/29  09:39:00  BASE  3.6162   224  4.53936  222  -6.0  92    -7.0  0     0     995.7    NA       0.0000   9999     1740  0     0    
2019/06/29  09:40:00  BASE  3.38688  239  4.53936  222  -6.0  92    -7.1  0     0     995.7    NA       0.0000   9999     1640  0     0    
2019/06/29  09:41:00  BASE  3.1164   245  4.53936  222  -6.0  92    -7.1  0     0     995.7    NA       0.0000   9999     1610  0     0    
2019/06/29  09:42:00  BASE  3.27516  239  4.53936  222  -6.0  92    -7.1  0     0     995.7    NA       0.0000   9999     1540  0     0    
2019/06/29  09:43:00  BASE  3.35748  227  4.53936  222  -6.0  92    -7.1  0     0     995.7    NA       0.0000   9999     1610  0     0    
2019/06/29  09:44:00  BASE  3.45156  219  4.53936  222  -6.0  92    -7.1  0     0     995.7    NA       0.0000   9999     1970  0     0    
2019/06/29  09:45:00  BASE  3.7926   211  4.47468  209  -6.0  92    -7.1  0     0     995.7    NA       0.0000   9999     1870  0     0    
2019/06/29  09:46:00  BASE  4.54524  213  5.53308  220  -6.0  92    -7.1  0     0     995.6    NA       0.0000   9999     1800  0     0    
2019/06/29  09:47:00  BASE  4.63344  218  5.53308  220  -6.0  92    -7.1  0     0     995.6    NA       0.0000   9999     1640  0     0    
2019/06/29  09:48:00  BASE  4.08072  210  5.53308  220  -6.0  92    -7.1  0     0     995.6    NA       0.0000   9999     1540  3670  0    
2019/06/29  09:49:00  BASE  3.9984   206  5.53308  220  -6.1  92    -7.2  0     0     995.5    NA       0.0000   9999     1800  3640  0    
2019/06/29  09:50:00  BASE  3.91608  214  5.53308  220  -6.1  92    -7.2  0     0     995.5    NA       0.0000   9999     2030  3610  0    
2019/06/29  09:51:00  BASE  3.675    231  5.53308  220  -6.1  91    -7.3  0     0     995.5    NA       0.0000   9999     1870  3580  0    
2019/06/29  09:52:00  BASE  3.21048  244  5.53308  220  -6.1  91    -7.3  0     0     995.5    NA       0.0000   9999     1770  3580  0    
2019/06/29  09:53:00  BASE  2.65776  246  5.53308  220  -6.1  90    -7.4  0     0     995.5    NA       0.0000   9999     3580  0     0    
2019/06/29  09:54:00  BASE  2.77536  237  5.53308  220  -6.1  90    -7.5  0     0     995.5    NA       0.0000   9999     1710  0     0    
2019/06/29  09:55:00  BASE  2.92824  238  5.53308  220  -6.1  90    -7.5  0     0     995.5    NA       0.0000   9999     1670  0     0    
2019/06/29  09:56:00  BASE  2.95176  244  4.65696  223  -6.1  90    -7.5  0     0     995.5    NA       0.0000   9999     1710  0     0    
2019/06/29  09:57:00  BASE  2.86944  238  4.53936  207  -6.1  89    -7.6  0     0     995.5    NA       0.0000   9999     1640  0     0    
2019/06/29  09:58:00  BASE  2.64012  227  4.53936  207  -6.1  89    -7.6  0     0     995.5    NA       0.0000   9999     1670  0     0    
2019/06/29  09:59:00  BASE  3.19872  215  4.29828  227  -6.1  89    -7.6  0     0     995.5    NA       0.0000   9999     1670  0     0    
2019/06/29  10:00:00  BASE  3.54564  213  4.1748   241  -6.1  89    -7.6  0     0     995.6    NA       0.0000   9999     1670  0     0    
2019/06/29  10:01:00  BASE  3.0576   213  3.96312  211  -6.1  89    -7.6  0     0     995.7    NA       0.0000   9999     1710  0     0    
2019/06/29  10:02:00  BASE  2.71656  212  3.96312  211  -6.1  89    -7.6  0     0     995.7    NA       0.0000   9999     1710  0     0    
2019/06/29  10:03:00  BASE  2.58132  215  3.96312  211  -6.0  89    -7.6  0     0     995.7    NA       0.0000   9999     1640  0     0    
2019/06/29  10:04:00  BASE  2.53428  216  3.96312  211  -6.0  89    -7.5  0     0     995.7    NA       0.0000   9999     1640  0     0    
2019/06/29  10:05:00  BASE  3.19872  224  4.35708  227  -6.0  89    -7.5  0     0     995.6    NA       0.0000   9999     1570  0     0    
2019/06/29  10:06:00  BASE  3.71028  226  4.35708  227  -6.0  89    -7.4  0     0     995.6    NA       0.0000   9999     1570  0     0    
2019/06/29  10:07:00  BASE  3.26928  218  4.35708  227  -6.0  89    -7.4  0     0     995.7    NA       0.0000   9999     1540  0     0    
2019/06/29  10:08:00  BASE  3.12228  221  4.35708  227  -6.0  90    -7.4  0     0     995.7    NA       0.0000   9999     1610  0     0    
2019/06/29  10:09:00  BASE  2.94     227  4.35708  227  -6.0  90    -7.4  0     0     995.7    NA       0.0000   9999     1540  0     0    
2019/06/29  10:10:00  BASE  2.34024  227  4.35708  227  -6.0  89    -7.5  0     0     995.7    NA       0.0000   9999     1570  0     0    
2019/06/29  10:11:00  BASE  2.61072  221  4.35708  227  -6.0  89    -7.5  0     0     995.6    NA       0.0000   9999     1570  3150  0    
2019/06/29  10:12:00  BASE  3.16344  213  4.35708  227  -6.0  89    -7.5  0     0     995.7    NA       0.0000   9999     1540  3150  0    
2019/06/29  10:13:00  BASE  2.88708  202  4.35708  227  -6.0  89    -7.6  0     0     995.6    NA       0.0000   9999     1670  3220  0    
2019/06/29  10:14:00  BASE  2.34612  192  4.35708  227  -6.0  89    -7.6  0     0     995.6    NA       0.0000   9999     1640  0     0    
2019/06/29  10:15:00  BASE  2.52252  205  4.116    221  -6.0  89    -7.6  0     0     995.6    NA       0.0000   9999     1570  3250  0    
2019/06/29  10:16:00  BASE  2.71068  222  3.69264  217  -6.0  89    -7.6  0     0     995.5    NA       0.0000   9999     1710  3020  0    
2019/06/29  10:17:00  BASE  2.34612  223  3.69264  217  -6.0  89    -7.5  0     0     995.5    NA       0.0000   9999     1610  0     0    
2019/06/29  10:18:00  BASE  2.10504  214  3.69264  217  -6.0  89    -7.5  0     0     995.5    NA       0.0000   9999     1510  2790  0    
2019/06/29  10:19:00  BASE  1.99332  209  3.69264  217  -6.0  89    -7.5  0     0     995.5    NA       0.0000   9999     2070  2950  0    
2019/06/29  10:20:00  BASE  2.54016  210  3.69264  217  -6.0  89    -7.5  0     0     995.5    NA       0.0000   9999     1570  2460  3050 
2019/06/29  10:21:00  BASE  3.27516  205  3.65736  202  -6.0  89    -7.5  0     0     995.6    NA       0.0000   9999     1670  2460  0    
2019/06/29  10:22:00  BASE  3.12228  201  3.65736  202  -6.0  89    -7.4  0     0     995.6    NA       0.0000   9999     1640  0     0    
2019/06/29  10:23:00  BASE  2.43432  203  3.65736  202  -6.0  90    -7.4  0     0     995.7    NA       0.0000   9999     1610  0     0    
2019/06/29  10:24:00  BASE  1.9698   202  3.65736  202  -5.9  90    -7.3  0     0     995.7    NA       0.0000   9999     1570  2100  0    
2019/06/29  10:25:00  BASE  2.38728  196  3.65736  202  -5.9  90    -7.3  0     0     995.6    NA       0.0000   9999     2030  0     0    
2019/06/29  10:26:00  BASE  2.97528  207  3.65736  202  -5.9  90    -7.3  0     0     995.6    NA       0.0000   9999     1970  0     0    
2019/06/29  10:27:00  BASE  2.65776  220  3.65736  202  -5.9  90    -7.3  0     0     995.6    NA       0.0000   9999     1940  0     0    
2019/06/29  10:28:00  BASE  1.98744  218  3.65736  202  -5.9  90    -7.3  0     0     995.6    NA       0.0000   9999     1940  0     0    
2019/06/29  10:29:00  BASE  1.6464   216  3.65736  202  -6.0  90    -7.3  0     0     995.7    NA       0.0000   9999     1940  0     0    
2019/06/29  10:30:00  BASE  1.4994   210  3.65736  202  -6.0  90    -7.3  0     0     995.7    NA       0.0000   9999     1770  0     0    
2019/06/29  10:31:00  BASE  1.44648  205  3.29868  215  -5.9  90    -7.3  0     0     995.7    NA       0.0000   9999     1940  0     0    
2019/06/29  10:32:00  BASE  1.43472  207  3.29868  215  -5.9  90    -7.3  0     0     995.7    NA       0.0000   9999     1900  0     0    
2019/06/29  10:33:00  BASE  1.19952  213  3.29868  215  -5.9  90    -7.3  0     0     995.7    NA       0.0000   9999     1840  0     0    
2019/06/29  10:34:00  BASE  0.9114   213  3.29868  215  -5.9  90    -7.3  0     0     995.7    NA       0.0000   9999     1800  0     0    
2019/06/29  10:35:00  BASE  0.97608  203  3.29868  215  -6.0  90    -7.3  0     0     995.7    NA       0.0000   9999     1740  0     0    
2019/06/29  10:36:00  BASE  1.15836  182  3.087    219  -6.0  90    -7.3  0     0     995.7    NA       0.0000   9999     1770  2660  0    
2019/06/29  10:37:00  BASE  1.28184  178  1.96392  222  -6.0  90    -7.4  0     0     995.7    NA       0.0000   9999     1800  0     0    
2019/06/29  10:38:00  BASE  1.37004  187  1.75224  173  -6.0  90    -7.4  0     0     995.7    NA       0.0000   9999     1740  2660  0    
2019/06/29  10:39:00  BASE  1.56408  193  2.54016  217  -6.0  90    -7.4  0     0     995.7    NA       0.0000   9999     1870  2660  0    
2019/06/29  10:40:00  BASE  1.88748  207  2.54016  217  -6.0  90    -7.4  0     0     995.7    NA       0.0000   9999     1740  0     0    
2019/06/29  10:41:00  BASE  1.94628  214  2.54016  217  -6.0  90    -7.3  0     0     995.7    NA       0.0000   9999     1640  0     0    
2019/06/29  10:42:00  BASE  1.69344  213  2.54016  217  -6.0  90    -7.3  0     0     995.6    NA       0.0000   9999     1670  0     0    
2019/06/29  10:43:00  BASE  1.2936   214  2.54016  217  -6.0  91    -7.3  0     0     995.6    NA       0.0000   9999     1670  0     0    
2019/06/29  10:44:00  BASE  1.2642   205  2.54016  217  -5.9  91    -7.2  0     0     995.5    NA       0.0000   9999     1640  0     0    
2019/06/29  10:45:00  BASE  1.25832  196  2.54016  217  -5.9  91    -7.2  0     0     995.5    NA       0.0000   9999     1540  0     0    
2019/06/29  10:46:00  BASE  1.07016  202  2.54016  217  -6.0  91    -7.2  0     0     995.5    NA       0.0000   9999     1540  0     0    
2019/06/29  10:47:00  BASE  0.99372  216  2.54016  217  -6.0  91    -7.2  0     0     995.5    NA       0.0000   9999     1540  0     0    
2019/06/29  10:48:00  BASE  0.86436  222  2.54016  217  -6.0  91    -7.2  0     0     995.5    NA       0.0000   9999     1510  0     0    
2019/06/29  10:49:00  BASE  0.47628  223  2.42256  217  -5.9  91    -7.2  0     0     995.5    NA       0.0000   9999     1380  0     0    
2019/06/29  10:50:00  BASE  0.33516  220  2.0874   214  -5.9  91    -7.2  0     0     995.5    NA       0.0000   9999     1510  0     0    
2019/06/29  10:51:00  BASE  0.48804  215  1.66404  221  -5.9  91    -7.1  0     0     995.5    NA       0.0000   9999     1480  0     0    
2019/06/29  10:52:00  BASE  0.75264  215  1.60524  196  -5.9  91    -7.1  0     0     995.5    NA       0.0000   9999     1410  0     0    
2019/06/29  10:53:00  BASE  1.22304  223  1.96392  240  -5.9  91    -7.1  0     0     995.5    NA       0.0000   9999     1350  0     0    
2019/06/29  10:54:00  BASE  1.64052  232  2.56956  243  -5.9  91    -7.1  0     0     995.5    NA       0.0000   9999     1380  0     0    
2019/06/29  10:55:00  BASE  1.8228   226  2.56956  243  -5.9  91    -7.1  0     0     995.5    NA       0.0000   9999     1440  0     0    
2019/06/29  10:56:00  BASE  1.63464  214  2.56956  243  -5.9  91    -7.1  0     0     995.5    NA       0.0000   9999     1510  0     0    
2019/06/29  10:57:00  BASE  1.58172  212  2.56956  243  -5.9  91    -7.1  0     0     995.5    NA       0.0000   9999     1440  0     0    
2019/06/29  10:58:00  BASE  1.87572  227  2.84592  236  -5.9  91    -7.1  0     0     995.5    NA       0.0000   9999     1440  0     0    
2019/06/29  10:59:00  BASE  1.81104  249  2.84592  236  -5.9  91    -7.1  0     0     995.5    NA       0.0000   9999     1350  0     0    
2019/06/29  11:00:00  BASE  1.36416  258  2.84592  236  -5.9  91    -7.1  0     0     995.5    NA       0.0000   9999     1380  0     0    
2019/06/29  11:01:00  BASE  1.3818   251  2.84592  236  -5.9  91    -7.1  0     0     995.5    NA       0.0000   9999     1180  0     0    
2019/06/29  11:02:00  BASE  1.4112   247  2.84592  236  -5.9  91    -7.1  0     0     995.5    NA       0.0000   9999     1180  0     0    
2019/06/29  11:03:00  BASE  1.22304  248  2.84592  236  -5.9  91    -7.1  0     0     995.5    NA       0.0000   9999     1080  0     0    
2019/06/29  11:04:00  BASE  1.47588  246  2.84592  236  -5.9  92    -7.0  0     0     995.5    NA       0.0000   9999     820   0     0    
2019/06/29  11:05:00  BASE  1.62876  242  2.84592  236  -5.9  92    -7.0  0     0     995.5    NA       0.0000   9999     920   0     0    
2019/06/29  11:06:00  BASE  1.75224  232  2.84592  236  -5.9  92    -7.0  0     0     995.5    NA       0.0000   9999     1050  0     0    
2019/06/29  11:07:00  BASE  1.86984  226  2.84592  236  -5.9  92    -7.0  0     0     995.5    NA       0.0000   9999     890   0     0    
2019/06/29  11:08:00  BASE  1.71108  234  2.1756   221  -5.9  92    -7.0  0     0     995.5    NA       0.0000   9999     980   0     0    
2019/06/29  11:09:00  BASE  1.69932  241  2.1756   221  -5.9  92    -7.0  0     0     995.4    NA       0.0000   9999     1180  0     0    
2019/06/29  11:10:00  BASE  1.51116  230  2.1756   221  -5.9  92    -7.0  0     0     995.5    NA       0.0000   9999     820   0     0    
2019/06/29  11:11:00  BASE  1.62288  220  2.45196  205  -5.9  92    -7.0  0     0     995.5    NA       0.0000   9999     1250  0     0    
2019/06/29  11:12:00  BASE  2.38728  213  3.087    203  -5.9  92    -6.9  0     0     995.5    NA       0.0000   9999     1120  0     0    
2019/06/29  11:13:00  BASE  2.52252  203  3.087    203  -5.9  92    -7.0  0     0     995.5    NA       0.0000   9999     790   0     0    
2019/06/29  11:14:00  BASE  1.89924  198  3.087    203  -5.9  92    -6.9  0     0     995.5    NA       0.0000   9999     460   0     0    
2019/06/29  11:15:00  BASE  1.38768  203  3.087    203  -5.9  92    -6.9  0     0     995.4    NA       0.0000   9999     520   0     0    
2019/06/29  11:16:00  BASE  1.2936   213  3.087    203  -5.9  93    -6.9  0     0     995.4    NA       0.0000   9999     620   0     0    
2019/06/29  11:17:00  BASE  1.42884  211  3.087    203  -5.9  93    -6.9  0     0     995.4    NA       0.0000   9999     1020  0     0    
2019/06/29  11:18:00  BASE  1.11132  211  3.087    203  -5.9  93    -6.8  0     0     995.4    NA       0.0000   9999     720   0     0    
2019/06/29  11:19:00  BASE  1.05252  209  3.087    203  -5.9  93    -6.8  0     0     995.4    NA       0.0000   9999     720   0     0    
2019/06/29  11:20:00  BASE  1.42884  196  3.087    203  -5.9  94    -6.8  0     0     995.4    NA       0.0000   9999     920   0     0    
2019/06/29  11:21:00  BASE  1.5582   181  3.087    203  -5.9  94    -6.7  0     0     995.4    NA       0.0000   9999     950   0     0    
2019/06/29  11:22:00  BASE  1.6464   180  2.51076  202  -5.9  94    -6.7  0     0     995.3    NA       0.0000   9999     750   0     0    
2019/06/29  11:23:00  BASE  1.92864  200  2.56956  205  -5.9  94    -6.7  0     0     995.3    NA       0.0000   9999     690   0     0    
2019/06/29  11:24:00  BASE  1.68756  232  2.56956  205  -5.9  95    -6.6  0     0     995.3    NA       0.0000   9999     980   0     0    
2019/06/29  11:25:00  BASE  1.07604  256  2.56956  205  -5.9  95    -6.6  0     0     995.3    NA       0.0000   9999     1020  0     0    
2019/06/29  11:26:00  BASE  1.0584   251  2.56956  205  -5.9  95    -6.6  0     0     995.3    NA       0.0000   9999     1050  0     0    
2019/06/29  11:27:00  BASE  1.34064  235  2.56956  205  -6.0  96    -6.5  0     0     995.3    NA       0.0000   9999     1050  0     0    
2019/06/29  11:28:00  BASE  1.33476  240  2.56956  205  -6.0  96    -6.5  0     0     995.3    NA       0.0000   9999     980   0     0    
2019/06/29  11:29:00  BASE  0.84672  245  2.56956  205  -6.0  96    -6.4  0     0     995.3    NA       0.0000   9999     1120  0     0    
2019/06/29  11:30:00  BASE  0.24696  242  2.56956  205  -6.0  97    -6.4  0     0     995.3    NA       0.0000   9999     1120  0     0    
2019/06/29  11:31:00  BASE  0        246  2.56956  205  -5.9  97    -6.4  0     0     995.3    NA       0.0000   9999     1120  0     0    
2019/06/29  11:32:00  BASE  0.15876  255  2.56956  205  -5.9  97    -6.3  0     0     995.3    NA       0.0000   9999     1150  0     0    
2019/06/29  11:33:00  BASE  0.54684  254  1.90512  231  -6.0  97    -6.3  0     0     995.3    NA       0.0000   9999     1150  0     0    
2019/06/29  11:34:00  BASE  0.7644   252  1.90512  231  -6.0  98    -6.3  0     0     995.3    NA       0.0000   9999     1180  0     0    
2019/06/29  11:35:00  BASE  0.57036  257  1.90512  231  -6.0  98    -6.3  0     0     995.3    NA       0.0000   9999     1150  0     0    
2019/06/29  11:36:00  BASE  0.24108  257  1.90512  231  -6.0  98    -6.3  0     0     995.3    NA       0.0000   9999     1120  0     0    
2019/06/29  11:37:00  BASE  0.05292  258  1.35828  247  -6.0  98    -6.2  0     0     995.3    NA       0.0000   9999     1120  0     0    
2019/06/29  11:38:00  BASE  0        268  1.1172   268  -6.0  98    -6.2  0     0     995.3    NA       0.0000   9999     1080  0     0    
2019/06/29  11:39:00  BASE  0.0294   271  0.84672  261  -6.0  99    -6.2  0     0     995.3    NA       0.0000   9999     1080  0     0    
2019/06/29  11:40:00  BASE  0.46452  257  0.9996   249  -6.0  99    -6.1  0     0     995.3    NA       0.0000   9999     1080  0     0    
2019/06/29  11:41:00  BASE  0.90552  252  1.0584   257  -6.0  99    -6.1  0     0     995.3    NA       0.0000   9999     1020  0     0    
2019/06/29  11:42:00  BASE  0.79968  259  1.0584   257  -6.0  99    -6.1  0     0     995.4    NA       0.0000   9999     1080  0     0    
2019/06/29  11:43:00  BASE  0.3822   265  1.0584   257  -6.0  99    -6.1  0     0     995.3    NA       0.0000   9999     1050  0     0    
2019/06/29  11:44:00  BASE  0.05292  270  1.0584   257  -6.0  99    -6.1  0     0     995.3    NA       0.0000   9999     1050  0     0    
2019/06/29  11:45:00  BASE  0        264  1.0584   257  -6.0  99    -6.1  0     0     995.4    NA       0.0000   9999     1080  0     0    
2019/06/29  11:46:00  BASE  0.16464  237  1.0584   257  -6.0  99    -6.1  0     0     995.3    NA       0.0000   9999     1050  0     0    
2019/06/29  11:47:00  BASE  0.4998   216  1.0584   257  -6.0  100   -6.0  0     0     995.3    NA       0.0000   9999     1050  0     0    
2019/06/29  11:48:00  BASE  0.74676  208  1.1172   192  -6.0  100   -6.0  0     0     995.3    NA       0.0000   9999     1120  0     0    
2019/06/29  11:49:00  BASE  0.87612  197  1.1172   192  -6.0  100   -6.0  0     0     995.3    NA       0.0000   9999     1180  0     0    
2019/06/29  11:50:00  BASE  0.81144  188  1.1172   192  -6.0  100   -6.0  0     0     995.3    NA       0.0000   9999     1150  0     0    
2019/06/29  11:51:00  BASE  0.94668  175  1.87572  177  -6.0  100   -6.0  0     0     995.3    NA       0.0000   9999     1120  0     0    
2019/06/29  11:52:00  BASE  0.89376  175  1.87572  177  -6.0  100   -6.0  0     0     995.3    NA       0.0000   9999     1250  0     0    
2019/06/29  11:53:00  BASE  0.37632  192  1.87572  177  -6.0  100   -6.0  0     0     995.3    NA       0.0000   9999     1280  1970  0    
2019/06/29  11:54:00  BASE  0.4998   223  1.87572  177  -5.9  100   -5.9  0     0     995.3    NA       0.0000   9999     1280  0     0    
2019/06/29  11:55:00  BASE  0.4704   261  1.87572  177  -5.9  100   -5.9  0     0     995.3    NA       0.0000   9999     1150  0     0    
2019/06/29  11:56:00  BASE  0.05292  267  1.87572  177  -5.9  100   -5.9  0     0     995.3    NA       0.0000   9999     1210  0     0    
2019/06/29  11:57:00  BASE  0.17052  241  1.87572  177  -5.9  100   -5.9  0     0     995.3    NA       0.0000   9999     1280  0     0    
2019/06/29  11:58:00  BASE  1.29948  220  3.2046   205  -5.9  100   -5.9  0     0     995.3    NA       0.0000   9999     1210  0     0    
2019/06/29  11:59:00  BASE  3.06936  203  4.78044  199  -5.9  100   -5.9  0     0     995.3    NA       0.0000   9999     1250  0     0    
2019/06/29  12:00:00  BASE  4.263    201  4.99212  209  -5.8  100   -5.8  0     0     995.4    NA       0.0000   9999     1210  0     0    
2019/06/29  12:01:00  BASE  4.31004  211  4.99212  209  -5.8  100   -5.8  0     0     995.4    NA       0.0000   9999     1310  0     0    
2019/06/29  12:02:00  BASE  3.6162   211  4.99212  209  -5.8  100   -5.8  0     0     995.3    NA       0.0000   9999     1250  0     0    
2019/06/29  12:03:00  BASE  2.86944  212  4.99212  209  -5.8  100   -5.8  0     0     995.3    NA       0.0000   9999     1280  0     0    
2019/06/29  12:04:00  BASE  2.58132  212  4.99212  209  -5.8  100   -5.8  0     0     995.3    NA       0.0000   9999     1250  0     0    
2019/06/29  12:05:00  BASE  3.06936  217  4.99212  209  -5.8  100   -5.8  0     0     995.3    NA       0.0000   9999     1280  0     0    
2019/06/29  12:06:00  BASE  3.16932  219  4.99212  209  -5.8  100   -5.8  0     0     995.3    NA       0.0000   9999     1210  1840  0    
2019/06/29  12:07:00  BASE  2.75772  214  4.99212  209  -5.8  100   -5.8  0     0     995.3    NA       0.0000   9999     1150  0     0    
2019/06/29  12:08:00  BASE  2.95764  208  4.99212  209  -5.7  100   -5.7  0     0     995.3    NA       0.0000   9999     1150  0     0    
2019/06/29  12:09:00  BASE  3.38688  209  4.99212  209  -5.7  100   -5.7  0     0     995.3    NA       0.0000   9999     1280  0     0    
2019/06/29  12:10:00  BASE  3.2634   215  4.38648  213  -5.7  100   -5.8  0     0     995.3    NA       0.0000   9999     1310  0     0    
2019/06/29  12:11:00  BASE  3.01644  224  4.08072  218  -5.7  99    -5.8  0     0     995.3    NA       0.0000   9999     1350  0     0    
2019/06/29  12:12:00  BASE  3.1752   225  4.08072  218  -5.7  99    -5.8  0     0     995.3    NA       0.0000   9999     1310  0     0    
2019/06/29  12:13:00  BASE  3.40452  231  4.08072  218  -5.7  99    -5.8  0     0     995.3    NA       0.0000   9999     1150  0     0    
2019/06/29  12:14:00  BASE  3.01644  239  4.08072  218  -5.7  99    -5.8  0     0     995.3    NA       0.0000   9999     1080  0     0    
2019/06/29  12:15:00  BASE  2.3814   236  4.08072  218  -5.7  99    -5.8  0     0     995.3    NA       0.0000   9999     1120  0     0    
2019/06/29  12:16:00  BASE  2.2932   231  4.08072  218  -5.7  99    -5.8  0     0     995.3    NA       0.0000   9999     1120  0     0    
2019/06/29  12:17:00  BASE  2.1462   232  4.08072  218  -5.7  99    -5.8  0     0     995.3    NA       0.0000   9999     1180  0     0    
2019/06/29  12:18:00  BASE  1.82868  241  4.08072  218  -5.7  99    -5.8  0     0     995.3    NA       0.0000   9999     1020  0     0    
2019/06/29  12:19:00  BASE  1.74636  239  3.99252  225  -5.7  99    -5.8  0     0     995.3    NA       0.0000   9999     920   0     0    
2019/06/29  12:20:00  BASE  1.89336  236  3.93372  227  -5.7  99    -5.8  0     0     995.3    NA       0.0000   9999     790   0     0    
2019/06/29  12:21:00  BASE  2.11092  227  3.93372  227  -5.7  99    -5.8  0     0     995.3    NA       0.0000   9999     850   0     0    
2019/06/29  12:22:00  BASE  1.96392  212  3.81024  233  -5.7  99    -5.8  0     0     995.3    NA       0.0000   9999     1120  0     0    
2019/06/29  12:23:00  BASE  1.85808  216  2.90472  241  -5.7  99    -5.8  0     0     995.3    NA       0.0000   9999     750   0     0    
2019/06/29  12:24:00  BASE  2.25204  214  2.99292  218  -5.6  99    -5.8  0     0     995.3    NA       0.0000   9999     460   0     0    
2019/06/29  12:25:00  BASE  2.5284   207  2.99292  218  -5.6  99    -5.8  0     0     995.3    NA       0.0000   -SN      9999  430   0    
2019/06/29  12:26:00  BASE  2.1462   209  2.99292  218  -5.6  99    -5.8  0     0     995.3    NA       0.0000   -SN      9000  1210  1870 
2019/06/29  12:27:00  BASE  1.66404  206  2.99292  218  -5.7  99    -5.8  0     0     995.3    NA       0.0000   -SN      9999  1180  1900 
2019/06/29  12:28:00  BASE  1.8816   196  2.99292  218  -5.7  99    -5.8  0     0     995.3    NA       0.0000   -SN      9999  1380  0    
2019/06/29  12:29:00  BASE  2.49312  194  2.99292  218  -5.7  99    -5.9  0     0     995.3    NA       0.0000   -SN      9999  1150  0    
2019/06/29  12:30:00  BASE  2.499    204  2.99292  218  -5.7  99    -5.9  0     0     995.3    NA       0.0000   -SN      9999  1150  0    
2019/06/29  12:31:00  BASE  2.25204  209  2.99292  218  -5.7  99    -5.9  0     0     995.3    NA       0.0000   -SN      9999  1180  0    
2019/06/29  12:32:00  BASE  2.27556  206  2.99292  218  -5.7  99    -5.9  0     0     995.3    NA       0.0000   -SN      9999  1020  0    
2019/06/29  12:33:00  BASE  2.39904  197  2.99292  218  -5.7  99    -5.8  0     0     995.3    NA       0.0000   -SN      9999  1120  0    
2019/06/29  12:34:00  BASE  2.18148  188  2.93412  199  -5.7  99    -5.8  0     0     995.3    NA       0.0000   -SN      9999  1120  0    
2019/06/29  12:35:00  BASE  1.83456  187  2.93412  199  -5.7  99    -5.8  0     0     995.3    NA       0.0000   -SN      9999  1050  0    
2019/06/29  12:36:00  BASE  1.89336  191  2.93412  199  -5.7  99    -5.8  0     0     995.3    NA       0.0000   9999     1120  0     0    
2019/06/29  12:37:00  BASE  1.911    199  2.93412  199  -5.7  99    -5.9  0     0     995.3    NA       0.0000   9999     1080  1670  0    
2019/06/29  12:38:00  BASE  1.87572  210  2.93412  199  -5.8  99    -5.9  0     0     995.3    NA       0.0000   9999     1280  0     0    
2019/06/29  12:39:00  BASE  2.15208  217  2.69304  188  -5.8  99    -5.9  0     0     995.3    NA       0.0000   9999     1380  2100  0    
2019/06/29  12:40:00  BASE  2.3226   221  2.69304  188  -5.7  99    -5.9  0     0     995.3    NA       0.0000   9999     1310  0     0    
2019/06/29  12:41:00  BASE  2.81652  222  3.96312  219  -5.7  99    -5.8  0     0     995.3    NA       0.0000   9999     1180  0     0    
2019/06/29  12:42:00  BASE  3.48684  217  3.96312  219  -5.7  99    -5.8  0     0     995.3    NA       0.0000   9999     850   0     0    
2019/06/29  12:43:00  BASE  3.56916  216  4.41588  225  -5.7  99    -5.8  0     0     995.3    NA       0.0000   9999     720   0     0    
2019/06/29  12:44:00  BASE  3.72792  218  4.41588  225  -5.6  99    -5.8  0     0     995.3    NA       0.0000   9999     430   0     0    
2019/06/29  12:45:00  BASE  3.74556  222  4.41588  225  -5.6  99    -5.8  0     0     995.3    NA       0.0000   9999     300   0     0    
2019/06/29  12:46:00  BASE  3.4104   225  4.41588  225  -5.6  99    -5.8  0     0     995.3    NA       0.0000   -SN      8000  260   0    
2019/06/29  12:47:00  BASE  3.15756  227  4.41588  225  -5.7  99    -5.8  0     0     995.3    NA       0.0000   -SN      9000  230   0    
2019/06/29  12:48:00  BASE  2.77536  231  4.41588  225  -5.7  99    -5.9  0     0     995.3    NA       0.0000   -SN      8000  260   1250 
2019/06/29  12:49:00  BASE  2.34024  230  4.41588  225  -5.7  98    -5.9  0     0     995.3    NA       0.0000   -SN      5000  330   1250 
2019/06/29  12:50:00  BASE  2.27556  222  4.41588  225  -5.7  98    -5.9  0     0     995.3    NA       0.0000   -SN      BR    5000  360  
2019/06/29  12:51:00  BASE  3.21048  212  4.53936  207  -5.7  98    -5.9  0     0     995.3    NA       0.0000   -SN      BR    7000  690  
2019/06/29  12:52:00  BASE  4.2042   219  4.93332  225  -5.7  98    -5.9  0     0     995.3    NA       0.0000   -SN      BR    7000  330  
2019/06/29  12:53:00  BASE  4.15716  230  4.93332  225  -5.6  98    -5.9  0     0     995.3    NA       0.0000   -SN      BR    7000  360  
2019/06/29  12:54:00  BASE  4.09248  236  4.93332  225  -5.6  98    -5.9  0     0     995.3    NA       0.0000   -SN      BR    6000  300  
2019/06/29  12:55:00  BASE  4.13952  236  4.93332  225  -5.6  98    -5.8  0     0     995.3    NA       0.0000   -SN      BR    4100  0    
2019/06/29  12:56:00  BASE  3.86904  235  4.93332  225  -5.7  99    -5.8  0     0     995.3    NA       0.0000   -SN      BR    3100  0    
2019/06/29  12:57:00  BASE  4.25124  232  5.56836  227  -5.7  99    -5.9  0     0     995.3    NA       0.0000   -SN      BR    3500  0    
2019/06/29  12:58:00  BASE  4.74516  230  5.56836  227  -5.7  99    -5.9  0     0     995.3    NA       0.0000   -SN      BR    2700  0    
2019/06/29  12:59:00  BASE  4.45116  226  5.56836  227  -5.7  99    -5.9  0     0     995.3    NA       0.0000   -SN      BR    2100  0    
2019/06/29  13:00:00  BASE  4.06308  223  5.56836  227  -5.8  99    -5.9  0     0     995.3    NA       0.0000   -SN      BR    1900  0    
2019/06/29  13:01:00  BASE  4.2336   228  5.56836  227  -5.8  99    -5.8  0     0     995.3    NA       0.0000   -SN      BR    1900  0    
2019/06/29  13:02:00  BASE  4.62756  231  5.56836  227  -5.8  100   -5.8  0     0     995.3    NA       0.0000   -SN      BR    2200  0    
2019/06/29  13:03:00  BASE  4.91568  228  5.83884  227  -5.8  100   -5.8  0     0     995.3    NA       0.0000   -SN      BR    2100  0    
2019/06/29  13:04:00  BASE  5.45664  227  6.71496  231  -5.8  100   -5.8  0     0     995.3    NA       0.0000   -SN      BR    2100  0    
2019/06/29  13:05:00  BASE  5.8506   230  6.71496  231  -5.8  100   -5.8  0     0     995.3    NA       0.0000   -SN      BR    2400  0    
2019/06/29  13:06:00  BASE  5.7624   231  6.71496  231  -5.8  100   -5.8  0     0     995.3    NA       0.0000   -SN      BR    2900  0    
2019/06/29  13:07:00  BASE  5.63892  231  6.71496  231  -5.8  100   -5.8  0     0     995.3    NA       0.0000   -SN      BR    2900  0    
2019/06/29  13:08:00  BASE  5.5566   234  6.71496  231  -5.8  100   -5.8  0     0     995.3    NA       0.0000   -SN      BR    2800  0    
2019/06/29  13:09:00  BASE  5.25672  235  6.71496  231  -5.8  100   -5.8  0     0     995.3    NA       0.0000   -SN      BR    3300  0    
2019/06/29  13:10:00  BASE  5.16264  243  6.71496  231  -5.8  100   -5.8  0     0     995.3    NA       0.0000   -SN      BR    3700  0    
2019/06/29  13:11:00  BASE  5.71536  255  6.74436  264  -5.8  100   -5.8  0     0     995.3    NA       0.0000   -SN      BR    5000  0    
2019/06/29  13:12:00  BASE  5.26848  257  6.74436  264  -5.8  100   -5.8  0     0     995.3    NA       0.0000   -SN      BR    4700  0    
2019/06/29  13:13:00  BASE  4.31592  259  6.74436  264  -5.9  100   -5.9  0     0     995.3    NA       0.0000   -SN      BR    4600  230  
2019/06/29  13:14:00  BASE  4.851    251  6.74436  264  -5.9  100   -5.9  0     0     995.3    NA       0.0000   -SN      BR    5000  260  
2019/06/29  13:15:00  BASE  6.69732  229  8.80236  227  -5.8  100   -5.8  0     0     995.3    NA       0.0000   -SN      BR    7000  300  
2019/06/29  13:16:00  BASE  8.4378   219  9.70788  219  -5.8  100   -5.8  0     0     995.3    NA       0.0000   -SN      BR    8000  0    
2019/06/29  13:17:00  BASE  8.38488  221  9.70788  219  -5.8  100   -5.8  0     0     995.3    NA       0.0000   -SN      BR    7000  0    
2019/06/29  13:18:00  BASE  8.24376  226  9.70788  219  -5.8  100   -5.8  0     0     995.3    NA       0.0000   -SN      BR    6000  260  
2019/06/29  13:19:00  BASE  8.13204  232  9.70788  219  -5.8  100   -5.8  0     0     995.3    NA       0.0000   -SN      BR    5000  0    
2019/06/29  13:20:00  BASE  7.1148   237  9.70788  219  -5.9  100   -5.9  0     0     995.3    NA       0.0000   -SN      BR    5000  0    
2019/06/29  13:21:00  BASE  6.25044  243  9.70788  219  -5.9  100   -5.9  0     0     995.3    NA       0.0000   -SN      BR    6000  0    
2019/06/29  13:22:00  BASE  5.26848  243  9.70788  219  -5.9  100   -5.9  0     0     995.3    NA       0.0000   -SN      BR    7000  0    
2019/06/29  13:23:00  BASE  4.116    238  9.70788  219  -6.0  100   -6.0  0     0     995.3    NA       0.0000   -SN      BR    7000  0    
2019/06/29  13:24:00  BASE  4.13952  220  9.70788  219  -6.1  100   -6.1  0     0     995.3    NA       0.0000   -SN      BR    6000  300  
2019/06/29  13:25:00  BASE  4.6452   209  9.70788  219  -6.2  100   -6.2  0     0     995.3    NA       0.0000   -SN      BR    3700  0    
2019/06/29  13:26:00  BASE  4.55112  212  9.408    229  -6.2  100   -6.2  0     0     995.3    NA       0.0000   -SN      BR    3300  0    
2019/06/29  13:27:00  BASE  4.55112  216  9.408    229  -6.2  100   -6.2  0     0     995.3    NA       0.0000   -SN      BR    3700  0    
2019/06/29  13:28:00  BASE  4.66872  222  8.56128  231  -6.1  100   -6.1  0     0     995.3    NA       0.0000   -SN      BR    3200  0    
2019/06/29  13:29:00  BASE  4.48056  228  7.13832  255  -6.1  100   -6.1  0     0     995.3    NA       0.0000   -SN      BR    3700  0    
2019/06/29  13:30:00  BASE  4.4982   231  7.05012  247  -6.0  100   -6.0  0     0     995.3    NA       0.0000   -SN      BR    4800  0    
2019/06/29  13:31:00  BASE  5.00976  233  5.92704  231  -6.0  100   -6.0  0     0     995.3    NA       0.0000   -SN      BR    5000  0    
2019/06/29  13:32:00  BASE  5.3802   238  6.321    237  -6.0  100   -6.0  0     0     995.3    NA       0.0000   -SN      BR    3400  0    
2019/06/29  13:33:00  BASE  5.3802   245  6.321    237  -6.0  100   -6.0  0     0     995.3    NA       0.0000   -SN      BR    3400  0    
2019/06/29  13:34:00  BASE  5.54484  256  7.02072  256  -6.0  100   -6.0  0     0     995.3    NA       0.0000   -SN      BR    5000  0    
2019/06/29  13:35:00  BASE  6.43272  259  10.4958  246  -5.9  100   -5.9  0     0     995.2    NA       0.0000   -SN      BR    7000  260  
2019/06/29  13:36:00  BASE  7.8204   237  10.4958  246  -5.9  100   -5.9  0     0     995.2    NA       0.0000   -SN      BR    6000  0    
2019/06/29  13:37:00  BASE  8.00268  220  10.4958  246  -5.9  100   -5.9  0     0     995.3    NA       0.0000   -SN      BR    4700  0    
2019/06/29  13:38:00  BASE  7.67928  228  10.4958  246  -5.9  100   -5.9  0     0     995.2    NA       0.0000   -SN      BR    4800  0    
2019/06/29  13:39:00  BASE  8.29668  238  10.4958  246  -5.9  100   -5.9  0     0     995.2    NA       0.0000   -SN      BR    5000  0    
2019/06/29  13:40:00  BASE  8.59068  239  10.4958  246  -5.9  100   -5.9  0     0     995.2    NA       0.0000   -SN      BR    6000  0    
2019/06/29  13:41:00  BASE  8.673    239  10.4958  246  -6.0  100   -6.0  0     0     995.2    NA       0.0000   -SN      BR    6000  0    
2019/06/29  13:42:00  BASE  8.6436   240  10.4958  246  -6.0  100   -6.0  0     0     995.2    NA       0.0000   -SN      BR    8000  0    
2019/06/29  13:43:00  BASE  7.7616   240  10.4958  246  -6.1  100   -6.1  0     0     995.3    NA       0.0000   -SN      BR    7000  0    
2019/06/29  13:44:00  BASE  7.47348  244  10.4958  246  -6.1  100   -6.1  0     0     995.3    NA       0.0000   -SN      BR    6000  0    
2019/06/29  13:45:00  BASE  8.1732   248  10.1018  250  -6.1  100   -6.1  1     0     995.2    NA       0.0000   -SN      BR    8000  230  
2019/06/29  13:46:00  BASE  9.36684  250  11.1896  251  -6.1  100   -6.1  1     0     995.1    NA       0.0000   -SN      BR    9999  300  
2019/06/29  13:47:00  BASE  9.71376  249  11.1896  251  -6.1  100   -6.1  1     0     995.1    NA       0.0000   -SN      BR    9999  300  
2019/06/29  13:48:00  BASE  9.45504  248  11.1896  251  -6.1  100   -6.1  1     0     995.1    NA       0.0000   -SN      BR    9000  0    
2019/06/29  13:49:00  BASE  9.50796  248  11.4013  243  -6.1  100   -6.1  1     0     995.1    NA       0.0000   -SN      BR    8000  0    
2019/06/29  13:50:00  BASE  9.47268  248  11.4013  243  -6.1  100   -6.1  1     0     995.1    NA       0.0000   -SN      BR    9999  0    
2019/06/29  13:51:00  BASE  9.6726   249  11.4013  243  -6.1  100   -6.1  1     0     995.1    NA       0.0000   -SN      BR    7000  0    
2019/06/29  13:52:00  BASE  8.39664  241  11.4013  243  -6.1  100   -6.1  1     0     995.3    NA       0.0000   -SN      BR    6000  0    
2019/06/29  13:53:00  BASE  7.87332  232  11.4013  243  -6.0  100   -6.0  1     0     995.2    NA       0.0000   -SN      BR    9000  260  
2019/06/29  13:54:00  BASE  9.13164  229  11.4013  243  -6.0  100   -6.0  1     0     995.2    NA       0.0000   -SN      BR    6000  300  
2019/06/29  13:55:00  BASE  9.36096  228  11.4013  243  -6.0  100   -6.0  1     0     995.2    NA       0.0000   -SN      BR    3700  0    
2019/06/29  13:56:00  BASE  8.62008  234  11.4013  243  -6.0  100   -6.0  1     0     995.2    NA       0.0000   -SN      BR    5000  0    
2019/06/29  13:57:00  BASE  8.1732   235  11.4013  243  -6.0  100   -6.0  1     0     995.3    NA       0.0000   -SN      BR    6000  230  
2019/06/29  13:58:00  BASE  7.59108  233  11.4013  243  -6.0  100   -6.0  1     0     995.3    NA       0.0000   -SN      BR    4000  0    
2019/06/29  13:59:00  BASE  7.7616   240  10.6487  249  -6.0  100   -6.0  1     0     995.3    NA       0.0000   -SN      BR    4500  0    
2019/06/29  14:00:00  BASE  8.66124  243  10.6487  249  -6.1  100   -6.1  1     0     995.2    NA       0.0000   -SN      BR    9000  0    
2019/06/29  14:01:00  BASE  9.36096  230  10.7663  214  -6.1  100   -6.1  1     0     995.3    NA       0.0000   -SN      BR    9999  330  
2019/06/29  14:02:00  BASE  9.53736  222  10.7663  214  -6.0  100   -6.0  1     0     995.3    NA       0.0000   -SN      BR    7000  260  
2019/06/29  14:03:00  BASE  8.68476  226  10.7663  214  -6.0  100   -6.0  1     0     995.3    NA       0.0000   -SN      BR    4400  0    
2019/06/29  14:04:00  BASE  7.51464  231  10.7663  214  -6.0  100   -6.0  1     0     995.4    NA       0.0000   -SN      BR    4100  0    
2019/06/29  14:05:00  BASE  6.7914   233  10.7663  214  -6.0  100   -6.0  1     0     995.4    NA       0.0000   -SN      BR    4500  0    
2019/06/29  14:06:00  BASE  7.31472  225  10.7663  214  -6.0  100   -6.0  1     0     995.4    NA       0.0000   -SN      BR    3800  0    
2019/06/29  14:07:00  BASE  7.791    222  10.7663  214  -6.0  100   -6.0  1     0     995.4    NA       0.0000   -SN      BR    2900  0    
2019/06/29  14:08:00  BASE  8.09088  224  10.7663  214  -6.1  100   -6.1  1     0     995.4    NA       0.0000   -SN      BR    3200  0    
2019/06/29  14:09:00  BASE  8.1438   223  10.7663  214  -6.1  100   -6.1  1     0     995.4    NA       0.0000   -SN      BR    2500  0    
2019/06/29  14:10:00  BASE  7.73808  221  10.7663  214  -6.1  100   -6.1  1     0     995.4    NA       0.0000   -SN      BR    2300  0    
2019/06/29  14:11:00  BASE  7.62636  221  10.3135  224  -6.1  100   -6.1  1     0     995.5    NA       0.0000   -SN      BR    2300  0    
2019/06/29  14:12:00  BASE  8.83764  220  10.6487  221  -6.1  100   -6.1  1     0     995.4    NA       0.0000   -SN      BR    3900  260  
2019/06/29  14:13:00  BASE  9.94308  220  10.6487  221  -6.1  100   -6.1  1     0     995.4    NA       0.0000   -SN      BR    9999  360  
2019/06/29  14:14:00  BASE  9.66672  220  10.6487  221  -6.1  100   -6.1  1     0     995.4    NA       0.0000   -SN      BR    5000  0    
2019/06/29  14:15:00  BASE  9.42564  222  10.6487  221  -6.1  100   -6.1  1     0     995.4    NA       0.0000   -SN      BR    4200  300  
2019/06/29  14:16:00  BASE  9.50208  225  10.9192  229  -6.1  100   -6.1  1     0     995.5    NA       0.0000   -SN      BR    9999  390  
2019/06/29  14:17:00  BASE  9.26688  229  10.9192  229  -6.2  100   -6.2  1     0     995.5    NA       0.0000   -SN      BR    9999  620  
2019/06/29  14:18:00  BASE  9.41976  229  11.2837  228  -6.2  100   -6.2  1     0     995.5    NA       0.0000   -SN      BR    9999  820  
2019/06/29  14:19:00  BASE  9.71964  230  11.2837  228  -6.2  100   -6.2  1     0     995.2    NA       0.0000   -SN      BR    9999  820  
2019/06/29  14:20:00  BASE  9.90192  230  11.3131  228  -6.2  100   -6.2  1     0     995.4    NA       0.0000   -SN      BR    9999  850  
2019/06/29  14:21:00  BASE  9.849    227  11.3131  228  -6.3  100   -6.3  1     0     995.5    NA       0.0000   -SN      BR    9999  950  
2019/06/29  14:22:00  BASE  8.65536  228  11.3131  228  -6.3  100   -6.3  2     0     995.5    NA       0.0000   -SN      BR    9999  1020 
2019/06/29  14:23:00  BASE  7.24416  233  11.3131  228  -6.3  100   -6.3  2     0     995.6    NA       0.0000   -SN      9999  920   0    
2019/06/29  14:24:00  BASE  7.203    234  11.3131  228  -6.3  100   -6.3  2     0     995.5    NA       0.0000   -SN      9999  1120  0    
2019/06/29  14:25:01  BASE  8.62008  229  11.3131  228  -6.3  100   -6.3  2     0     995.4    NA       0.0000   -SN      9999  1050  0    
2019/06/29  14:26:00  BASE  9.59028  225  11.3131  228  -6.3  100   -6.3  2     0     995.5    NA       0.0000   9999     1120  0     0    
2019/06/29  14:27:00  BASE  9.38448  223  11.3131  228  -6.3  100   -6.3  2     0     995.6    NA       0.0000   9999     1050  0     0    
2019/06/29  14:28:00  BASE  8.57304  227  11.3131  228  -6.4  100   -6.4  2     0     995.6    NA       0.0000   9999     1150  0     0    
2019/06/29  14:29:00  BASE  7.4676   233  11.3131  228  -6.4  100   -6.4  2     0     995.6    NA       0.0000   9999     1250  0     0    
2019/06/29  14:30:00  BASE  7.4088   233  10.7075  223  -6.4  100   -6.4  2     0     995.6    NA       0.0000   9999     1440  0     0    
2019/06/29  14:31:00  BASE  7.57932  234  10.7075  223  -6.5  100   -6.5  3     0     995.7    NA       0.0000   9999     1440  0     0    
2019/06/29  14:32:00  BASE  7.66752  232  10.7075  223  -6.5  100   -6.5  3     0     995.6    NA       0.0000   9999     1310  0     0    
2019/06/29  14:33:00  BASE  8.57892  221  10.7075  223  -6.5  100   -6.5  3     0     995.6    NA       0.0000   9999     1210  0     0    
2019/06/29  14:34:00  BASE  8.88468  215  10.7075  223  -6.4  100   -6.4  3     0     995.6    NA       0.0000   9999     1310  0     0    
2019/06/29  14:35:00  BASE  9.35508  215  11.0426  218  -6.4  100   -6.4  3     0     995.6    NA       0.0000   9999     1380  0     0    
2019/06/29  14:36:00  BASE  9.10224  212  11.0426  218  -6.4  100   -6.4  3     0     995.7    NA       0.0000   9999     1350  0     0    
2019/06/29  14:37:00  BASE  8.48484  209  11.0426  218  -6.4  100   -6.4  3     0     995.7    NA       0.0000   9999     1540  0     0    
2019/06/29  14:38:00  BASE  7.9086   206  11.0426  218  -6.5  100   -6.5  3     0     995.8    NA       0.0000   9999     1570  0     0    
2019/06/29  14:39:00  BASE  6.77964  208  11.0426  218  -6.6  100   -6.6  3     0     995.8    NA       0.0000   9999     1840  0     0    
2019/06/29  14:40:00  BASE  6.75612  215  11.0426  218  -6.6  100   -6.6  3     0     995.8    NA       0.0000   9999     1150  0     0    
2019/06/29  14:41:00  BASE  7.57344  220  11.0426  218  -6.6  100   -6.6  4     0     995.7    NA       0.0000   9999     1740  0     0    
2019/06/29  14:42:00  BASE  7.60872  224  11.0426  218  -6.6  100   -6.6  4     0     995.7    NA       0.0000   9999     1870  0     0    
2019/06/29  14:43:00  BASE  6.42096  226  11.0426  218  -6.6  100   -6.6  4     0     995.8    NA       0.0000   9999     1350  0     0    
2019/06/29  14:44:00  BASE  5.48016  233  11.0426  218  -6.6  100   -6.6  5     0     995.7    NA       0.0000   9999     1610  0     0    
2019/06/29  14:45:00  BASE  5.65068  241  9.31392  211  -6.6  100   -6.6  6     0     995.7    NA       0.0000   9999     1570  0     0    
2019/06/29  14:46:00  BASE  5.3802   238  9.10224  204  -6.7  100   -6.7  6     0     995.8    NA       0.0000   9999     1710  0     0    
2019/06/29  14:47:00  BASE  5.89176  232  9.25512  225  -6.7  100   -6.7  7     0     995.6    NA       0.0000   9999     1710  0     0    
2019/06/29  14:48:00  BASE  7.51464  227  9.25512  225  -6.6  100   -6.6  7     0     995.6    NA       0.0000   9999     1710  2260  0    
2019/06/29  14:49:00  BASE  7.57344  224  9.25512  225  -6.6  100   -6.7  8     0     995.7    NA       0.0000   9999     1710  0     0    
2019/06/29  14:50:00  BASE  6.81492  224  9.25512  225  -6.6  100   -6.7  7     0     995.7    NA       0.0000   9999     1770  0     0    
2019/06/29  14:51:00  BASE  6.36216  222  9.25512  225  -6.6  99    -6.7  7     0     995.8    NA       0.0000   9999     1740  0     0    
2019/06/29  14:52:00  BASE  6.65616  225  9.25512  225  -6.6  99    -6.8  8     0     995.7    NA       0.0000   9999     1770  0     0    
2019/06/29  14:53:00  BASE  6.56208  232  9.25512  225  -6.6  98    -6.8  8     0     995.8    NA       0.0000   9999     1610  0     0    
2019/06/29  14:54:00  BASE  5.90352  233  9.25512  225  -6.6  98    -6.9  7     0     995.8    NA       0.0000   9999     1940  0     0    
2019/06/29  14:55:00  BASE  6.06228  228  9.25512  225  -6.6  97    -7.0  7     0     995.8    NA       0.0000   9999     1640  0     0    
2019/06/29  14:56:00  BASE  6.69732  230  9.25512  225  -6.6  97    -7.0  7     0     995.8    NA       0.0000   9999     1870  0     0    
2019/06/29  14:57:00  BASE  6.65616  231  8.64948  225  -6.6  96    -7.1  7     0     995.8    NA       0.0000   9999     1710  0     0    
2019/06/29  14:58:00  BASE  6.468    227  7.80276  231  -6.6  96    -7.2  8     0     995.8    NA       0.0000   9999     1670  0     0    
2019/06/29  14:59:00  BASE  6.10932  223  7.80276  231  -6.6  96    -7.2  8     0     995.9    NA       0.0000   9999     1740  0     0    
2019/06/29  15:00:00  BASE  5.32728  222  7.80276  231  -6.7  95    -7.3  8     0     995.9    NA       0.0000   9999     1710  0     0    
2019/06/29  15:01:00  BASE  5.59188  231  7.80276  231  -6.7  95    -7.4  8     0     995.8    NA       0.0000   9999     1670  0     0    
2019/06/29  15:02:00  BASE  6.22104  243  7.80276  231  -6.7  94    -7.4  8     0     995.8    NA       0.0000   9999     1940  0     0    
2019/06/29  15:03:00  BASE  6.06228  244  7.80276  231  -6.7  94    -7.5  8     0     995.9    NA       0.0000   9999     1150  2170  0    
2019/06/29  15:04:00  BASE  4.93332  244  7.80276  231  -6.7  94    -7.6  8     0     995.9    NA       0.0000   9999     1510  0     0    
2019/06/29  15:05:00  BASE  4.69224  251  7.71456  231  -6.7  93    -7.6  8     0     995.9    NA       0.0000   9999     1740  0     0    
2019/06/29  15:06:00  BASE  5.48016  256  7.59108  227  -6.7  93    -7.7  8     0     995.9    NA       0.0000   9999     1800  0     0    
2019/06/29  15:07:00  BASE  6.0564   254  7.59108  227  -6.7  93    -7.7  8     0     995.8    NA       0.0000   9999     1710  0     0    
2019/06/29  15:08:00  BASE  5.86236  246  7.47348  248  -6.7  92    -7.7  8     0     995.8    NA       0.0000   9999     1800  0     0    
2019/06/29  15:09:00  BASE  5.48604  236  7.47348  248  -6.7  92    -7.7  8     0     995.8    NA       0.0000   9999     1840  0     0    
2019/06/29  15:10:00  BASE  6.27396  238  7.53228  246  -6.6  92    -7.7  9     0     995.8    NA       0.0000   9999     1710  2260  0    
2019/06/29  15:11:00  BASE  6.71496  241  7.53228  246  -6.6  92    -7.7  9     0     995.8    NA       0.0000   9999     1770  0     0    
2019/06/29  15:12:00  BASE  6.42096  242  7.53228  246  -6.6  92    -7.8  9     0     995.8    NA       0.0000   9999     1770  0     0    
2019/06/29  15:13:00  BASE  5.94468  246  7.53228  246  -6.6  91    -7.8  9     0     995.8    NA       0.0000   9999     1840  0     0    
2019/06/29  15:14:00  BASE  5.91528  247  7.53228  246  -6.7  91    -7.9  10    0     995.8    NA       0.0000   9999     1640  0     0    
2019/06/29  15:15:00  BASE  5.7624   241  7.53228  246  -6.7  91    -8.0  10    0     995.9    NA       0.0000   9999     1900  8270  0    
2019/06/29  15:16:00  BASE  5.15088  240  7.53228  246  -6.8  90    -8.1  10    0     995.9    NA       0.0000   9999     1900  0     0    
2019/06/29  15:17:00  BASE  4.89216  245  7.53228  246  -6.8  90    -8.1  10    0     995.9    NA       0.0000   9999     1770  2400  8330 
2019/06/29  15:18:00  BASE  4.80396  246  7.53228  246  -6.8  90    -8.2  10    0     995.9    NA       0.0000   9999     1770  0     0    
2019/06/29  15:19:00  BASE  4.84512  243  7.53228  246  -6.7  90    -8.2  10    0     995.9    NA       0.0000   9999     1610  0     0    
2019/06/29  15:20:00  BASE  4.58052  239  7.3794   240  -6.7  89    -8.2  9     0     995.9    NA       0.0000   9999     1870  0     0    
2019/06/29  15:21:00  BASE  5.31552  233  7.13832  244  -6.7  89    -8.2  9     0     995.8    NA       0.0000   9999     1740  0     0    
2019/06/29  15:22:00  BASE  5.98584  232  7.05012  243  -6.6  89    -8.1  9     0     995.8    NA       0.0000   9999     1770  0     0    
2019/06/29  15:23:00  BASE  5.31552  234  7.05012  243  -6.6  89    -8.1  8     0     995.9    NA       0.0000   9999     1900  0     0    
2019/06/29  15:24:00  BASE  5.19792  241  6.89724  231  -6.6  89    -8.1  8     0     995.8    NA       0.0000   9999     1610  0     0    
2019/06/29  15:25:00  BASE  5.13324  244  6.89724  231  -6.6  89    -8.1  8     0     995.8    NA       0.0000   9999     1640  0     0    
2019/06/29  15:26:00  BASE  4.86864  235  6.89724  231  -6.6  89    -8.1  8     0     995.9    NA       0.0000   9999     1640  0     0    
2019/06/29  15:27:00  BASE  5.1744   236  6.89724  231  -6.6  89    -8.0  8     0     995.8    NA       0.0000   9999     1670  0     0    
2019/06/29  15:28:00  BASE  5.1744   242  6.89724  231  -6.6  90    -8.0  8     0     995.9    NA       0.0000   9999     1670  0     0    
2019/06/29  15:29:00  BASE  5.06268  239  6.89724  231  -6.6  90    -8.0  8     0     995.9    NA       0.0000   9999     1510  0     0    
2019/06/29  15:30:00  BASE  5.81532  234  6.89724  231  -6.6  90    -8.0  8     0     995.8    NA       0.0000   9999     1670  0     0    
2019/06/29  15:31:00  BASE  6.56796  230  7.4088   236  -6.6  90    -7.9  8     0     995.9    NA       0.0000   9999     1800  0     0    
2019/06/29  15:32:00  BASE  6.59148  229  7.4088   236  -6.6  90    -7.9  8     0     995.9    NA       0.0000   9999     1610  0     0    
2019/06/29  15:33:00  BASE  6.33864  234  7.4088   236  -6.6  91    -7.9  8     0     995.9    NA       0.0000   9999     1840  0     0    
2019/06/29  15:34:00  BASE  5.68008  232  7.4088   236  -6.6  91    -7.8  7     0     996.0    NA       0.0000   9999     1310  2000  0    
2019/06/29  15:35:00  BASE  4.78632  234  7.4088   236  -6.6  91    -7.8  7     0     996.0    NA       0.0000   9999     1410  0     0    
2019/06/29  15:36:00  BASE  4.48644  238  7.4088   236  -6.7  91    -7.9  7     0     996.0    NA       0.0000   9999     1410  0     0    
2019/06/29  15:37:00  BASE  5.08032  233  7.4088   236  -6.7  91    -7.9  6     0     995.9    NA       0.0000   9999     1540  0     0    
2019/06/29  15:38:00  BASE  5.59188  225  7.4088   236  -6.7  91    -7.9  6     0     996.0    NA       0.0000   9999     1380  0     0    
2019/06/29  15:39:00  BASE  5.1156   224  7.4088   236  -6.7  91    -7.9  6     0     996.0    NA       0.0000   9999     1570  0     0    
2019/06/29  15:40:00  BASE  4.68636  226  7.4088   236  -6.7  91    -7.9  6     0     996.0    NA       0.0000   9999     1570  0     0    
2019/06/29  15:41:00  BASE  5.10972  228  6.86784  236  -6.7  91    -7.9  6     0     995.9    NA       0.0000   9999     1510  0     0    
2019/06/29  15:42:00  BASE  5.41548  234  6.65616  229  -6.7  91    -7.9  6     0     995.9    NA       0.0000   9999     1540  0     0    
2019/06/29  15:43:00  BASE  5.25084  237  6.65616  229  -6.7  91    -7.9  6     0     996.0    NA       0.0000   9999     1640  0     0    
2019/06/29  15:44:00  BASE  5.49192  239  6.65616  229  -6.7  92    -7.9  7     0     996.0    NA       0.0000   9999     1570  0     0    
2019/06/29  15:45:00  BASE  5.28612  240  6.65616  229  -6.7  92    -7.9  7     0     996.0    NA       0.0000   9999     1540  0     0    
2019/06/29  15:46:00  BASE  5.439    233  6.98544  227  -6.8  92    -7.9  6     0     996.0    NA       0.0000   9999     1610  0     0    
2019/06/29  15:47:00  BASE  5.25084  231  6.98544  227  -6.8  92    -7.9  7     0     996.0    NA       0.0000   9999     1440  0     0    
2019/06/29  15:48:00  BASE  4.78044  225  6.98544  227  -6.8  92    -7.9  7     0     996.0    NA       0.0000   9999     1410  0     0    
2019/06/29  15:49:00  BASE  5.2038   216  6.98544  227  -6.8  91    -8.0  7     0     996.0    NA       0.0000   9999     1610  0     0    
2019/06/29  15:50:00  BASE  5.1744   218  6.98544  227  -6.8  91    -7.9  7     0     996.0    NA       0.0000   9999     1570  0     0    
2019/06/29  15:51:00  BASE  5.56836  217  6.98544  227  -6.8  91    -8.0  7     0     996.0    NA       0.0000   9999     1510  0     0    
2019/06/29  15:52:00  BASE  5.6154   214  6.98544  227  -6.8  91    -8.0  6     0     996.0    NA       0.0000   9999     1540  0     0    
2019/06/29  15:53:00  BASE  5.50368  215  6.98544  227  -6.8  91    -8.0  6     0     996.0    NA       0.0000   9999     1480  0     0    
2019/06/29  15:54:00  BASE  5.733    222  6.98544  227  -6.8  91    -8.0  6     0     996.0    NA       0.0000   9999     1440  0     0    
2019/06/29  15:55:00  BASE  5.59188  231  6.98544  227  -6.8  91    -8.0  6     0     996.0    NA       0.0000   9999     1440  0     0    
2019/06/29  15:56:00  BASE  6.05052  228  7.3794   215  -6.7  91    -7.9  6     0     996.0    NA       0.0000   9999     1480  0     0    
2019/06/29  15:57:00  BASE  6.1152   226  7.3794   215  -6.7  91    -7.9  6     0     996.0    NA       0.0000   9999     1440  0     0    
2019/06/29  15:58:00  BASE  5.77416  232  7.3794   215  -6.7  92    -7.8  6     0     995.7    NA       0.0000   9999     1410  0     0    
2019/06/29  15:59:00  BASE  6.42684  227  7.3794   215  -6.7  92    -7.8  5     0     996.0    NA       0.0000   9999     1480  0     0    
2019/06/29  16:00:00  BASE  6.89136  225  7.3794   215  -6.7  92    -7.7  5     0     995.9    NA       0.0000   -SN      9999  1480  0    
2019/06/29  16:01:00  BASE  6.57384  231  7.3794   215  -6.7  92    -7.8  5     0     996.0    NA       0.0000   -SN      9999  1510  0    
2019/06/29  16:02:00  BASE  5.87412  228  7.3794   215  -6.7  92    -7.8  5     0     996.0    NA       0.0000   -SN      9999  1510  0    
2019/06/29  16:03:00  BASE  5.42136  225  7.3794   215  -6.8  92    -7.8  4     0     996.0    NA       0.0000   -SN      9999  1480  0    
2019/06/29  16:04:00  BASE  5.81532  227  7.3794   215  -6.8  92    -7.9  4     0     996.0    NA       0.0000   -SN      9999  1410  0    
2019/06/29  16:05:00  BASE  6.19164  226  7.74396  234  -6.8  92    -7.9  5     0     996.0    NA       0.0000   -SN      9999  1380  0    
2019/06/29  16:06:00  BASE  5.9388   225  7.74396  234  -6.8  92    -7.9  5     0     996.0    NA       0.0000   -SN      9999  1480  0    
2019/06/29  16:07:00  BASE  5.4978   219  7.74396  234  -6.8  92    -7.9  5     0     996.0    NA       0.0000   -SN      9999  1440  0    
2019/06/29  16:08:00  BASE  5.34492  219  7.74396  234  -6.8  92    -7.9  5     0     996.0    NA       0.0000   -SN      9999  1410  0    
2019/06/29  16:09:00  BASE  5.12148  221  7.74396  234  -6.8  92    -7.9  5     0     996.0    NA       0.0000   -SN      9999  1510  0    
2019/06/29  16:10:00  BASE  5.0568   216  7.74396  234  -6.8  92    -7.9  5     0     995.9    NA       0.0000   -SN      9999  1540  0    
2019/06/29  16:11:00  BASE  5.4978   210  7.74396  234  -6.8  92    -7.9  5     0     995.2    NA       0.0000   -SN      9999  1540  0    
2019/06/29  16:12:00  BASE  5.2038   206  7.74396  234  -6.8  92    -7.9  4     0     996.0    NA       0.0000   -SN      9999  1540  0    
2019/06/29  16:13:00  BASE  4.7334   217  7.74396  234  -6.9  92    -7.9  4     0     996.0    NA       0.0000   -SN      9999  1540  0    
2019/06/29  16:14:00  BASE  4.59228  229  7.74396  234  -6.9  92    -8.0  4     0     996.0    NA       0.0000   -SN      9999  1540  0    
2019/06/29  16:15:00  BASE  4.6158   229  6.2622   235  -6.9  92    -8.0  4     0     996.0    NA       0.0000   9999     1570  0     0    
2019/06/29  16:16:00  BASE  4.94508  225  6.16812  222  -6.9  92    -7.9  4     0     996.0    NA       0.0000   9999     1570  0     0    
2019/06/29  16:17:00  BASE  5.43312  212  6.2916   200  -6.8  92    -7.9  4     0     996.0    NA       0.0000   9999     1570  0     0    
2019/06/29  16:18:00  BASE  5.75064  202  6.321    200  -6.8  92    -7.9  4     0     996.0    NA       0.0000   9999     1480  0     0    
2019/06/29  16:19:00  BASE  5.0862   209  6.321    200  -6.8  92    -7.9  4     0     996.0    NA       0.0000   9999     1480  0     0    
2019/06/29  16:20:00  BASE  4.19832  220  6.321    200  -6.8  92    -7.9  4     0     996.0    NA       0.0000   9999     1570  0     0    
2019/06/29  16:21:00  BASE  3.91608  219  6.321    200  -6.8  92    -7.9  4     0     996.0    NA       0.0000   9999     1610  0     0    
2019/06/29  16:22:00  BASE  4.46292  221  6.321    200  -6.8  92    -7.9  4     0     996.0    NA       0.0000   9999     1610  0     0    
2019/06/29  16:23:00  BASE  4.78044  231  6.321    200  -6.8  92    -7.9  4     0     996.0    NA       0.0000   9999     1540  0     0    
2019/06/29  16:24:00  BASE  4.62756  229  6.321    200  -6.8  92    -7.9  4     0     995.9    NA       0.0000   9999     1740  0     0    
2019/06/29  16:25:00  BASE  4.557    215  6.321    200  -6.8  92    -7.8  4     0     996.0    NA       0.0000   9999     1610  0     0    
2019/06/29  16:26:00  BASE  3.969    208  6.321    200  -6.7  92    -7.8  4     0     996.0    NA       0.0000   9999     1540  0     0    
2019/06/29  16:27:00  BASE  4.23948  212  6.62676  220  -6.7  92    -7.8  4     0     996.0    NA       0.0000   9999     1610  0     0    
2019/06/29  16:28:00  BASE  5.90352  223  7.4088   240  -6.7  91    -7.8  4     0     995.9    NA       0.0000   9999     1540  0     0    
2019/06/29  16:29:00  BASE  5.53308  237  7.4088   240  -6.7  91    -7.9  4     0     996.0    NA       0.0000   9999     1570  0     0    
2019/06/29  16:30:00  BASE  4.36884  233  7.4088   240  -6.7  91    -7.9  4     0     995.9    NA       0.0000   9999     1570  0     0    
2019/06/29  16:31:00  BASE  4.998    221  7.4088   240  -6.7  91    -7.9  4     0     996.0    NA       0.0000   9999     1570  0     0    
2019/06/29  16:32:00  BASE  6.43272  223  7.92624  229  -6.6  91    -7.8  4     0     995.7    NA       0.0000   9999     1540  0     0    
2019/06/29  16:33:00  BASE  7.16772  227  7.92624  229  -6.6  91    -7.8  4     0     995.9    NA       0.0000   9999     1510  0     0    
2019/06/29  16:34:00  BASE  6.55032  226  7.92624  229  -6.6  91    -7.8  4     0     995.9    NA       0.0000   9999     1480  0     0    
2019/06/29  16:35:00  BASE  6.10932  226  7.92624  229  -6.6  91    -7.8  4     0     995.9    NA       0.0000   9999     1570  0     0    
2019/06/29  16:36:00  BASE  6.35628  224  8.13792  237  -6.6  91    -7.8  4     0     995.9    NA       0.0000   9999     1570  0     0    
2019/06/29  16:37:00  BASE  6.40332  219  8.13792  237  -6.6  91    -7.8  4     0     995.9    NA       0.0000   9999     1540  0     0    
2019/06/29  16:38:00  BASE  6.09756  223  8.13792  237  -6.5  91    -7.8  4     0     995.9    NA       0.0000   9999     1540  0     0    
2019/06/29  16:39:00  BASE  6.16224  226  8.13792  237  -6.6  91    -7.8  4     0     995.9    NA       0.0000   9999     1480  0     0    
2019/06/29  16:40:00  BASE  4.9686   222  8.13792  237  -6.6  91    -7.8  4     0     996.0    NA       0.0000   9999     1480  0     0    
2019/06/29  16:41:00  BASE  3.21048  227  8.13792  237  -6.6  91    -7.8  4     0     995.8    NA       0.0000   9999     1510  0     0    
2019/06/29  16:42:00  BASE  2.94     227  8.13792  237  -6.6  91    -7.9  4     0     995.9    NA       0.0000   9999     1610  0     0    
2019/06/29  16:43:00  BASE  3.4692   219  8.13792  237  -6.6  91    -7.9  4     0     996.0    NA       0.0000   9999     1510  0     0    
2019/06/29  16:44:00  BASE  4.97448  215  8.13792  237  -6.6  91    -7.8  4     0     995.9    NA       0.0000   9999     1510  0     0    
2019/06/29  16:45:00  BASE  5.75652  210  8.13792  237  -6.6  91    -7.8  4     0     995.9    NA       0.0000   9999     1480  0     0    
2019/06/29  16:46:00  BASE  5.52132  214  7.05012  223  -6.5  91    -7.8  4     0     995.9    NA       0.0000   9999     1540  0     0    
2019/06/29  16:47:00  BASE  5.45076  222  7.05012  223  -6.5  91    -7.8  4     0     995.9    NA       0.0000   9999     1440  0     0    
2019/06/29  16:48:00  BASE  4.95684  228  7.05012  223  -6.5  91    -7.8  4     0     995.9    NA       0.0000   9999     1480  0     0    
2019/06/29  16:49:00  BASE  4.57464  230  7.02072  209  -6.5  91    -7.8  4     0     995.9    NA       0.0000   9999     1510  0     0    
2019/06/29  16:50:00  BASE  5.1156   228  7.98504  220  -6.5  91    -7.8  3     0     995.9    NA       0.0000   9999     1510  0     0    
2019/06/29  16:51:00  BASE  6.4974   224  7.98504  220  -6.5  91    -7.7  3     0     995.9    NA       0.0000   9999     1440  0     0    
2019/06/29  16:52:00  BASE  6.54444  220  7.98504  220  -6.5  91    -7.7  3     0     995.9    NA       0.0000   9999     1380  0     0    
2019/06/29  16:53:00  BASE  5.9682   220  7.98504  220  -6.5  91    -7.7  3     0     995.9    NA       0.0000   9999     1380  0     0    
2019/06/29  16:54:00  BASE  6.88548  217  9.19632  215  -6.5  92    -7.6  3     0     995.9    NA       0.0000   9999     1410  0     0    
2019/06/29  16:55:00  BASE  7.70868  214  9.19632  215  -6.5  92    -7.6  3     0     995.9    NA       0.0000   9999     1380  0     0    
2019/06/29  16:56:00  BASE  7.1442   215  9.19632  215  -6.5  92    -7.6  3     0     995.9    NA       0.0000   9999     1350  0     0    
2019/06/29  16:57:00  BASE  6.68556  218  9.19632  215  -6.5  92    -7.6  3     0     995.9    NA       0.0000   9999     1410  0     0    
2019/06/29  16:58:00  BASE  7.19124  225  9.19632  215  -6.5  92    -7.5  3     0     995.8    NA       0.0000   9999     1480  0     0    
2019/06/29  16:59:00  BASE  7.21476  231  9.19632  215  -6.5  92    -7.5  3     0     995.8    NA       0.0000   9999     1380  0     0    
2019/06/29  17:00:00  BASE  6.51504  232  9.19632  215  -6.5  93    -7.5  3     0     995.9    NA       0.0000   9999     1480  0     0    
2019/06/29  17:01:00  BASE  6.3798   228  9.19632  215  -6.5  93    -7.5  3     0     995.9    NA       0.0000   9999     1410  0     0    
2019/06/29  17:02:00  BASE  6.36216  227  9.19632  215  -6.5  93    -7.5  3     0     995.9    NA       0.0000   9999     1350  0     0    
2019/06/29  17:03:00  BASE  5.31552  234  9.19632  215  -6.6  93    -7.6  4     0     995.9    NA       0.0000   9999     1310  0     0    
2019/06/29  17:04:00  BASE  4.59816  229  8.92584  214  -6.7  93    -7.6  4     0     996.0    NA       0.0000   9999     1410  0     0    
2019/06/29  17:05:00  BASE  5.41548  224  8.53188  229  -6.7  93    -7.7  4     0     995.9    NA       0.0000   9999     1440  0     0    
2019/06/29  17:06:00  BASE  6.33864  232  8.53188  229  -6.8  93    -7.7  4     0     995.9    NA       0.0000   9999     1480  0     0    
2019/06/29  17:07:00  BASE  6.25044  235  8.53188  229  -6.8  93    -7.7  4     0     995.9    NA       0.0000   9999     1480  0     0    
2019/06/29  17:08:00  BASE  5.48604  236  7.62048  237  -6.8  93    -7.7  4     0     995.9    NA       0.0000   9999     1410  0     0    
2019/06/29  17:09:00  BASE  5.5566   239  7.62048  237  -6.8  93    -7.7  4     0     995.9    NA       0.0000   9999     1380  0     0    
2019/06/29  17:10:00  BASE  5.54484  237  7.62048  237  -6.8  93    -7.7  4     0     995.9    NA       0.0000   9999     1350  0     0    
2019/06/29  17:11:00  BASE  5.08032  233  7.62048  237  -6.8  93    -7.7  4     0     995.9    NA       0.0000   9999     1410  0     0    
2019/06/29  17:12:00  BASE  4.65696  229  7.62048  237  -6.8  93    -7.7  4     0     996.0    NA       0.0000   9999     1480  0     0    
2019/06/29  17:13:00  BASE  3.4692   229  7.62048  237  -6.8  93    -7.7  4     0     996.0    NA       0.0000   9999     1540  0     0    
2019/06/29  17:14:00  BASE  2.88708  238  7.62048  237  -6.8  93    -7.7  4     0     996.0    NA       0.0000   9999     1480  0     0    
2019/06/29  17:15:00  BASE  3.6162   250  7.62048  237  -6.8  93    -7.7  4     0     996.0    NA       0.0000   9999     1380  0     0    
2019/06/29  17:16:00  BASE  4.33356  254  7.13832  231  -6.8  93    -7.8  4     0     996.0    NA       0.0000   9999     1540  0     0    
2019/06/29  17:17:00  BASE  4.01604  259  6.86784  243  -6.8  93    -7.8  4     0     996.0    NA       0.0000   9999     1510  0     0    
2019/06/29  17:18:00  BASE  3.83964  264  6.86784  243  -6.8  92    -7.8  4     0     996.0    NA       0.0000   9999     1440  0     0    
2019/06/29  17:19:00  BASE  4.6158   263  6.44448  263  -6.8  92    -7.8  4     0     996.0    NA       0.0000   9999     1480  0     0    
2019/06/29  17:20:00  BASE  4.69224  257  6.44448  263  -6.8  92    -7.8  4     0     996.0    NA       0.0000   9999     1480  0     0    
2019/06/29  17:21:00  BASE  4.18656  250  6.44448  263  -6.8  92    -7.8  4     0     996.0    NA       0.0000   9999     1380  0     0    
2019/06/29  17:22:00  BASE  3.73968  248  6.44448  263  -6.8  92    -7.8  4     0     996.0    NA       0.0000   9999     1440  0     0    
2019/06/29  17:23:00  BASE  3.56916  249  6.44448  263  -6.7  92    -7.8  4     0     996.0    NA       0.0000   9999     1410  0     0    
2019/06/29  17:24:00  BASE  4.7922   243  7.02072  247  -6.7  92    -7.8  4     0     996.0    NA       0.0000   9999     1410  0     0    
2019/06/29  17:25:00  BASE  6.3798   225  7.92624  217  -6.7  93    -7.7  4     0     996.0    NA       0.0000   9999     1440  0     0    
2019/06/29  17:26:00  BASE  7.16184  215  8.19672  213  -6.7  93    -7.7  4     0     996.0    NA       0.0000   9999     1440  0     0    
2019/06/29  17:27:00  BASE  7.16772  216  8.19672  213  -6.7  93    -7.7  4     0     996.0    NA       0.0000   9999     1410  0     0    
2019/06/29  17:28:00  BASE  6.54444  215  8.19672  213  -6.7  93    -7.7  4     0     996.0    NA       0.0000   9999     1510  0     0    
2019/06/29  17:29:00  BASE  5.70948  209  8.19672  213  -6.7  93    -7.7  4     0     996.0    NA       0.0000   9999     1540  0     0    
2019/06/29  17:30:00  BASE  5.1156   203  8.19672  213  -6.8  93    -7.7  4     0     996.0    NA       0.0000   9999     1540  0     0    
2019/06/29  17:31:00  BASE  5.1744   205  8.19672  213  -6.8  93    -7.7  4     0     996.0    NA       0.0000   9999     1480  0     0    
2019/06/29  17:32:00  BASE  6.2622   217  8.3496   228  -6.8  93    -7.7  3     0     996.0    NA       0.0000   9999     1440  0     0    
2019/06/29  17:33:00  BASE  7.1442   221  8.3496   228  -6.8  93    -7.7  3     0     996.0    NA       0.0000   9999     1510  0     0    
2019/06/29  17:34:00  BASE  6.63264  219  8.3496   228  -6.8  93    -7.8  4     0     996.0    NA       0.0000   9999     1540  0     0    
2019/06/29  17:35:00  BASE  5.57424  220  8.3496   228  -6.8  92    -7.8  4     0     996.0    NA       0.0000   9999     1380  0     0    
2019/06/29  17:36:00  BASE  4.06308  220  8.3496   228  -6.8  92    -7.8  4     0     996.0    NA       0.0000   9999     1410  0     0    
2019/06/29  17:37:00  BASE  3.18696  224  8.3496   228  -6.8  92    -7.9  4     0     996.0    NA       0.0000   9999     1440  0     0    
2019/06/29  17:38:00  BASE  3.83376  232  8.3496   228  -6.8  92    -7.9  3     0     996.0    NA       0.0000   9999     1410  0     0    
2019/06/29  17:39:00  BASE  5.42724  228  8.3496   228  -6.8  92    -7.9  3     0     996.0    NA       0.0000   9999     1510  0     0    
2019/06/29  17:40:00  BASE  6.75612  222  8.3496   228  -6.8  92    -7.9  3     0     996.0    NA       0.0000   9999     1540  0     0    
2019/06/29  17:41:00  BASE  6.40332  222  8.3496   228  -6.8  92    -7.9  3     0     996.0    NA       0.0000   9999     1510  0     0    
2019/06/29  17:42:00  BASE  5.22144  219  7.98504  222  -6.8  92    -7.9  3     0     996.1    NA       0.0000   9999     1440  0     0    
2019/06/29  17:43:00  BASE  5.04504  219  7.71456  219  -6.8  92    -7.8  3     0     996.1    NA       0.0000   9999     1670  0     0    
2019/06/29  17:44:00  BASE  6.24456  227  8.4672   222  -6.7  92    -7.8  3     0     996.0    NA       0.0000   9999     1570  0     0    
2019/06/29  17:45:00  BASE  7.66164  229  8.64948  223  -6.7  92    -7.8  3     0     996.0    NA       0.0000   9999     1510  0     0    
2019/06/29  17:46:00  BASE  8.57892  226  9.80196  229  -6.7  92    -7.8  3     0     996.0    NA       0.0000   9999     1410  0     0    
2019/06/29  17:47:00  BASE  8.60244  228  9.80196  229  -6.8  92    -7.8  3     0     996.0    NA       0.0000   9999     1410  0     0    
2019/06/29  17:48:00  BASE  7.82628  229  9.80196  229  -6.8  92    -7.9  3     0     996.2    NA       0.0000   9999     1380  0     0    
2019/06/29  17:49:00  BASE  6.86784  232  9.80196  229  -6.9  92    -8.0  3     0     996.2    NA       0.0000   9999     1610  0     0    
2019/06/29  17:50:00  BASE  5.292    235  9.80196  229  -6.9  91    -8.1  3     0     996.3    NA       0.0000   9999     1800  0     0    
2019/06/29  17:51:00  BASE  4.39236  228  9.80196  229  -7.0  91    -8.1  3     0     996.3    NA       0.0000   9999     1740  0     0    
2019/06/29  17:52:00  BASE  4.75692  216  9.80196  229  -7.0  91    -8.2  3     0     996.3    NA       0.0000   9999     1540  0     0    
2019/06/29  17:53:00  BASE  4.93332  210  9.80196  229  -7.0  91    -8.2  3     0     996.3    NA       0.0000   9999     1610  0     0    
2019/06/29  17:54:00  BASE  4.72164  204  9.80196  229  -7.0  91    -8.2  3     0     996.4    NA       0.0000   9999     1570  0     0    
2019/06/29  17:55:00  BASE  4.22184  206  9.80196  229  -7.0  91    -8.2  3     0     996.3    NA       0.0000   9999     1410  0     0    
2019/06/29  17:56:00  BASE  3.84552  215  9.10224  228  -7.0  91    -8.3  3     0     996.4    NA       0.0000   9999     1510  0     0    
2019/06/29  17:57:00  BASE  4.40412  217  8.13792  227  -7.0  90    -8.3  3     0     996.4    NA       0.0000   9999     1440  0     0    
2019/06/29  17:58:00  BASE  6.13872  222  7.80276  228  -7.0  90    -8.3  2     0     996.3    NA       0.0000   9999     1410  0     0    
2019/06/29  17:59:00  BASE  6.72672  226  7.80276  228  -6.9  90    -8.3  2     0     996.2    NA       0.0000   9999     1350  0     0    
2019/06/29  18:00:00  BASE  5.91528  227  7.80276  228  -6.9  90    -8.2  2     0     996.2    NA       0.0000   9999     1380  0     0    
2019/06/29  18:01:00  BASE  5.16264  225  7.80276  228  -6.9  91    -8.1  2     0     996.4    NA       0.0000   9999     1380  0     0    
2019/06/29  18:02:00  BASE  5.04504  212  7.80276  228  -6.8  91    -8.1  2     0     996.4    NA       0.0000   9999     1380  0     0    
2019/06/29  18:03:00  BASE  5.21556  202  7.80276  228  -6.8  91    -8.1  2     0     996.5    NA       0.0000   9999     1440  0     0    
2019/06/29  18:04:00  BASE  5.23908  205  7.80276  228  -6.8  91    -8.0  2     0     996.5    NA       0.0000   9999     1350  0     0    
2019/06/29  18:05:00  BASE  5.86236  216  7.80276  228  -6.8  91    -8.0  2     0     996.4    NA       0.0000   9999     1440  0     0    
2019/06/29  18:06:00  BASE  5.7624   215  7.80276  228  -6.8  91    -8.0  2     0     996.5    NA       0.0000   9999     1380  0     0    
2019/06/29  18:07:00  BASE  6.09168  211  8.04384  216  -6.8  92    -7.9  2     0     996.4    NA       0.0000   9999     1480  0     0    
2019/06/29  18:08:00  BASE  6.66204  214  8.22612  210  -6.8  92    -7.9  2     0     996.5    NA       0.0000   9999     1440  0     0    
2019/06/29  18:09:00  BASE  7.13244  217  8.80236  214  -6.8  92    -7.8  2     0     996.4    NA       0.0000   9999     1540  0     0    
2019/06/29  18:10:00  BASE  8.33784  220  9.4374   222  -6.8  92    -7.8  2     0     996.4    NA       0.0000   9999     1440  0     0    
2019/06/29  18:11:00  BASE  8.2026   222  9.4374   222  -6.8  92    -7.8  2     0     996.5    NA       0.0000   9999     1480  0     0    
2019/06/29  18:12:00  BASE  7.19124  224  9.4374   222  -6.8  92    -7.9  2     0     996.5    NA       0.0000   9999     1480  0     0    
2019/06/29  18:13:00  BASE  5.9976   224  9.4374   222  -6.8  92    -7.9  2     0     996.5    NA       0.0000   9999     1410  0     0    
2019/06/29  18:14:00  BASE  4.95684  223  9.4374   222  -6.9  92    -8.0  2     0     996.6    NA       0.0000   9999     1380  0     0    
2019/06/29  18:15:00  BASE  4.44528  222  9.4374   222  -6.9  92    -8.0  2     0     996.6    NA       0.0000   9999     1480  0     0    
2019/06/29  18:16:00  BASE  3.65148  218  9.4374   222  -7.0  92    -8.1  2     0     996.6    NA       0.0000   9999     1510  0     0    
2019/06/29  18:17:00  BASE  3.30456  221  9.4374   222  -7.0  92    -8.2  2     0     996.6    NA       0.0000   9999     1440  0     0    
2019/06/29  18:18:00  BASE  3.96312  232  9.4374   222  -7.0  91    -8.2  2     0     996.5    NA       0.0000   9999     1410  0     0    
2019/06/29  18:19:00  BASE  5.28024  241  9.4374   222  -7.0  91    -8.2  2     0     996.5    NA       0.0000   9999     1440  0     0    
2019/06/29  18:20:00  BASE  6.39744  243  8.22612  217  -7.0  91    -8.2  2     0     996.5    NA       0.0000   9999     1410  0     0    
2019/06/29  18:21:00  BASE  6.30336  234  7.59108  237  -6.9  91    -8.2  2     0     996.6    NA       0.0000   9999     1380  0     0    
2019/06/29  18:22:00  BASE  5.9388   232  7.59108  237  -6.9  91    -8.1  2     0     996.6    NA       0.0000   9999     1440  0     0    
2019/06/29  18:23:00  BASE  6.44448  233  8.89056  226  -6.9  91    -8.1  2     0     996.6    NA       0.0000   9999     1480  0     0    
2019/06/29  18:24:00  BASE  6.9678   224  8.89056  226  -6.9  91    -8.1  2     0     996.6    NA       0.0000   9999     1410  0     0    
2019/06/29  18:25:00  BASE  6.5268   216  8.89056  226  -6.9  91    -8.1  1     0     996.7    NA       0.0000   9999     1250  0     0    
2019/06/29  18:26:00  BASE  6.0564   215  8.89056  226  -6.9  91    -8.1  1     0     996.7    NA       0.0000   9999     1440  0     0    
2019/06/29  18:27:00  BASE  6.66792  214  8.89056  226  -6.9  91    -8.1  1     0     996.7    NA       0.0000   9999     1510  0     0    
2019/06/29  18:28:00  BASE  7.39704  211  8.89056  226  -6.9  92    -8.0  1     0     996.6    NA       0.0000   9999     1380  0     0    
2019/06/29  18:29:00  BASE  6.8796   209  8.89056  226  -6.9  92    -8.0  1     0     996.7    NA       0.0000   9999     1310  0     0    
2019/06/29  18:30:00  BASE  6.5856   209  8.89056  226  -6.9  92    -8.0  1     0     996.7    NA       0.0000   9999     1380  0     0    
2019/06/29  18:31:00  BASE  7.1148   208  8.89056  226  -6.9  92    -8.0  1     0     996.7    NA       0.0000   9999     1410  0     0    
2019/06/29  18:32:00  BASE  6.36804  207  8.89056  226  -7.0  92    -8.1  1     0     996.7    NA       0.0000   9999     1310  0     0    
2019/06/29  18:33:00  BASE  5.4096   205  8.59068  206  -7.0  92    -8.1  1     0     996.7    NA       0.0000   9999     1280  0     0    
2019/06/29  18:34:00  BASE  5.2038   205  8.59068  206  -7.1  92    -8.1  1     0     996.7    NA       0.0000   9999     1280  0     0    
2019/06/29  18:35:00  BASE  4.69812  206  8.59068  206  -7.1  92    -8.1  1     0     996.7    NA       0.0000   9999     1280  0     0    
2019/06/29  18:36:00  BASE  4.4688   204  8.59068  206  -7.1  92    -8.1  1     0     996.7    NA       0.0000   9999     1280  0     0    
2019/06/29  18:37:00  BASE  4.54524  206  8.59068  206  -7.1  93    -8.1  1     0     996.7    NA       0.0000   9999     1250  0     0    
2019/06/29  18:38:00  BASE  4.73928  215  8.59068  206  -7.0  93    -8.0  1     0     996.7    NA       0.0000   9999     1310  0     0    
2019/06/29  18:39:00  BASE  5.58012  216  8.59068  206  -7.0  93    -7.9  1     0     996.7    NA       0.0000   9999     1310  0     0    
2019/06/29  18:40:00  BASE  6.02112  209  8.59068  206  -6.9  93    -7.8  1     0     996.7    NA       0.0000   9999     1380  0     0    
2019/06/29  18:41:00  BASE  5.59776  205  7.19712  218  -6.9  93    -7.8  1     0     996.7    NA       0.0000   9999     1350  0     0    
2019/06/29  18:42:00  BASE  5.69184  211  7.86744  221  -6.9  94    -7.7  1     0     996.6    NA       0.0000   9999     1210  0     0    
2019/06/29  18:43:00  BASE  6.77964  224  8.19672  226  -6.8  94    -7.6  1     0     996.6    NA       0.0000   9999     1250  0     0    
2019/06/29  18:44:00  BASE  7.13832  221  8.19672  226  -6.8  94    -7.6  1     0     996.6    NA       0.0000   9999     1180  0     0    
2019/06/29  18:45:00  BASE  6.33276  215  8.19672  226  -6.8  94    -7.6  1     0     996.6    NA       0.0000   9999     1150  0     0    
2019/06/29  18:46:00  BASE  5.83884  215  8.19672  226  -6.8  94    -7.6  1     0     996.6    NA       0.0000   9999     1180  0     0    
2019/06/29  18:47:00  BASE  6.15636  212  8.19672  226  -6.8  94    -7.5  1     0     996.6    NA       0.0000   9999     1280  0     0    
2019/06/29  18:48:00  BASE  6.3798   204  8.19672  226  -6.8  94    -7.6  1     0     996.6    NA       0.0000   9999     1180  0     0    
2019/06/29  18:49:00  BASE  5.66832  201  8.19672  226  -6.8  94    -7.6  1     0     996.7    NA       0.0000   9999     1180  0     0    
2019/06/29  18:50:00  BASE  4.98624  199  8.19672  226  -6.9  95    -7.6  1     0     996.7    NA       0.0000   9999     1210  0     0    
2019/06/29  18:51:00  BASE  4.998    201  8.19672  226  -6.9  95    -7.6  1     0     996.7    NA       0.0000   9999     1210  0     0    
2019/06/29  18:52:00  BASE  5.3508   206  8.19672  226  -6.9  95    -7.6  0     0     996.7    NA       0.0000   9999     1250  0     0    
2019/06/29  18:53:00  BASE  5.22732  208  7.3206   205  -6.9  95    -7.6  0     0     996.7    NA       0.0000   9999     1180  0     0    
2019/06/29  18:54:00  BASE  5.27436  205  7.3206   205  -6.9  95    -7.5  0     0     996.7    NA       0.0000   9999     1180  0     0    
2019/06/29  18:55:00  BASE  5.62128  209  7.3206   205  -6.9  95    -7.5  0     0     996.7    NA       0.0000   9999     1250  0     0    
2019/06/29  18:56:00  BASE  6.27984  215  7.89684  215  -6.8  96    -7.4  0     0     996.6    NA       0.0000   9999     1250  0     0    
2019/06/29  18:57:00  BASE  7.13244  213  7.95564  213  -6.8  96    -7.4  0     0     996.6    NA       0.0000   9999     1250  0     0    
2019/06/29  18:58:00  BASE  7.03248  213  7.95564  213  -6.8  96    -7.3  0     0     996.7    NA       0.0000   9999     1210  0     0    
2019/06/29  18:59:00  BASE  6.30336  216  7.95564  213  -6.8  96    -7.3  0     0     996.7    NA       0.0000   9999     1280  0     0    
2019/06/29  19:00:00  BASE  5.76828  219  7.95564  213  -6.8  96    -7.3  0     0     996.8    NA       0.0000   9999     1210  0     0    
2019/06/29  19:01:00  BASE  6.468    219  8.04384  210  -6.8  96    -7.3  0     0     996.8    NA       0.0000   9999     1180  0     0    
2019/06/29  19:02:00  BASE  6.7914   214  8.04384  210  -6.9  96    -7.4  0     0     996.8    NA       0.0000   9999     1050  0     0    
2019/06/29  19:03:00  BASE  5.94468  208  8.04384  210  -6.9  96    -7.4  0     0     996.8    NA       0.0000   9999     1080  0     0    
2019/06/29  19:04:00  BASE  6.25632  205  8.04384  210  -6.9  96    -7.4  0     0     996.8    NA       0.0000   9999     1250  0     0    
2019/06/29  19:05:00  BASE  6.66204  206  8.04384  210  -6.9  97    -7.4  0     0     996.8    NA       0.0000   9999     1210  0     0    
2019/06/29  19:06:00  BASE  6.60912  211  8.04384  210  -6.9  97    -7.4  0     0     996.9    NA       0.0000   9999     1210  0     0    
2019/06/29  19:07:00  BASE  6.06816  219  8.04384  210  -6.9  97    -7.3  0     0     996.9    NA       0.0000   9999     1210  0     0    
2019/06/29  19:08:00  BASE  5.30376  225  8.04384  210  -6.9  97    -7.3  0     0     996.9    NA       0.0000   9999     1180  0     0    
2019/06/29  19:09:00  BASE  5.59188  221  8.04384  210  -6.9  97    -7.3  0     0     997.0    NA       0.0000   9999     1150  0     0    
2019/06/29  19:10:01  BASE  6.39156  216  8.04384  210  -6.9  97    -7.3  0     0     997.0    NA       0.0000   9999     1080  0     0    
2019/06/29  19:11:00  BASE  6.28572  213  7.59108  204  -6.9  97    -7.3  0     0     997.0    NA       0.0000   9999     1120  0     0    
2019/06/29  19:12:00  BASE  6.2034   206  7.59108  204  -6.9  97    -7.3  0     0     997.0    NA       0.0000   9999     1120  0     0    
2019/06/29  19:13:00  BASE  6.77964  200  7.59108  204  -6.9  97    -7.3  0     0     997.0    NA       0.0000   9999     1120  0     0    
2019/06/29  19:14:00  BASE  5.93292  199  7.50288  198  -6.9  97    -7.3  0     0     997.0    NA       0.0000   9999     1080  0     0    
2019/06/29  19:15:00  BASE  4.95096  199  7.50288  198  -7.0  97    -7.4  0     0     997.1    NA       0.0000   9999     1180  0     0    
2019/06/29  19:16:00  BASE  5.58012  204  8.19672  217  -7.0  97    -7.4  0     0     997.0    NA       0.0000   9999     1180  0     0    
2019/06/29  19:17:00  BASE  6.62676  210  8.19672  217  -7.0  97    -7.4  0     0     997.0    NA       0.0000   9999     1280  0     0    
2019/06/29  19:18:00  BASE  6.13872  212  8.19672  217  -7.0  97    -7.4  0     0     997.1    NA       0.0000   9999     1180  0     0    
2019/06/29  19:19:00  BASE  5.10972  223  8.19672  217  -7.0  97    -7.4  0     0     997.1    NA       0.0000   9999     950   0     0    
2019/06/29  19:20:00  BASE  4.851    236  8.19672  217  -7.0  97    -7.3  0     0     997.1    NA       0.0000   9999     1080  0     0    
2019/06/29  19:21:00  BASE  4.50996  241  8.19672  217  -6.9  98    -7.2  0     0     997.1    NA       0.0000   9999     1080  0     0    
2019/06/29  19:22:00  BASE  4.16304  237  8.19672  217  -6.9  98    -7.2  0     0     997.1    NA       0.0000   9999     1050  0     0    
2019/06/29  19:23:00  BASE  3.79848  223  8.19672  217  -6.9  98    -7.2  0     0     997.1    NA       0.0000   9999     1120  0     0    
2019/06/29  19:24:00  BASE  3.93372  207  8.19672  217  -7.0  98    -7.2  0     0     997.2    NA       0.0000   9999     1120  0     0    
2019/06/29  19:25:00  BASE  4.28064  199  8.19672  217  -7.0  98    -7.3  0     0     997.2    NA       0.0000   9999     1080  0     0    
2019/06/29  19:26:00  BASE  4.25124  197  7.59108  209  -7.0  98    -7.3  0     0     997.2    NA       0.0000   9999     1080  0     0    
2019/06/29  19:27:00  BASE  4.1748   195  6.47388  210  -7.0  98    -7.3  0     0     997.2    NA       0.0000   9999     1050  0     0    
2019/06/29  19:28:00  BASE  4.22772  200  6.53268  218  -7.0  98    -7.2  0     0     997.1    NA       0.0000   9999     1120  0     0    
2019/06/29  19:29:00  BASE  5.4978   207  7.86744  211  -6.9  98    -7.2  0     0     997.1    NA       0.0000   9999     1050  0     0    
2019/06/29  19:30:00  BASE  5.93292  207  7.86744  211  -6.9  98    -7.1  0     0     997.1    NA       0.0000   9999     1050  0     0    
2019/06/29  19:31:00  BASE  5.62128  203  7.86744  211  -6.9  98    -7.1  0     0     997.1    NA       0.0000   9999     1120  0     0    
2019/06/29  19:32:00  BASE  6.5856   212  8.10852  223  -6.8  98    -7.0  0     0     997.0    NA       0.0000   9999     980   0     0    
2019/06/29  19:33:00  BASE  6.36804  223  8.10852  223  -6.8  98    -7.0  0     0     997.1    NA       0.0000   9999     950   0     0    
2019/06/29  19:34:00  BASE  5.15676  221  8.10852  223  -6.8  98    -7.0  0     0     997.2    NA       0.0000   9999     1120  0     0    
2019/06/29  19:35:00  BASE  4.98624  225  8.10852  223  -6.8  99    -7.0  0     0     997.1    NA       0.0000   9999     1210  0     0    
2019/06/29  19:36:00  BASE  5.1744   232  8.10852  223  -6.7  99    -6.9  0     0     997.1    NA       0.0000   9999     1210  0     0    
2019/06/29  19:37:00  BASE  4.74516  222  8.10852  223  -6.7  99    -6.9  0     0     997.2    NA       0.0000   9999     1150  0     0    
2019/06/29  19:38:00  BASE  4.4982   212  8.10852  223  -6.7  99    -6.8  0     0     997.2    NA       0.0000   9999     1120  0     0    
2019/06/29  19:39:00  BASE  4.7334   213  8.10852  223  -6.6  99    -6.8  0     0     997.2    NA       0.0000   9999     1150  0     0    
2019/06/29  19:40:00  BASE  4.95684  210  8.10852  223  -6.6  99    -6.7  0     0     997.1    NA       0.0000   9999     1120  0     0    
2019/06/29  19:41:00  BASE  5.42724  209  8.10852  223  -6.6  99    -6.7  0     0     997.1    NA       0.0000   9999     1120  0     0    
2019/06/29  19:42:00  BASE  7.203    216  9.77256  216  -6.6  99    -6.7  0     0     997.0    NA       0.0000   9999     1210  0     0    
2019/06/29  19:43:00  BASE  8.26728  223  9.77256  216  -6.6  99    -6.7  0     0     997.0    NA       0.0000   9999     1120  0     0    
2019/06/29  19:44:00  BASE  7.73808  226  9.77256  216  -6.6  99    -6.7  0     0     997.0    NA       0.0000   9999     1120  0     0    
2019/06/29  19:45:00  BASE  7.44408  225  9.77256  216  -6.6  99    -6.7  0     0     997.0    NA       0.0000   9999     1210  0     0    
2019/06/29  19:46:00  BASE  7.48524  224  9.77256  216  -6.6  99    -6.7  0     0     997.0    NA       0.0000   9999     1150  0     0    
2019/06/29  19:47:00  BASE  7.5264   224  9.77256  216  -6.6  99    -6.7  0     0     997.1    NA       0.0000   9999     1210  0     0    
2019/06/29  19:48:00  BASE  6.36804  228  9.77256  216  -6.6  99    -6.8  0     0     997.2    NA       0.0000   9999     1050  1540  0    
2019/06/29  19:49:00  BASE  4.82748  234  9.77256  216  -6.6  99    -6.8  0     0     997.2    NA       0.0000   9999     1120  0     0    
2019/06/29  19:50:00  BASE  3.81024  237  9.77256  216  -6.7  99    -6.8  0     0     997.2    NA       0.0000   9999     1180  0     0    
2019/06/29  19:51:00  BASE  3.5868   229  9.77256  216  -6.7  99    -6.9  0     0     997.2    NA       0.0000   9999     1210  0     0    
2019/06/29  19:52:00  BASE  4.00428  201  9.4374   231  -6.8  99    -6.9  0     0     997.3    NA       0.0000   9999     1250  0     0    
2019/06/29  19:53:00  BASE  4.22772  192  8.4378   221  -6.8  99    -6.9  0     0     997.3    NA       0.0000   9999     1180  0     0    
2019/06/29  19:54:00  BASE  4.28652  201  8.4378   221  -6.8  99    -6.9  0     0     997.3    NA       0.0000   9999     1280  0     0    
2019/06/29  19:55:00  BASE  4.704    200  8.4378   221  -6.8  99    -6.9  0     0     997.3    NA       0.0000   9999     1120  0     0    
2019/06/29  19:56:00  BASE  4.69812  201  8.10852  219  -6.8  99    -6.9  0     0     997.3    NA       0.0000   9999     1150  0     0    
2019/06/29  19:57:00  BASE  4.88628  211  6.77376  231  -6.8  99    -6.9  0     0     997.3    NA       0.0000   9999     1250  0     0    
2019/06/29  19:58:00  BASE  5.13324  210  6.2622   221  -6.8  99    -6.9  0     0     997.3    NA       0.0000   9999     1210  0     0    
2019/06/29  19:59:00  BASE  4.78632  202  6.2622   221  -6.8  99    -7.0  0     0     997.3    NA       0.0000   9999     1180  0     0    
2019/06/29  20:00:00  BASE  3.99252  200  6.2622   221  -6.8  98    -7.0  0     0     997.3    NA       0.0000   9999     1020  0     0    
2019/06/29  20:01:00  BASE  3.12816  215  6.2622   221  -6.8  98    -7.0  0     0     997.3    NA       0.0000   9999     1080  0     0    
2019/06/29  20:02:00  BASE  3.4398   237  6.2622   221  -6.8  98    -7.0  0     0     997.3    NA       0.0000   9999     1020  0     0    
2019/06/29  20:03:00  BASE  4.2336   243  6.2622   221  -6.7  98    -7.0  0     0     997.3    NA       0.0000   9999     1020  0     0    
2019/06/29  20:04:00  BASE  5.586    232  7.62048  212  -6.6  98    -6.9  0     0     997.3    NA       0.0000   9999     1120  0     0    
2019/06/29  20:05:00  BASE  6.67968  216  7.62048  212  -6.6  98    -6.8  0     0     997.3    NA       0.0000   9999     1250  0     0    
2019/06/29  20:06:00  BASE  6.86196  205  7.62048  212  -6.5  98    -6.8  0     0     997.4    NA       0.0000   9999     1180  0     0    
2019/06/29  20:07:00  BASE  7.10304  197  7.62048  212  -6.5  98    -6.7  0     0     997.5    NA       0.0000   9999     1210  0     0    
2019/06/29  20:08:00  BASE  6.77376  198  7.62048  212  -6.5  98    -6.7  0     0     997.5    NA       0.0000   9999     1210  0     0    
2019/06/29  20:09:00  BASE  6.18576  200  7.62048  212  -6.5  98    -6.8  0     0     997.5    NA       0.0000   9999     1020  0     0    
2019/06/29  20:10:00  BASE  5.52132  197  7.62048  212  -6.6  98    -6.9  0     0     997.6    NA       0.0000   9999     1210  0     0    
2019/06/29  20:11:00  BASE  4.93332  194  7.62048  212  -6.6  98    -6.9  0     0     997.6    NA       0.0000   9999     1180  0     0    
2019/06/29  20:12:00  BASE  5.53896  210  7.62048  212  -6.6  98    -6.9  0     0     997.5    NA       0.0000   9999     950   0     0    
2019/06/29  20:13:00  BASE  5.23908  236  7.62048  212  -6.6  98    -6.9  0     0     997.5    NA       0.0000   9999     890   0     0    
2019/06/29  20:14:00  BASE  4.2042   242  7.59108  197  -6.6  98    -6.8  0     0     997.5    NA       0.0000   9999     920   0     0    
2019/06/29  20:15:00  BASE  3.78084  236  7.59108  197  -6.6  98    -6.8  0     0     997.6    NA       0.0000   9999     950   0     0    
2019/06/29  20:16:00  BASE  4.65696  227  7.59108  197  -6.5  98    -6.8  0     0     997.5    NA       0.0000   9999     980   0     0    
2019/06/29  20:17:00  BASE  5.7036   223  7.16772  202  -6.5  98    -6.7  0     0     997.5    NA       0.0000   9999     920   0     0    
2019/06/29  20:18:00  BASE  5.20968  231  7.10892  234  -6.5  99    -6.7  0     0     997.5    NA       0.0000   9999     950   0     0    
2019/06/29  20:19:00  BASE  5.12148  237  7.10892  234  -6.5  99    -6.6  0     0     997.5    NA       0.0000   9999     1020  0     0    
2019/06/29  20:20:00  BASE  6.39156  228  7.86744  219  -6.4  99    -6.5  0     0     997.5    NA       0.0000   9999     1050  0     0    
2019/06/29  20:21:00  BASE  6.9678   221  7.86744  219  -6.4  99    -6.5  0     0     997.5    NA       0.0000   9999     1080  0     0    
2019/06/29  20:22:00  BASE  6.52092  219  7.86744  219  -6.4  99    -6.5  0     0     997.6    NA       0.0000   9999     1120  0     0    
2019/06/29  20:23:00  BASE  6.63852  220  8.4084   219  -6.4  99    -6.5  0     0     997.5    NA       0.0000   9999     1210  0     0    
2019/06/29  20:24:00  BASE  7.3794   222  8.4084   219  -6.4  100   -6.5  0     0     997.5    NA       0.0000   9999     1250  0     0    
2019/06/29  20:25:00  BASE  7.67928  222  8.4084   219  -6.5  100   -6.5  0     0     997.5    NA       0.0000   9999     1510  0     0    
2019/06/29  20:26:00  BASE  6.92076  227  8.4084   219  -6.5  100   -6.5  0     0     997.5    NA       0.0000   9999     1310  0     0    
2019/06/29  20:27:00  BASE  6.90312  226  8.4084   219  -6.5  100   -6.5  0     0     997.5    NA       0.0000   9999     1410  0     0    
2019/06/29  20:28:00  BASE  7.06188  220  8.4084   219  -6.5  100   -6.5  0     0     997.6    NA       0.0000   9999     1440  0     0    
2019/06/29  20:29:00  BASE  7.3206   223  8.74356  233  -6.6  100   -6.6  0     0     997.5    NA       0.0000   9999     1280  0     0    
2019/06/29  20:30:00  BASE  7.3206   229  8.74356  233  -6.6  100   -6.6  0     0     997.6    NA       0.0000   9999     1180  0     0    
2019/06/29  20:31:00  BASE  6.60912  227  8.74356  233  -6.6  100   -6.6  0     0     997.6    NA       0.0000   9999     1380  0     0    
2019/06/29  20:32:00  BASE  6.18576  221  8.74356  233  -6.6  99    -6.7  0     0     997.6    NA       0.0000   9999     1570  0     0    
2019/06/29  20:33:00  BASE  5.68596  215  8.74356  233  -6.7  99    -6.8  0     0     997.7    NA       0.0000   9999     1640  0     0    
2019/06/29  20:34:00  BASE  5.30964  208  8.74356  233  -6.7  99    -6.8  0     0     997.7    NA       0.0000   9999     1610  0     0    
2019/06/29  20:35:00  BASE  4.78044  196  8.74356  233  -6.7  99    -6.8  0     0     997.7    NA       0.0000   9999     1610  0     0    
2019/06/29  20:36:00  BASE  4.18068  190  8.74356  233  -6.7  99    -6.9  0     0     997.7    NA       0.0000   9999     1210  0     0    
2019/06/29  20:37:00  BASE  3.58092  196  8.74356  233  -6.7  99    -6.9  0     0     997.7    NA       0.0000   9999     1120  0     0    
2019/06/29  20:38:00  BASE  3.39864  202  8.74356  233  -6.7  98    -6.9  0     0     997.7    NA       0.0000   9999     1120  0     0    
2019/06/29  20:39:00  BASE  3.80436  206  7.50288  232  -6.7  98    -7.0  0     0     997.7    NA       0.0000   9999     1250  0     0    
2019/06/29  20:40:00  BASE  3.85728  222  7.44408  222  -6.7  98    -7.0  0     0     997.6    NA       0.0000   9999     1150  0     0    
2019/06/29  20:41:00  BASE  3.96312  239  7.05012  221  -6.7  98    -7.0  0     0     997.6    NA       0.0000   9999     1210  0     0    
2019/06/29  20:42:00  BASE  5.24496  234  7.56168  214  -6.7  97    -7.0  0     0     997.6    NA       0.0000   9999     1310  0     0    
2019/06/29  20:43:00  BASE  6.90312  223  8.19672  221  -6.6  97    -7.0  0     0     997.5    NA       0.0000   9999     1210  0     0    
2019/06/29  20:44:00  BASE  6.71496  220  8.19672  221  -6.6  97    -7.0  0     0     997.6    NA       0.0000   9999     1180  0     0    
2019/06/29  20:45:00  BASE  5.83296  226  8.19672  221  -6.6  97    -7.0  0     0     997.6    NA       0.0000   9999     1250  0     0    
2019/06/29  20:46:00  BASE  4.92744  235  8.19672  221  -6.6  97    -7.0  0     0     997.7    NA       0.0000   9999     1050  0     0    
2019/06/29  20:47:00  BASE  4.04544  236  8.19672  221  -6.7  97    -7.1  0     0     997.7    NA       0.0000   9999     1250  0     0    
2019/06/29  20:48:00  BASE  4.2336   233  8.19672  221  -6.7  97    -7.1  0     0     997.7    NA       0.0000   9999     1020  0     0    
2019/06/29  20:49:00  BASE  4.66872  226  8.19672  221  -6.7  97    -7.1  0     0     997.7    NA       0.0000   9999     1080  0     0    
2019/06/29  20:50:00  BASE  4.9098   218  8.19672  221  -6.6  97    -7.0  0     0     997.7    NA       0.0000   9999     1120  0     0    
2019/06/29  20:51:00  BASE  4.704    223  8.19672  221  -6.6  97    -7.0  0     0     997.6    NA       0.0000   9999     1050  0     0    
2019/06/29  20:52:00  BASE  3.89844  227  8.19672  221  -6.6  97    -7.0  0     0     997.7    NA       0.0000   9999     1050  0     0    
2019/06/29  20:53:00  BASE  4.32768  233  7.56168  256  -6.6  97    -7.0  0     0     997.6    NA       0.0000   9999     980   0     0    
2019/06/29  20:54:00  BASE  5.50368  240  7.56168  256  -6.6  97    -7.0  0     0     997.6    NA       0.0000   9999     920   0     0    
2019/06/29  20:55:00  BASE  5.95056  245  7.56168  253  -6.6  97    -7.0  0     0     997.5    NA       0.0000   9999     850   0     0    
2019/06/29  20:56:00  BASE  5.88588  248  7.56168  253  -6.6  97    -7.0  0     0     997.6    NA       0.0000   9999     890   0     0    
2019/06/29  20:57:00  BASE  4.98036  245  7.56168  253  -6.6  97    -7.0  0     0     997.6    NA       0.0000   9999     920   0     0    
2019/06/29  20:58:00  BASE  4.83336  244  7.56168  253  -6.6  97    -7.0  0     0     997.6    NA       0.0000   9999     980   0     0    
2019/06/29  20:59:00  BASE  4.72752  234  7.56168  253  -6.6  97    -7.0  0     0     997.7    NA       0.0000   9999     920   0     0    
2019/06/29  21:00:00  BASE  3.97488  225  7.56168  253  -6.6  98    -7.0  0     0     997.7    NA       0.0000   9999     920   0     0    
2019/06/29  21:01:00  BASE  3.528    223  7.56168  253  -6.7  98    -6.9  0     0     997.7    NA       0.0000   9999     920   0     0    
2019/06/29  21:02:00  BASE  3.5574   212  7.56168  253  -6.6  98    -6.9  0     0     997.7    NA       0.0000   9999     890   0     0    
2019/06/29  21:03:00  BASE  4.69224  207  7.56168  253  -6.6  98    -6.8  0     0     997.7    NA       0.0000   9999     950   0     0    
2019/06/29  21:04:00  BASE  5.56836  217  7.56168  253  -6.6  99    -6.8  0     0     997.7    NA       0.0000   9999     950   0     0    
2019/06/29  21:05:00  BASE  5.16264  227  6.2328   245  -6.6  99    -6.8  0     0     997.7    NA       0.0000   9999     920   0     0    
2019/06/29  21:06:00  BASE  4.98624  228  6.2034   211  -6.6  99    -6.7  0     0     997.7    NA       0.0000   9999     890   0     0    
2019/06/29  21:07:00  BASE  5.2038   227  6.2034   211  -6.6  99    -6.7  0     0     997.7    NA       0.0000   9999     850   0     0    
2019/06/29  21:08:00  BASE  5.23908  222  6.2034   211  -6.6  99    -6.7  0     0     997.8    NA       0.0000   9999     920   0     0    
2019/06/29  21:09:00  BASE  5.30376  219  6.2622   235  -6.6  99    -6.7  0     0     997.7    NA       0.0000   9999     980   0     0    
2019/06/29  21:10:00  BASE  6.63264  226  8.50248  228  -6.5  100   -6.6  0     0     997.6    NA       0.0000   9999     950   0     0    
2019/06/29  21:11:00  BASE  7.42056  231  8.50248  228  -6.6  100   -6.6  0     0     997.6    NA       0.0000   9999     850   0     0    
2019/06/29  21:12:00  BASE  6.54444  229  8.50248  228  -6.6  100   -6.6  0     0     997.7    NA       0.0000   9999     890   0     0    
2019/06/29  21:13:00  BASE  6.2622   231  8.50248  228  -6.6  100   -6.6  0     0     997.7    NA       0.0000   9999     890   0     0    
2019/06/29  21:14:00  BASE  7.07952  236  8.50248  228  -6.6  100   -6.6  0     0     997.6    NA       0.0000   9999     950   0     0    
2019/06/29  21:15:00  BASE  7.53816  235  8.50248  228  -6.7  100   -6.7  0     0     997.6    NA       0.0000   9999     920   0     0    
2019/06/29  21:16:00  BASE  7.18536  229  8.50248  228  -6.7  100   -6.7  0     0     997.7    NA       0.0000   9999     890   0     0    
2019/06/29  21:17:00  BASE  6.48564  225  8.50248  228  -6.7  100   -6.7  0     0     997.8    NA       0.0000   9999     890   0     0    
2019/06/29  21:18:00  BASE  5.52132  226  8.50248  228  -6.7  100   -6.7  0     0     997.8    NA       0.0000   9999     920   0     0    
2019/06/29  21:19:00  BASE  5.3214   227  8.50248  228  -6.7  100   -6.7  0     0     997.7    NA       0.0000   9999     950   0     0    
2019/06/29  21:20:00  BASE  5.83296  226  8.2908   235  -6.7  100   -6.7  0     0     997.7    NA       0.0000   9999     920   0     0    
2019/06/29  21:21:00  BASE  5.62128  228  8.2908   235  -6.7  100   -6.7  0     0     997.8    NA       0.0000   9999     950   0     0    
2019/06/29  21:22:00  BASE  6.21516  226  8.2908   235  -6.7  100   -6.7  0     0     997.7    NA       0.0000   9999     980   0     0    
2019/06/29  21:23:00  BASE  7.68516  221  8.50248  216  -6.7  100   -6.7  0     0     997.7    NA       0.0000   9999     1020  0     0    
2019/06/29  21:24:00  BASE  7.83216  219  8.50248  216  -6.8  100   -6.8  0     0     997.7    NA       0.0000   9999     1080  0     0    
2019/06/29  21:25:00  BASE  7.36176  224  8.50248  216  -6.8  100   -6.8  0     0     997.7    NA       0.0000   9999     950   0     0    
2019/06/29  21:26:00  BASE  7.35     227  8.50248  216  -6.8  100   -6.8  0     0     997.7    NA       0.0000   9999     980   0     0    
2019/06/29  21:27:00  BASE  6.80316  226  8.50248  216  -6.8  100   -6.8  0     0     997.7    NA       0.0000   9999     920   0     0    
2019/06/29  21:28:00  BASE  5.18616  223  8.50248  216  -6.8  100   -6.8  0     0     997.8    NA       0.0000   9999     920   0     0    
2019/06/29  21:29:00  BASE  3.97488  209  8.50248  216  -6.8  100   -6.8  0     0     997.8    NA       0.0000   9999     920   0     0    
2019/06/29  21:30:00  BASE  3.07524  200  8.50248  216  -6.9  100   -6.9  0     0     997.8    NA       0.0000   9999     950   0     0    
2019/06/29  21:31:00  BASE  2.69304  204  8.50248  216  -6.9  100   -6.9  0     0     997.9    NA       0.0000   9999     1180  0     0    
2019/06/29  21:32:00  BASE  2.9694   210  8.50248  216  -6.9  100   -6.9  0     0     997.9    NA       0.0000   9999     1120  0     0    
2019/06/29  21:33:00  BASE  4.32768  223  8.2908   223  -6.9  100   -6.9  0     0     997.8    NA       0.0000   9999     920   0     0    
2019/06/29  21:34:00  BASE  5.25672  230  8.2908   223  -7.0  100   -7.0  0     0     997.8    NA       0.0000   9999     1050  0     0    
2019/06/29  21:35:00  BASE  5.85648  230  8.2908   223  -7.0  100   -7.0  0     0     997.7    NA       0.0000   9999     950   0     0    
2019/06/29  21:36:00  BASE  6.762    232  8.3496   234  -6.9  100   -6.9  0     0     997.7    NA       0.0000   9999     980   0     0    
2019/06/29  21:37:00  BASE  6.60912  230  8.3496   234  -6.9  100   -6.9  0     0     997.8    NA       0.0000   9999     950   0     0    
2019/06/29  21:38:00  BASE  6.57384  222  8.3496   234  -6.9  100   -6.9  0     0     997.8    NA       0.0000   9999     1150  0     0    
2019/06/29  21:39:00  BASE  7.19712  224  8.64948  235  -6.9  100   -6.9  0     0     997.7    NA       0.0000   9999     1180  0     0    
2019/06/29  21:40:00  BASE  7.74396  230  8.64948  235  -6.8  100   -6.8  0     0     997.7    NA       0.0000   9999     1180  0     0    
2019/06/29  21:41:00  BASE  7.54404  226  8.64948  235  -6.8  100   -6.8  0     0     997.8    NA       0.0000   9999     1180  0     0    
2019/06/29  21:42:00  BASE  6.75612  220  8.64948  235  -6.8  100   -6.8  0     0     997.9    NA       0.0000   9999     1250  0     0    
2019/06/29  21:43:00  BASE  6.42684  217  8.64948  235  -6.8  100   -6.8  0     0     997.9    NA       0.0000   9999     1210  0     0    
2019/06/29  21:44:00  BASE  6.56796  218  8.64948  235  -6.8  100   -6.8  0     0     997.9    NA       0.0000   9999     1150  0     0    
2019/06/29  21:45:00  BASE  6.20928  221  8.64948  235  -6.9  100   -6.9  0     0     997.9    NA       0.0000   9999     1120  0     0    
2019/06/29  21:46:00  BASE  4.9392   214  8.64948  235  -6.9  100   -6.9  0     0     998.0    NA       0.0000   9999     1050  0     0    
2019/06/29  21:47:00  BASE  4.06896  200  8.64948  235  -6.9  100   -6.9  0     0     998.0    NA       0.0000   9999     1050  0     0    
2019/06/29  21:48:00  BASE  3.94548  205  8.64948  235  -7.0  100   -7.0  0     0     998.0    NA       0.0000   9999     1210  0     0    
2019/06/29  21:49:00  BASE  3.1164   222  8.25552  228  -7.0  100   -7.0  0     0     998.0    NA       0.0000   9999     1180  0     0    
2019/06/29  21:50:00  BASE  2.7636   233  8.16732  227  -7.0  100   -7.0  0     0     998.0    NA       0.0000   9999     1080  0     0    
2019/06/29  21:51:00  BASE  3.56328  235  7.92624  225  -7.0  100   -7.0  0     0     997.9    NA       0.0000   9999     1080  0     0    
2019/06/29  21:52:00  BASE  4.30416  237  7.92624  225  -7.0  100   -7.0  0     0     997.9    NA       0.0000   9999     1080  0     0    
2019/06/29  21:53:00  BASE  5.18028  237  7.92624  225  -6.9  100   -6.9  0     0     997.9    NA       0.0000   9999     1120  0     0    
2019/06/29  21:54:00  BASE  5.439    236  7.92624  225  -6.9  100   -6.9  0     0     997.9    NA       0.0000   9999     1080  0     0    
2019/06/29  21:55:00  BASE  5.06856  232  6.321    231  -6.9  100   -6.9  0     0     997.9    NA       0.0000   9999     1180  0     0    
2019/06/29  21:56:00  BASE  5.4684   227  6.92664  227  -6.9  100   -6.9  0     0     997.9    NA       0.0000   9999     1210  0     0    
2019/06/29  21:57:00  BASE  5.91528  224  6.92664  227  -6.9  100   -6.9  0     0     997.9    NA       0.0000   9999     1020  0     0    
2019/06/29  21:58:00  BASE  5.30964  207  6.92664  227  -7.0  100   -7.0  0     0     998.0    NA       0.0000   9999     980   0     0    
2019/06/29  21:59:00  BASE  3.72792  188  6.92664  227  -7.0  100   -7.0  0     0     998.0    NA       0.0000   9999     1080  0     0    
2019/06/29  22:00:00  BASE  2.68128  186  6.92664  227  -7.0  100   -7.0  0     0     998.0    NA       0.0000   9999     1050  0     0    
2019/06/29  22:01:00  BASE  2.40492  194  6.92664  227  -7.0  100   -7.1  0     0     998.0    NA       0.0000   9999     1080  0     0    
2019/06/29  22:02:00  BASE  2.08152  197  6.92664  227  -7.0  99    -7.1  0     0     998.1    NA       0.0000   9999     1150  0     0    
2019/06/29  22:03:00  BASE  1.89924  203  6.92664  227  -7.0  99    -7.1  0     0     998.2    NA       0.0000   9999     1080  0     0    
2019/06/29  22:04:00  BASE  1.83456  208  6.92664  227  -7.0  99    -7.1  0     0     998.2    NA       0.0000   9999     1120  0     0    
2019/06/29  22:05:00  BASE  1.9404   215  6.92664  227  -7.0  99    -7.1  0     0     998.2    NA       0.0000   9999     1050  0     0    
2019/06/29  22:06:00  BASE  2.37552  225  6.80316  230  -7.0  99    -7.1  0     0     998.2    NA       0.0000   9999     1180  0     0    
2019/06/29  22:07:00  BASE  2.71068  225  5.65656  195  -7.0  99    -7.1  0     0     998.3    NA       0.0000   9999     1120  0     0    
2019/06/29  22:08:00  BASE  3.22812  232  4.41588  252  -7.0  99    -7.1  0     0     998.3    NA       0.0000   9999     1020  0     0    
2019/06/29  22:09:00  BASE  4.47468  239  6.05052  245  -6.9  99    -7.1  0     0     998.2    NA       0.0000   9999     1020  0     0    
2019/06/29  22:10:00  BASE  5.45076  241  6.321    242  -6.9  99    -7.1  0     0     998.2    NA       0.0000   9999     920   0     0    
2019/06/29  22:11:00  BASE  5.20968  241  6.321    242  -6.9  99    -7.0  0     0     998.2    NA       0.0000   9999     950   0     0    
2019/06/29  22:12:00  BASE  4.89216  245  6.321    242  -6.9  99    -7.0  0     0     998.2    NA       0.0000   9999     1080  0     0    
2019/06/29  22:13:00  BASE  5.45076  250  7.3206   259  -6.9  99    -7.0  0     0     998.2    NA       0.0000   9999     1050  0     0    
2019/06/29  22:14:00  BASE  5.6154   250  7.3206   259  -6.9  99    -7.0  0     0     998.2    NA       0.0000   9999     1020  0     0    
2019/06/29  22:15:00  BASE  5.16852  250  7.3206   259  -6.9  99    -7.1  0     0     998.3    NA       0.0000   9999     1120  0     0    
2019/06/29  22:16:00  BASE  5.2038   239  7.3206   259  -7.0  99    -7.1  0     0     998.3    NA       0.0000   9999     1050  0     0    
2019/06/29  22:17:00  BASE  4.62168  228  7.3206   259  -7.0  99    -7.1  0     0     998.4    NA       0.0000   9999     1020  0     0    
2019/06/29  22:18:00  BASE  3.37512  228  7.3206   259  -7.0  99    -7.1  0     0     998.4    NA       0.0000   9999     1120  0     0    
2019/06/29  22:19:00  BASE  2.97528  220  7.3206   259  -7.1  99    -7.1  0     0     998.4    NA       0.0000   9999     950   0     0    
2019/06/29  22:20:00  BASE  2.78124  211  7.3206   259  -7.1  100   -7.1  0     0     998.4    NA       0.0000   9999     890   0     0    
2019/06/29  22:21:00  BASE  2.13444  208  7.3206   259  -7.1  100   -7.2  0     0     998.4    NA       0.0000   9999     890   0     0    
2019/06/29  22:22:00  BASE  1.5876   211  7.3206   259  -7.1  100   -7.2  0     0     998.4    NA       0.0000   9999     980   0     0    
2019/06/29  22:23:00  BASE  1.8228   230  6.2034   233  -7.1  99    -7.2  0     0     998.4    NA       0.0000   9999     1080  0     0    
2019/06/29  22:24:00  BASE  2.74596  248  6.2034   233  -7.1  99    -7.2  0     0     998.4    NA       0.0000   9999     1080  0     0    
2019/06/29  22:25:00  BASE  3.32808  251  6.2034   233  -7.1  99    -7.2  0     0     998.4    NA       0.0000   9999     1080  0     0    
2019/06/29  22:26:00  BASE  3.42804  237  4.47468  233  -7.1  99    -7.2  0     0     998.4    NA       0.0000   9999     950   0     0    
2019/06/29  22:27:00  BASE  3.63972  228  4.53936  230  -7.1  99    -7.2  0     0     998.3    NA       0.0000   9999     1020  0     0    
2019/06/29  22:28:00  BASE  3.969    236  5.65656  239  -7.0  99    -7.2  0     0     998.3    NA       0.0000   9999     980   0     0    
2019/06/29  22:29:00  BASE  4.7334   243  5.95644  243  -7.0  99    -7.1  0     0     998.2    NA       0.0000   9999     950   0     0    
2019/06/29  22:30:01  BASE  5.62128  241  6.86784  234  -7.0  99    -7.1  0     0     998.2    NA       0.0000   9999     950   0     0    
2019/06/29  22:31:00  BASE  5.3508   236  6.86784  234  -7.0  100   -7.0  0     0     998.2    NA       0.0000   9999     920   0     0    
2019/06/29  22:32:00  BASE  4.32768  237  6.86784  234  -6.9  100   -7.0  0     0     998.3    NA       0.0000   9999     980   0     0    
2019/06/29  22:33:00  BASE  3.77496  244  6.86784  234  -6.9  100   -6.9  0     0     998.3    NA       0.0000   9999     980   0     0    
2019/06/29  22:34:00  BASE  4.15716  251  6.86784  234  -6.9  100   -6.9  0     0     998.2    NA       0.0000   9999     1050  0     0    
2019/06/29  22:35:00  BASE  5.66832  233  7.53228  224  -6.9  100   -6.9  0     0     998.2    NA       0.0000   9999     980   0     0    
2019/06/29  22:36:00  BASE  6.59736  222  7.53228  224  -6.9  100   -6.9  0     0     998.1    NA       0.0000   9999     1020  0     0    
2019/06/29  22:37:00  BASE  6.2916   233  7.53228  224  -6.9  100   -6.9  0     0     998.2    NA       0.0000   9999     1050  0     0    
2019/06/29  22:38:00  BASE  6.21516  228  7.53228  224  -6.9  100   -6.9  0     0     998.2    NA       0.0000   9999     1050  0     0    
2019/06/29  22:39:00  BASE  6.32688  216  7.53228  224  -6.9  100   -6.9  0     0     998.3    NA       0.0000   9999     980   0     0    
2019/06/29  22:40:00  BASE  6.1152   211  7.53228  224  -6.9  100   -6.9  0     0     998.3    NA       0.0000   9999     1050  0     0    
2019/06/29  22:41:00  BASE  6.33864  214  7.53228  224  -6.9  100   -6.9  0     0     998.3    NA       0.0000   9999     1150  0     0    
2019/06/29  22:42:00  BASE  6.56796  213  7.53228  224  -6.9  100   -6.9  0     0     998.3    NA       0.0000   9999     1180  0     0    
2019/06/29  22:43:00  BASE  6.33864  219  7.65576  239  -6.9  100   -6.9  0     0     998.3    NA       0.0000   9999     1180  0     0    
2019/06/29  22:44:00  BASE  6.50328  229  7.65576  239  -6.9  100   -6.9  0     0     998.3    NA       0.0000   9999     1080  0     0    
2019/06/29  22:45:00  BASE  6.72084  229  7.77336  227  -6.9  100   -6.9  0     0     998.3    NA       0.0000   9999     1080  0     0    
2019/06/29  22:46:00  BASE  6.53856  231  7.77336  227  -7.0  100   -7.0  0     0     998.4    NA       0.0000   9999     1050  0     0    
2019/06/29  22:47:00  BASE  5.99172  234  7.77336  227  -7.0  100   -7.0  0     0     998.4    NA       0.0000   9999     1080  0     0    
2019/06/29  22:48:00  BASE  4.56288  240  7.77336  227  -7.1  100   -7.1  0     0     998.4    NA       0.0000   9999     920   0     0    
2019/06/29  22:49:00  BASE  3.71616  237  7.77336  227  -7.2  100   -7.2  0     0     998.4    NA       0.0000   9999     950   0     0    
2019/06/29  22:50:00  BASE  3.9102   229  7.77336  227  -7.2  100   -7.2  0     0     998.4    NA       0.0000   9999     950   0     0    
2019/06/29  22:51:00  BASE  4.0572   228  7.77336  227  -7.2  100   -7.2  0     0     998.4    NA       0.0000   9999     980   0     0    
2019/06/29  22:52:00  BASE  3.73968  214  7.77336  227  -7.2  100   -7.2  0     0     998.4    NA       0.0000   9999     980   0     0    
2019/06/29  22:53:00  BASE  2.85768  206  7.77336  227  -7.3  100   -7.3  0     0     998.5    NA       0.0000   9999     1210  0     0    
2019/06/29  22:54:00  BASE  2.57544  217  7.77336  227  -7.3  100   -7.3  0     0     998.4    NA       0.0000   9999     1350  0     0    
2019/06/29  22:55:00  BASE  3.44568  220  7.05012  231  -7.2  100   -7.2  0     0     998.4    NA       0.0000   9999     1310  0     0    
2019/06/29  22:56:00  BASE  4.2336   211  6.80316  233  -7.3  100   -7.3  0     0     998.4    NA       0.0000   9999     1310  0     0    
2019/06/29  22:57:00  BASE  4.34532  202  5.47428  210  -7.3  100   -7.3  0     0     998.4    NA       0.0000   9999     1150  0     0    
2019/06/29  22:58:00  BASE  3.97488  199  5.47428  210  -7.3  100   -7.3  0     0     998.4    NA       0.0000   9999     1120  0     0    
2019/06/29  22:59:00  BASE  2.98704  191  5.47428  210  -7.3  100   -7.3  0     0     998.4    NA       0.0000   9999     1020  0     0    
2019/06/29  23:00:00  BASE  2.65188  186  5.47428  210  -7.3  99    -7.4  0     0     998.5    NA       0.0000   9999     1080  0     0    
2019/06/29  23:01:00  BASE  2.84592  188  5.47428  210  -7.3  99    -7.4  0     0     998.5    NA       0.0000   9999     1120  0     0    
2019/06/29  23:02:00  BASE  2.90472  194  5.47428  210  -7.3  99    -7.5  0     0     998.5    NA       0.0000   9999     1180  0     0    
2019/06/29  23:03:00  BASE  3.0282   202  5.47428  210  -7.3  99    -7.5  0     0     998.5    NA       0.0000   9999     1120  0     0    
2019/06/29  23:04:00  BASE  2.8224   200  5.47428  210  -7.3  99    -7.4  0     0     998.5    NA       0.0000   9999     1180  0     0    
2019/06/29  23:05:00  BASE  2.58132  198  5.35668  209  -7.3  99    -7.4  0     0     998.5    NA       0.0000   9999     1180  0     0    
2019/06/29  23:06:00  BASE  2.66952  204  4.93332  202  -7.2  99    -7.4  0     0     998.5    NA       0.0000   9999     1150  0     0    
2019/06/29  23:07:00  BASE  3.25752  198  4.47468  202  -7.2  99    -7.4  0     0     998.5    NA       0.0000   9999     1180  0     0    
2019/06/29  23:08:00  BASE  3.0576   186  4.47468  202  -7.2  98    -7.4  0     0     998.5    NA       0.0000   9999     1250  0     0    
2019/06/29  23:09:00  BASE  2.99292  191  5.2038   198  -7.2  98    -7.4  0     0     998.5    NA       0.0000   9999     1080  0     0    
2019/06/29  23:10:00  BASE  4.11012  198  5.2038   198  -7.2  98    -7.4  0     0     998.5    NA       0.0000   9999     1050  0     0    
2019/06/29  23:11:00  BASE  4.36884  199  5.2038   198  -7.1  98    -7.4  0     0     998.5    NA       0.0000   9999     1150  0     0    
2019/06/29  23:12:00  BASE  3.89844  198  5.2038   198  -7.1  98    -7.4  0     0     998.5    NA       0.0000   9999     1120  0     0    
2019/06/29  23:13:00  BASE  4.66284  197  6.13872  191  -7.1  98    -7.4  0     0     998.5    NA       0.0000   9999     1050  0     0    
2019/06/29  23:14:00  BASE  5.59188  200  6.13872  191  -7.1  98    -7.3  0     0     998.5    NA       0.0000   9999     1180  0     0    
2019/06/29  23:15:00  BASE  5.36256  204  6.13872  191  -7.1  98    -7.4  0     0     998.5    NA       0.0000   9999     1210  0     0    
2019/06/29  23:16:00  BASE  5.52132  212  6.41508  213  -7.1  98    -7.4  0     0     998.5    NA       0.0000   9999     1280  0     0    
2019/06/29  23:17:00  BASE  5.52132  218  6.41508  213  -7.1  98    -7.4  0     0     998.5    NA       0.0000   9999     1250  0     0    
2019/06/29  23:18:00  BASE  5.59776  209  6.65616  213  -7.1  98    -7.4  0     0     998.6    NA       0.0000   9999     1150  0     0    
2019/06/29  23:19:00  BASE  5.47428  202  6.65616  213  -7.1  98    -7.4  0     0     998.6    NA       0.0000   9999     1120  0     0    
2019/06/29  23:20:00  BASE  4.68636  202  6.65616  213  -7.2  98    -7.4  0     0     998.6    NA       0.0000   9999     1050  0     0    
2019/06/29  23:21:00  BASE  3.9102   200  6.65616  213  -7.2  98    -7.4  0     0     998.6    NA       0.0000   9999     1080  0     0    
2019/06/29  23:22:00  BASE  3.37512  199  6.65616  213  -7.2  98    -7.4  0     0     998.6    NA       0.0000   9999     1080  0     0    
2019/06/29  23:23:00  BASE  3.3222   203  6.65616  213  -7.2  98    -7.5  0     0     998.6    NA       0.0000   9999     1180  0     0    
2019/06/29  23:24:00  BASE  3.60444  204  6.65616  213  -7.2  98    -7.4  0     0     998.6    NA       0.0000   9999     1080  0     0    
2019/06/29  23:25:00  BASE  3.53388  207  6.65616  213  -7.2  98    -7.4  0     0     998.6    NA       0.0000   9999     1080  0     0    
2019/06/29  23:26:00  BASE  2.92236  222  6.65616  213  -7.1  98    -7.4  0     0     998.6    NA       0.0000   9999     1120  0     0    
2019/06/29  23:27:00  BASE  3.07524  233  6.65616  213  -7.1  98    -7.4  0     0     998.6    NA       0.0000   9999     1050  0     0    
2019/06/29  23:28:00  BASE  3.88668  227  5.86824  195  -7.0  98    -7.3  0     0     998.6    NA       0.0000   9999     1120  0     0    
2019/06/29  23:29:00  BASE  4.66284  218  5.47428  224  -7.0  98    -7.3  0     0     998.6    NA       0.0000   9999     1080  0     0    
2019/06/29  23:30:00  BASE  4.79808  233  5.47428  224  -7.0  98    -7.2  0     0     998.6    NA       0.0000   9999     1080  0     0    
2019/06/29  23:31:00  BASE  4.49232  239  5.47428  224  -6.9  98    -7.2  0     0     998.7    NA       0.0000   9999     1150  0     0    
2019/06/29  23:32:00  BASE  4.4688   224  5.47428  224  -6.9  98    -7.1  0     0     998.7    NA       0.0000   9999     1250  0     0    
2019/06/29  23:33:00  BASE  4.85688  220  5.92704  210  -6.8  98    -7.1  0     0     998.7    NA       0.0000   9999     1310  0     0    
2019/06/29  23:34:00  BASE  4.71576  225  5.92704  210  -6.8  98    -7.1  0     0     998.7    NA       0.0000   9999     1250  0     0    
2019/06/29  23:35:00  BASE  3.56916  232  5.92704  210  -6.9  98    -7.1  0     0     998.7    NA       0.0000   9999     1150  0     0    
2019/06/29  23:36:00  BASE  3.087    230  5.92704  210  -6.9  98    -7.2  0     0     998.7    NA       0.0000   9999     1250  0     0    
2019/06/29  23:37:00  BASE  3.27516  226  5.92704  210  -7.0  98    -7.3  0     0     998.7    NA       0.0000   9999     1180  0     0    
2019/06/29  23:38:00  BASE  3.19872  218  5.92704  210  -7.1  98    -7.3  0     0     998.8    NA       0.0000   9999     1180  0     0    
2019/06/29  23:39:00  BASE  3.51036  214  5.92704  210  -7.1  98    -7.4  0     0     998.8    NA       0.0000   9999     1080  0     0    
2019/06/29  23:40:00  BASE  4.51584  227  5.92704  235  -7.1  98    -7.3  0     0     998.7    NA       0.0000   9999     1020  0     0    
2019/06/29  23:41:00  BASE  4.98624  233  5.92704  235  -7.0  98    -7.2  0     0     998.7    NA       0.0000   9999     950   0     0    
2019/06/29  23:42:00  BASE  4.31004  230  5.92704  235  -7.0  98    -7.2  0     0     998.7    NA       0.0000   9999     1050  0     0    
2019/06/29  23:43:00  BASE  3.42804  236  5.92704  235  -7.0  98    -7.2  0     0     998.8    NA       0.0000   9999     1020  0     0    
2019/06/29  23:44:00  BASE  3.31044  236  5.92704  235  -6.9  98    -7.2  0     0     998.8    NA       0.0000   9999     1080  0     0    
2019/06/29  23:45:00  BASE  3.77496  234  5.92704  235  -7.0  98    -7.2  0     0     998.8    NA       0.0000   9999     1080  0     0    
2019/06/29  23:46:00  BASE  4.27476  226  5.92704  235  -7.0  99    -7.1  0     0     998.8    NA       0.0000   9999     1150  0     0    
2019/06/29  23:47:00  BASE  5.439    219  7.3794   223  -7.0  99    -7.1  0     0     998.7    NA       0.0000   9999     1080  0     0    
2019/06/29  23:48:00  BASE  6.09756  224  7.3794   223  -7.0  99    -7.1  0     0     998.8    NA       0.0000   9999     1150  0     0    
2019/06/29  23:49:00  BASE  5.92704  226  7.3794   223  -7.0  99    -7.1  0     0     998.7    NA       0.0000   9999     1180  0     0    
2019/06/29  23:50:00  BASE  6.22692  224  7.3794   223  -7.0  99    -7.1  0     0     998.7    NA       0.0000   9999     1150  0     0    
2019/06/29  23:51:00  BASE  6.5856   222  7.77336  221  -7.1  99    -7.2  0     0     998.7    NA       0.0000   9999     1180  0     0    
2019/06/29  23:52:00  BASE  6.4974   229  7.77336  221  -7.1  99    -7.2  0     0     998.6    NA       0.0000   9999     1210  0     0    
2019/06/29  23:53:00  BASE  6.89724  235  8.3202   237  -7.1  99    -7.2  0     0     998.6    NA       0.0000   9999     1180  0     0    
2019/06/29  23:54:00  BASE  7.00308  236  8.3202   237  -7.1  99    -7.2  0     0     998.6    NA       0.0000   9999     1310  0     0    
2019/06/29  23:55:00  BASE  6.09168  242  8.3202   237  -7.1  99    -7.3  0     0     998.7    NA       0.0000   9999     1250  0     0    
2019/06/29  23:56:00  BASE  5.5272   246  8.3202   237  -7.1  99    -7.3  0     0     998.8    NA       0.0000   9999     1180  0     0    
2019/06/29  23:57:00  BASE  5.03328  242  8.3202   237  -7.2  98    -7.4  0     0     998.8    NA       0.0000   9999     1180  0     0    
2019/06/29  23:58:00  BASE  4.98036  241  8.3202   237  -7.3  98    -7.5  0     0     998.8    NA       0.0000   9999     1250  0     0    
2019/06/29  23:59:00  BASE  4.92744  232  8.3202   237  -7.3  98    -7.6  0     0     998.9    NA       0.0000   9999     1120  0     0